     2              OBSERVATION DATA    GPS                 RINEX VERSION / TYPE
teqc 2000Feb29 Duncan Agnew 20000428 21:00:38UTC            PGM / RUN BY / DATE
                                                            COMMENT
L2: 1 -> 1; 150 -> 5; 250 -> 9                              COMMENT
L2: 1 -> 1; 150 -> 5; 250 -> 9                              COMMENT
L2: 1 -> 1; 150 -> 5; 250 -> 9                              COMMENT
L2: 1 -> 1; 150 -> 5; 250 -> 9                              COMMENT
L2: 1 -> 1; 150 -> 5; 250 -> 9                              COMMENT
Original Marker Name: PUET                                  COMMENT
Campaign Name: Hector Postseismic                           COMMENT
4-Character Station Name: PUET                              COMMENT
6-Character Antenna Code: DMRCHT                            COMMENT
Vertical Measurement Point: BCR                             COMMENT
Vertical Offset to Rinex Ref. Point: 0.0348                 COMMENT
Radial Measurement Point: ECF                               COMMENT
Radial Offset to Rinex Ref. Point: 0.1897                   COMMENT
Antenna Height from Field Measurement: 0.9825 m             COMMENT
Additional Antenna Identification Info.:                    COMMENT
Turborogue and Ashtech Choke Ring                           COMMENT
Original XYZ: -2325934.8665 -4733599.1440 3575541.3121      COMMENT
New XYZ position is based on association with SCEC monument COMMENT
E1F2H1D6+0011. Position of that monument is believed to be  COMMENT
valid to within 1 m horizontally; vertical accuracy         COMMENT
should be no worse than 3-times this value.                 COMMENT
                                                            COMMENT
Revised Rinex header created by UCSD GPS archive for        COMMENT
GSAC on 17-Jun-2000 (2000:169) 00:20:25 GMT                 COMMENT
For assistance contact dagnew@ucsd.edu                      COMMENT
or anderson@python.ucsd.edu                                 COMMENT
                                                            COMMENT
PUETT'S CORNER MARCH 1988                                   MARKER NAME
SEO UNIV SOUTHERN CALIFORNIA                                OBSERVER / AGENCY
203 ASHTECH Z-XII3 CD00                                     REC # / TYPE / VERS
364 DORNE-MARGOL. TYPE T                                    ANT # / TYPE
 -2325968.2391 -4733584.8664  3575546.1222                  APPROX POSITION XYZ
        0.9292        0.0000        0.0000                  ANTENNA: DELTA H/E/N
     1     1     0                                          WAVELENGTH FACT L1/2
     7    C1    L1    L2    P1    P2    S1    S2            # / TYPES OF OBSERV
     0                                                      INTERVAL
  2000     2     4     0     0   30.000000                  TIME OF FIRST OBS
  2000     2     4    23    59    0.000000                  TIME OF LAST OBS
                                                            END OF HEADER
 00  2  4  0  0 30.0000000  0  8G 5G 4G 9G16G10G30G 7G24
  20920422.734   -23899540.20549 -18609319.54047  20920421.953    20920429.905
       244.000         210.000
  21248116.573   -20308277.26149 -15632473.98047  21248116.695    21248124.559
       240.000         202.000
  22112253.447   -17041758.10549 -13263408.78547  22112253.046    22112262.263
       235.000         191.000
  24537268.983    -1832919.15549  -1264730.89745  24537268.542    24537280.417
       209.000         141.000
  24205485.104    -7158987.26249  -5563320.02745  24205483.552    24205496.768
       207.000         143.000
  23761456.173    -6537895.49149  -5076935.62045  23761455.726    23761466.953
       220.000         159.000
  24033039.427    -6202950.83549  -4821054.03745  24033038.704    24033050.262
       215.000         152.000
  20200845.994   -25760521.76649 -19836798.88348  20200845.676    20200853.830
       244.000         215.000
 00  2  4  0  1  0.0000000  0  8G 5G 4G 9G16G10G30G 7G24
  20909862.708   -23955033.32949 -18652560.88347  20909862.184    20909870.066
       244.000         210.000
  21261401.126   -20238466.48649 -15578075.98547  21261401.038    21261409.256
       241.000         202.000
  22125126.564   -16974109.16649 -13210695.35247  22125126.404    22125135.144
       234.000         191.000
  24544762.667    -1793539.84749  -1234045.69445  24544762.185    24544774.143
       208.000         141.000
  24186411.748    -7259217.56149  -5641421.32445  24186410.187    24186423.079
       207.000         144.000
  23742619.616    -6636881.42849  -5154067.30945  23742618.957    23742630.446
       219.000         158.000
  24045848.523    -6135638.91649  -4768603.21845  24045847.966    24045858.650
       214.000         152.000
  20199284.329   -25768728.18549 -19843193.46048  20199283.907    20199292.159
       244.000         215.000
 00  2  4  0  1 30.0000000  0  8G 5G 4G 9G16G10G30G 7G24
  20899369.585   -24010174.90049 -18695528.29147  20899368.788    20899376.626
       244.000         211.000
  21274758.363   -20168273.79949 -15523380.39647  21274758.651    21274766.486
       240.000         202.000
  22138064.070   -16906122.14749 -13157718.48247  22138063.947    22138072.698
       234.000         191.000
  24552355.024    -1753641.64649  -1202956.16045  24552354.129    24552365.874
       209.000         140.000
  24167335.418    -7359463.17349  -5719534.55845  24167334.213    24167346.854
       209.000         146.000
  23723801.162    -6735772.10049  -5231124.75845  23723800.864    23723811.597
       219.000         158.000
  24058662.415    -6068301.41849  -4716132.47645  24058662.445    24058673.206
       211.000         152.000
  20197819.862   -25776423.84149 -19849190.03848  20197819.451    20197827.546
       244.000         215.000
 00  2  4  0  2  0.0000000  0  8G 5G 4G 9G16G10G30G 7G24
  20888942.962   -24064966.99849 -18738223.39047  20888942.456    20888950.115
       246.000         211.000
  21288188.024   -20097700.50349 -15468388.23247  21288187.824    21288195.905
       240.000         202.000
  22151065.299   -16837800.49249 -13104480.86047  22151065.227    22151074.266
       234.000         191.000
  24560044.361    -1713233.27849  -1171469.07145  24560044.015    24560055.669
       212.000         139.000
  24148257.722    -7459716.03549  -5797653.46645  24148256.620    24148269.295
       207.000         147.000
  23704999.120    -6834576.49649  -5308115.00345  23704999.290    23705010.750
       219.000         157.000
  24071477.221    -6000959.22649  -4663658.08145  24071476.653    24071488.678
       214.000         152.000
  20196451.290   -25783615.41049 -19854793.82648  20196450.988    20196458.895
       244.000         215.000
 00  2  4  0  2 30.0000000  0  8G 5G 4G 9G16G10G30G 7G24
  20878584.840   -24119399.00449 -18780637.89147  20878584.147    20878592.238
       246.000         211.000
  21301688.220   -20026756.52549 -15413107.22647  21301688.168    21301696.017
       240.000         201.000
  22164128.382   -16769153.62149 -13050989.82347  22164128.053    22164137.154
       234.000         190.000
  24567828.912    -1672324.79849  -1139592.31345  24567828.426    24567839.741
       205.000         138.000
  24129178.077    -7559979.27949  -5875780.45845  24129177.078    24129189.220
       209.000         148.000
  23686212.626    -6933298.99849  -5385041.42545  23686212.047    23686223.012
       218.000         156.000
  24084293.150    -5933611.07249  -4611179.04245  24084292.151    24084304.211
       210.000         152.000
  20195177.857   -25790307.20549 -19860008.17848  20195177.769    20195185.666
       244.000         215.000
 00  2  4  0  3  0.0000000  0  7G 5G 4G 9G10G30G 7G24
  20868295.892   -24173467.67649 -18822769.27547  20868295.120    20868303.046
       246.000         211.000
  21315259.103   -19955441.19449 -15357536.84947  21315259.503    21315267.387
       240.000         201.000
  22177251.842   -16700189.50849 -12997251.58847  22177251.798    22177260.774
       234.000         190.000
  24110095.715    -7660257.09849  -5953918.81045  24110094.209    24110107.953
       209.000         149.000
  23667441.204    -7031942.75449  -5461906.48645  23667440.512    23667450.946
       218.000         155.000
  24097113.997    -5866237.24349  -4558679.98045  24097113.046    24097124.385
       212.000         152.000
  20194002.301   -25796484.74849 -19864821.81048  20194002.043    20194009.962
       244.000         215.000
 00  2  4  0  3 30.0000000  0  7G 5G 4G 9G10G30G 7G24
  20858071.037   -24227199.42749 -18864638.12647  20858070.188    20858078.082
       246.000         211.000
  21328896.241   -19883777.60049 -15301695.10147  21328896.402    21328904.093
       239.000         201.000
  22190435.784   -16630907.45149 -12943265.60447  22190435.441    22190444.834
       233.000         190.000
  24091006.045    -7760573.15549  -6032086.98545  24091005.194    24091017.862
       207.000         150.000
  23648678.886    -7130538.85349  -5538734.41845  23648679.260    23648689.272
       217.000         154.000
  24109935.721    -5798858.54549  -4506177.13445  24109934.660    24109947.260
       209.000         151.000
  20192925.385   -25802143.97749 -19869231.56548  20192925.309    20192933.331
       244.000         215.000
 00  2  4  0  4  0.0000000  0  7G 5G 4G 9G10G30G 7G24
  20847916.637   -24280560.82249 -18906218.38247  20847915.978    20847924.006
       246.000         211.000
  21342605.810   -19811733.20549 -15245556.61347  21342605.791    21342613.903
       239.000         200.000
  22203693.195   -16561239.57249 -12888978.97547  22203693.073    22203702.194
       233.000         190.000
  24071915.237    -7860895.07049  -6110259.72745  24071914.051    24071926.662
       208.000         150.000
  23629932.360    -7229051.74649  -5615497.50845  23629932.548    23629942.152
       217.000         153.000
  24122767.535    -5731427.13849  -4453633.22445  24122767.066    24122778.322
       213.000         151.000
  20191953.168   -25807253.00649 -19873212.58848  20191952.932    20191960.989
       244.000         215.000
 00  2  4  0  4 30.0000000  0  7G 5G 4G 9G10G30G 7G24
  20837831.424   -24333558.83449 -18947515.48347  20837830.720    20837838.703
       246.000         212.000
  21356384.662   -19739324.95249 -15189134.61047  21356384.942    21356392.819
       240.000         200.000
  22217026.813   -16491171.08749 -12834380.19247  22217026.702    22217035.160
       234.000         190.000
  24052823.008    -7961224.63449  -6188438.43445  24052822.038    24052834.980
       207.000         150.000
  23611200.307    -7327488.21249  -5692201.07745  23611199.267    23611210.583
       216.000         152.000
  24135610.302    -5663937.77049  -4401044.15045  24135609.215    24135620.985
       210.000         150.000
  20191085.462   -25811812.72049 -19876765.57848  20191085.153    20191093.001
       245.000         215.000
 00  2  4  0  5  0.0000000  0  7G 5G 4G 9G10G30G 7G24
  20827810.816   -24386217.33649 -18988548.02347  20827809.977    20827818.014
       247.000         212.000
  21370229.506   -19666569.96649 -15132442.41947  21370229.658    21370237.283
       239.000         200.000
  22230435.882   -16420706.01049 -12779472.36847  22230435.520    22230444.970
       233.000         190.000
  24033729.160    -8061562.92849  -6266623.95145  24033727.896    24033740.726
       209.000         149.000
  23592479.883    -7425863.75949  -5768857.14845  23592480.016    23592490.456
       215.000         152.000
  24148459.332    -5596415.50549  -4348429.43245  24148457.691    24148470.495
       208.000         149.000
  20190320.148   -25815834.40049 -19879899.31348  20190319.782    20190327.873
       245.000         215.000
 00  2  4  0  5 30.0000000  0  7G 5G 4G 9G10G30G 7G24
  20817853.520   -24438543.09649 -19029321.28647  20817852.730    20817860.713
       246.000         212.000
  21384138.720   -19593476.39049 -15075486.39347  21384138.919    21384146.853
       239.000         200.000
  22243923.669   -16349827.35649 -12724242.27847  22243923.242    22243932.468
       234.000         190.000
  24014634.455    -8161905.38749  -6344812.71545  24014632.616    24014645.474
       209.000         150.000
  23573774.206    -7524161.73149  -5845452.77145  23573774.466    23573784.359
       214.000         151.000
  24161313.330    -5528867.08449  -4295794.34145  24161313.001    24161324.965
       208.000         148.000
  20189654.368   -25819332.81749 -19882625.31948  20189654.003    20189662.042
       244.000         215.000
 00  2  4  0  6  0.0000000  0  7G 5G 4G 9G10G30G 7G24
  20807959.262   -24490537.57649 -19069836.40947  20807958.290    20807966.404
       246.000         212.000
  21398109.249   -19520060.56349 -15018279.26247  21398109.217    21398117.136
       239.000         199.000
  22257486.175   -16278556.06749 -12668706.24247  22257486.123    22257495.158
       233.000         190.000
  23995536.497    -8262265.23349  -6423015.04345  23995535.177    23995547.872
       210.000         150.000
  23555084.213    -7622377.20749  -5921984.11645  23555084.115    23555094.635
       214.000         151.000
  24174170.936    -5461300.13949  -4243144.81345  24174170.560    24174182.041
       209.000         149.000
  20189084.885   -25822325.33749 -19884957.12148  20189084.578    20189092.738
       244.000         215.000
 00  2  4  0  6 30.0000000  0  7G 5G 4G 9G10G30G 7G24
  20798131.118   -24542184.63449 -19110080.81147  20798130.374    20798138.334
       246.000         212.000
  21412138.978   -19446333.88149 -14960829.90447  21412139.264    21412146.759
       239.000         199.000
  22271117.647   -16206922.29649 -12612887.74447  22271117.746    22271126.552
       233.000         189.000
  23976436.314    -8362636.59949  -6501226.33145  23976435.699    23976447.916
       209.000         151.000
  23536411.254    -7720503.67849  -5998446.11345  23536411.481    23536421.892
       214.000         153.000
  24187032.407    -5393712.94349  -4190479.50345  24187031.536    24187043.770
       207.000         148.000
  20188613.056   -25824804.65549 -19886889.02448  20188612.764    20188620.855
       244.000         215.000
 00  2  4  0  7  0.0000000  0  7G 5G 4G 9G10G30G 7G24
  20788371.607   -24593470.93849 -19150044.10748  20788370.960    20788378.752
       247.000         213.000
  21426229.170   -19372289.64049 -14903133.10147  21426229.450    21426236.978
       239.000         199.000
  22284812.268   -16134956.88149 -12556810.83547  22284812.116    22284820.845
       233.000         189.000
  23957335.165    -8463012.95649  -6579441.52045  23957333.793    23957346.635
       211.000         152.000
  23517759.093    -7818520.64849  -6074822.79145  23517759.474    23517769.130
       215.000         154.000
  24199899.015    -5326098.89649  -4137793.28145  24199899.468    24199909.993
       207.000         147.000
  20188236.317   -25826784.21649 -19888431.50748  20188236.015    20188243.946
       244.000         215.000
 00  2  4  0  7 30.0000000  0  8G 6G 5G 4G 9G10G30G 7G24
  24866487.525    -3871470.20849  -3006321.57545  24866486.859    24866501.237
       203.000         142.000
  20778679.675   -24644402.12449 -19189730.68848  20778678.970    20778686.761
       247.000         213.000
  21440377.950   -19297937.24349 -14845196.17647  21440377.885    21440385.925
       238.000         199.000
  22298564.544   -16062688.25749 -12500497.64647  22298564.315    22298573.408
       233.000         189.000
  23938232.556    -8563397.19249  -6657662.86445  23938231.287    23938243.892
       212.000         153.000
  23499125.973    -7916437.73449  -6151121.64245  23499125.454    23499135.798
       216.000         155.000
  24212769.549    -5258464.12849  -4085090.89745  24212769.289    24212780.509
       207.000         146.000
  20187951.273   -25828281.82249 -19889598.44148  20187951.002    20187959.029
       244.000         215.000
 00  2  4  0  8  0.0000000  0  8G 6G 5G 4G 9G10G30G 7G24
  24852977.250    -3942466.39949  -3061643.02845  24852976.742    24852990.281
       200.000         141.000
  20769058.856   -24694959.55749 -19229126.03648  20769058.210    20769066.259
       246.000         213.000
  21454587.869   -19223263.69149 -14787009.00047  21454588.018    21454595.628
       238.000         199.000
  22312368.738   -15990146.75049 -12443971.82947  22312369.038    22312377.212
       233.000         189.000
  23919131.333    -8663774.26249  -6735878.61945  23919130.071    23919142.942
       213.000         154.000
  23480509.495    -8014267.36249  -6227352.35545  23480508.852    23480519.809
       216.000         157.000
  24225644.896    -5190804.56649  -4032369.20945  24225643.906    24225655.459
       205.000         145.000
  20187760.070   -25829286.54049 -19890381.31248  20187759.705    20187767.930
       244.000         215.000
 00  2  4  0  8 30.0000000  0  8G 6G 5G 4G 9G10G30G 7G24
  24839472.065    -4013435.16549  -3116943.08145  24839471.032    24839484.653
       201.000         140.000
  20759508.354   -24745147.73749 -19268233.64948  20759507.632    20759515.424
       247.000         213.000
  21468864.462   -19148239.75149 -14728548.79047  21468864.374    21468872.435
       238.000         198.000
  22326225.747   -15917327.76449 -12387229.78447  22326225.116    22326234.451
       233.000         189.000
  23900035.208    -8764124.57849  -6814073.53145  23900034.041    23900046.826
       214.000         155.000
  23461911.134    -8112001.76449  -6303508.88345  23461910.447    23461921.837
       217.000         158.000
  24238527.538    -5123106.04149  -3979617.15245  24238526.048    24238538.467
       204.000         144.000
  20187663.679   -25829792.94249 -19890775.87548  20187663.411    20187671.300
       244.000         215.000
 00  2  4  0  9  0.0000000  0  8G 6G 5G 4G 9G10G30G 7G24
  24825971.306    -4084380.95649  -3172225.25245  24825971.288    24825984.992
       202.000         140.000
  20750023.261   -24794992.05049 -19307073.32048  20750022.528    20750030.445
       247.000         213.000
  21483211.756   -19072844.16849 -14669798.99447  21483211.782    21483219.668
       238.000         198.000
  22340139.104   -15844212.71649 -12330257.04547  22340139.024    22340148.176
       231.000         188.000
  23880941.996    -8864459.66349  -6892256.58445  23880940.529    23880953.154
       214.000         156.000
  23443330.660    -8209641.96549  -6379591.98645  23443330.180    23443340.650
       218.000         159.000
  24251413.895    -5055387.44749  -3926849.45945  24251413.916    24251424.347
       201.000         143.000
  20187662.179   -25829800.61449 -19890781.82548  20187661.793    20187669.883
       244.000         215.000
 00  2  4  0  9 30.0000000  0  8G 6G 5G 4G 9G10G30G 7G24
  24812473.909    -4155309.29349  -3227493.83945  24812473.012    24812486.335
       202.000         140.000
  20740602.528   -24844498.19549 -19345649.48848  20740601.820    20740609.594
       247.000         213.000
  21497628.551   -18997083.39749 -14610764.63647  21497628.741    21497636.790
       238.000         198.000
  22354113.256   -15770778.45349 -12273035.57347  22354113.010    22354122.396
       232.000         188.000
  23861849.660    -8964789.96549  -6970435.90545  23861849.026    23861861.428
       214.000         155.000
  23424767.041    -8307193.85049  -6455606.29245  23424766.671    23424777.202
       218.000         161.000
  24264301.856    -4987660.70849  -3874075.43445  24264301.124    24264313.415
       206.000         143.000
  20187755.601   -25829309.58649 -19890399.17648  20187755.358    20187763.421
       244.000         215.000
 00  2  4  0 10  0.0000000  0  8G 6G 5G 4G 9G10G30G 7G24
  24798977.283    -4226233.22149  -3282759.00945  24798976.266    24798990.736
       201.000         139.000
  20731247.547   -24893658.75049 -19383956.36348  20731246.826    20731254.390
       247.000         213.000
  21512113.252   -18920965.90949 -14551452.31947  21512113.364    21512121.300
       238.000         198.000
  22368148.934   -15697020.56649 -12215561.92147  22368148.663    22368157.423
       231.000         188.000
  23842756.671    -9065123.56549  -7048617.79345  23842755.274    23842767.387
       214.000         155.000
  23406221.238    -8404652.20149  -6531547.70045  23406221.060    23406231.798
       218.000         162.000
  24277191.210    -4919926.20549  -3821295.34445  24277190.371    24277201.662
       205.000         142.000
  20187945.826   -25828309.95849 -19889620.21348  20187945.396    20187953.377
       244.000         215.000
 00  2  4  0 10 30.0000000  0  8G 6G 5G 4G 9G10G30G 7G24
  24785482.836    -4297146.21649  -3338015.67945  24785481.618    24785495.981
       203.000         139.000
  20721959.904   -24942465.38549 -19421987.45848  20721959.226    20721966.798
       247.000         214.000
  21526661.513   -18844514.37649 -14491879.70747  21526661.542    21526669.527
       238.000         197.000
  22382249.613   -15622921.06749 -12157822.08247  22382249.521    22382258.455
       231.000         188.000
  23823663.136    -9165460.13049  -7126802.00445  23823661.852    23823674.585
       215.000         156.000
  23387695.303    -8502005.84249  -6607407.52246  23387695.325    23387705.077
       220.000         163.000
  24290082.507    -4852181.25649  -3768507.11745  24290080.967    24290093.632
       206.000         141.000
  20188233.198   -25826799.41549 -19888443.13448  20188232.567    20188240.908
       244.000         215.000
 00  2  4  0 11  0.0000000  0  8G 6G 5G 4G 9G10G30G 7G24
  24771994.673    -4368026.33449  -3393246.75545  24771993.326    24772007.289
       200.000         138.000
  20712745.911   -24990885.12249 -19459717.07548  20712745.315    20712752.769
       247.000         214.000
  21541267.601   -18767759.06149 -14432070.38747  21541267.791    21541275.296
       238.000         197.000
  22396414.567   -15548483.79349 -12099819.03646  22396414.355    22396423.640
       232.000         187.000
  23804571.997    -9265784.31549  -7204976.56145  23804570.679    23804583.131
       216.000         156.000
  23369191.933    -8599241.03149  -6683175.04046  23369191.535    23369202.088
       219.000         164.000
  24302977.287    -4784418.85349  -3715705.29145  24302976.629    24302988.010
       201.000         141.000
  20188620.109   -25824765.95349 -19886858.58048  20188619.689    20188627.755
       244.000         215.000
 00  2  4  0 11 30.0000000  0  8G 6G 5G 4G 9G10G30G 7G24
  24758513.886    -4438867.21949  -3448447.27245  24758513.338    24758527.240
       202.000         138.000
  20703611.103   -25038888.47449 -19497122.24148  20703610.549    20703618.274
       247.000         214.000
  21555927.250   -18690722.03549 -14372041.55047  21555927.222    21555934.937
       238.000         197.000
  22410639.219   -15473732.84649 -12041571.58746  22410639.057    22410648.146
       231.000         187.000
  23785489.243    -9366064.24149  -7283116.63445  23785488.469    23785499.663
       216.000         155.000
  23350713.344    -8696346.15349  -6758841.20746  23350713.737    23350723.474
       221.000         165.000
  24315881.445    -4716607.25549  -3662865.13045  24315880.956    24315891.874
       201.000         140.000
  20189106.817   -25822208.03249 -19884865.36348  20189106.462    20189114.489
       244.000         215.000
 00  2  4  0 12  0.0000000  0  8G 6G 5G 4G 9G10G30G 7G24
  24745042.265    -4509660.07049  -3503610.38745  24745042.164    24745054.926
       203.000         139.000
  20694556.520   -25086470.43649 -19534199.04548  20694555.617    20694563.578
       247.000         214.000
  21570640.636   -18613402.87049 -14311792.86247  21570640.796    21570648.660
       238.000         197.000
  22424919.924   -15398687.41349 -11983094.66046  22424919.671    22424928.737
       231.000         187.000
  23766418.782    -9466279.66649  -7361206.43245  23766417.472    23766430.242
       216.000         155.000
  23332260.795    -8793314.38449  -6834400.70446  23332260.372    23332270.339
       221.000         166.000
  24328796.770    -4648737.16049  -3609979.37545  24328795.505    24328809.100
       206.000         139.000
  20189696.455   -25819109.49049 -19882450.87448  20189696.154    20189704.227
       244.000         215.000
 00  2  4  0 12 30.0000000  0  8G 6G 5G 4G 9G10G30G 7G24
  24731582.740    -4580389.57649  -3558724.16845  24731581.662    24731596.645
       205.000         139.000
  20685579.398   -25133645.32849 -19570958.64648  20685578.662    20685586.368
       247.000         214.000
  21585407.454   -18535802.64149 -14251325.15947  21585407.553    21585415.350
       237.000         196.000
  22439255.498   -15323353.63549 -11924393.05046  22439255.147    22439264.193
       231.000         186.000
  23747363.000    -9566417.80249  -7439236.00145  23747362.063    23747373.522
       216.000         155.000
  23313834.857    -8890142.53949  -6909851.04046  23313834.918    23313845.927
       221.000         166.000
  24341724.361    -4580802.44249  -3557043.27145  24341724.445    24341736.229
       203.000         139.000
  20190387.149   -25815479.67049 -19879622.39948  20190386.936    20190394.845
       244.000         215.000
 00  2  4  0 13  0.0000000  0  8G 6G 5G 4G 9G10G30G 7G24
  24718134.423    -4651060.67649  -3613792.42345  24718133.842    24718147.476
       206.000         140.000
  20676676.760   -25180428.84649 -19607413.28548  20676675.995    20676683.789
       247.000         214.000
  21600232.063   -18457898.78849 -14190620.87147  21600232.170    21600239.982
       238.000         196.000
  22453643.062   -15247746.62849 -11865478.53346  22453643.026    22453652.404
       230.000         186.000
  23728322.900    -9666473.62749  -7517201.42045  23728321.855    23728335.385
       216.000         155.000
  23295435.771    -8986829.96049  -6985191.71646  23295435.845    23295445.160
       221.000         166.000
  24354663.733    -4512805.54649  -3504058.71545  24354662.288    24354674.440
       204.000         139.000
  20191176.329   -25811332.54749 -19876390.83248  20191175.840    20191183.927
       244.000         215.000
 00  2  4  0 13 30.0000000  0  8G 6G 5G 4G 9G10G30G 7G24
  24704693.041    -4721695.13649  -3668832.13545  24704692.138    24704707.024
       206.000         139.000
  20667843.626   -25226847.11349 -19643583.31048  20667842.820    20667850.495
       247.000         214.000
  21615115.941   -18379683.47549 -14129673.88047  21615116.236    21615123.975
       237.000         196.000
  22468081.286   -15171873.36549 -11806356.54546  22468081.061    22468090.615
       231.000         186.000
  23709295.179    -9766464.62149  -7595116.32345  23709294.027    23709305.824
       216.000         154.000
  23277058.971    -9083400.14949  -7060441.01646  23277058.598    23277068.892
       221.000         166.000
  24367612.802    -4444758.08849  -3451034.76745  24367611.344    24367624.811
       206.000         139.000
  20192060.938   -25806683.65549 -19872768.27448  20192060.647    20192068.645
       244.000         215.000
 00  2  4  0 14  0.0000000  0  8G 6G 5G 4G 9G10G30G 7G24
  24691260.274    -4792284.12949  -3723836.42045  24691259.607    24691273.929
       207.000         140.000
  20659079.438   -25272902.86649 -19679470.85948  20659078.777    20659086.510
       247.000         214.000
  21630060.163   -18301151.08949 -14068479.82847  21630060.201    21630068.388
       237.000         196.000
  22482572.980   -15095718.94849 -11747015.48646  22482572.999    22482582.096
       231.000         186.000
  23690277.459    -9866402.59349  -7672989.90845  23690275.643    23690288.962
       215.000         153.000
  23258701.795    -9179866.92449  -7135609.73946  23258701.496    23258711.413
       221.000         165.000
  24380566.812    -4376684.77949  -3397990.65645  24380565.736    24380576.944
       205.000         138.000
  20193041.130   -25801532.62949 -19868754.45148  20193040.849    20193048.714
       244.000         215.000
 00  2  4  0 14 30.0000000  0  8G 6G 5G 4G 9G10G30G 7G24
  24677833.862    -4862840.02149  -3778814.90845  24677833.401    24677847.004
       209.000         141.000
  20650385.249   -25318590.87949 -19715071.85148  20650384.586    20650392.419
       247.000         214.000
  21645063.846   -18222306.05049 -14007042.14647  21645064.184    21645071.855
       237.000         195.000
  22497119.922   -15019274.50049 -11687448.41646  22497119.888    22497128.993
       230.000         186.000
  23671269.893    -9966287.26649  -7750821.93245  23671267.722    23671280.363
       214.000         153.000
  23240362.456    -9276240.19549  -7210705.60646  23240362.292    23240371.941
       220.000         165.000
  24393526.066    -4308584.05549  -3344925.18045  24393524.864    24393537.357
       210.000         138.000
  20194114.234   -25795893.24849 -19864360.09148  20194113.926    20194121.922
       244.000         215.000
 00  2  4  0 15  0.0000000  0  8G 6G 5G 4G 9G10G30G 7G24
  24664410.793    -4933378.10849  -3833779.51845  24664410.164    24664423.771
       209.000         142.000
  20641764.663   -25363892.16749 -19750371.50448  20641764.024    20641771.635
       247.000         214.000
  21660125.014   -18143159.03049 -13945369.15547  21660124.918    21660132.924
       237.000         195.000
  22511723.539   -14942532.20049 -11627649.26446  22511723.258    22511732.410
       230.000         185.000
  23652270.164   -10066130.84549  -7828621.94745  23652268.345    23652281.238
       215.000         153.000
  23222040.714    -9372520.85949  -7285729.29746  23222040.896    23222050.630
       220.000         164.000
  24406488.628    -4240465.59449  -3291845.88245  24406488.310    24406498.851
       209.000         139.000
  20195279.319   -25789770.53249 -19859589.11048  20195279.039    20195286.711
       244.000         215.000
 00  2  4  0 15 30.0000000  0  8G 6G 5G 4G 9G10G30G 7G24
  24650994.874    -5003879.03849  -3888715.19745  24650994.272    24651007.221
       212.000         143.000
  20633223.001   -25408778.69449 -19785347.96448  20633222.337    20633230.122
       247.000         214.000
  21675239.452   -18063732.09349 -13883478.04347  21675239.494    21675247.125
       237.000         195.000
  22526387.664   -14865471.70349 -11567602.16346  22526387.367    22526396.670
       230.000         185.000
  23633279.206   -10165928.53649  -7906386.20345  23633277.213    23633289.977
       214.000         153.000
  23203739.948    -9468691.36349  -7360667.15746  23203740.245    23203749.831
       220.000         164.000
  24419454.732    -4172328.57249  -3238752.11845  24419453.644    24419466.362
       209.000         138.000
  20196540.406   -25783143.22949 -19854424.94448  20196539.966    20196547.786
       244.000         215.000
 00  2  4  0 16  0.0000000  0  8G 6G 5G 4G 9G10G30G 7G24
  24637587.701    -5074333.98549  -3943615.01845  24637587.283    24637599.495
       212.000         143.000
  20624761.085   -25453246.13849 -19819997.86348  20624760.186    20624767.979
       247.000         215.000
  21690407.027   -17984025.93549 -13821369.36247  21690407.074    21690415.106
       236.000         194.000
  22541113.035   -14788089.53349 -11507304.40946  22541112.423    22541121.905
       229.000         184.000
  23614298.879   -10265670.10549  -7984106.73645  23614296.842    23614309.025
       214.000         153.000
  23185464.854    -9564726.56549  -7435499.58546  23185464.747    23185473.894
       221.000         165.000
  24432424.250    -4104173.50349  -3185644.29345  24432424.225    24432435.348
       212.000         140.000
  20197897.306   -25776012.40749 -19848868.42748  20197897.007    20197904.865
       244.000         215.000
 00  2  4  0 16 30.0000000  0  8G 6G 5G 4G 9G10G30G 7G24
  24624187.647    -5144751.20549  -3998485.46845  24624186.950    24624200.401
       212.000         143.000
  20616377.478   -25497301.95749 -19854327.02148  20616376.849    20616384.606
       247.000         215.000
  21705628.098   -17904038.86249 -13759041.78847  21705628.286    21705636.114
       236.000         194.000
  22555897.814   -14710395.03949 -11446763.28146  22555897.407    22555906.599
       229.000         184.000
  23595327.873   -10365362.31949  -8061788.79845  23595325.976    23595338.509
       214.000         153.000
  23167218.692    -9660609.92649  -7510213.71846  23167218.239    23167228.726
       221.000         165.000
  24445400.514    -4035982.77049  -3132508.67645  24445400.381    24445410.319
       210.000         140.000
  20199348.507   -25768386.32649 -19842925.99848  20199348.182    20199356.132
       244.000         215.000
 00  2  4  0 17  0.0000000  0  8G 6G 5G 4G 9G10G30G 7G24
  24610797.810    -5215114.81149  -4053314.13845  24610797.140    24610810.813
       213.000         144.000
  20608072.783   -25540943.24849 -19888333.17048  20608072.059    20608079.679
       248.000         215.000
  21720902.901   -17823769.31249 -13696494.10347  21720902.742    21720910.858
       236.000         194.000
  22570739.143   -14632403.39749 -11385990.61046  22570738.813    22570747.892
       230.000         184.000
  23576365.168   -10465011.26249  -8139437.16545  23576363.713    23576375.980
       214.000         154.000
  23149003.262    -9756331.87049  -7584802.06146  23149002.699    23149012.263
       221.000         165.000
  24458381.901    -3967765.14549  -3079352.10045  24458381.065    24458392.821
       211.000         141.000
  20200894.031   -25760264.32349 -19836597.14148  20200893.612    20200901.542
       245.000         215.000
 00  2  4  0 17 30.0000000  0  8G 6G 5G 4G 9G10G30G 7G24
  24597418.477    -5285423.47549  -4108099.99645  24597417.792    24597431.444
       213.000         145.000
  20599845.375   -25584178.36649 -19922022.82648  20599844.764    20599852.422
       248.000         215.000
  21736232.390   -17743212.42849 -13633722.52347  21736232.689    21736240.638
       236.000         194.000
  22585633.102   -14554135.34749 -11325002.56046  22585633.042    22585642.218
       229.000         183.000
  23557412.082   -10564609.83049  -8217046.28445  23557410.924    23557422.479
       215.000         154.000
  23130817.797    -9851896.60149  -7659267.89646  23130818.308    23130826.714
       221.000         165.000
  24471368.884    -3899518.50949  -3026172.92345  24471367.715    24471379.502
       210.000         140.000
  20202533.201   -25751650.14849 -19829884.76948  20202532.878    20202540.751
       244.000         215.000
 00  2  4  0 18  0.0000000  0  8G 6G 5G 4G 9G10G30G 7G24
  24584046.780    -5355691.71149  -4162854.34845  24584046.419    24584059.670
       213.000         145.000
  20591693.119   -25627018.58249 -19955404.76348  20591692.388    20591699.998
       248.000         215.000
  21751619.531   -17662352.36749 -13570714.70447  21751619.537    21751627.524
       236.000         193.000
  22600577.678   -14475601.26149 -11263807.20446  22600577.576    22600586.788
       229.000         183.000
  23538470.452   -10664148.30049  -8294608.56645  23538469.407    23538480.807
       216.000         155.000
  23112657.918    -9947326.64749  -7733628.80346  23112657.390    23112667.573
       221.000         165.000
  24484365.838    -3831219.36549  -2972952.82045  24484365.187    24484377.565
       209.000         138.000
  20204263.464   -25742557.43549 -19822799.51148  20204263.280    20204271.132
       244.000         215.000
 00  2  4  0 18 30.0000000  0  8G 6G 5G 4G 9G10G30G 7G24
  24570680.646    -5425930.60449  -4217585.84845  24570680.352    24570692.876
       213.000         145.000
  20583618.186   -25669452.50849 -19988470.11548  20583617.568    20583624.939
       248.000         215.000
  21767059.642   -17581214.32149 -13507490.27247  21767060.018    21767067.760
       236.000         193.000
  22615572.447   -14396803.25549 -11202406.20746  22615571.995    22615582.249
       229.000         183.000
  23519540.637   -10763624.30949  -8372122.18945  23519539.761    23519551.656
       214.000         156.000
  23094520.082   -10042640.88549  -7807899.45646  23094519.467    23094529.241
       222.000         165.000
  24497372.785    -3762867.47249  -2919691.61545  24497373.151    24497383.135
       207.000         137.000
  20206083.747   -25732991.78649 -19815345.73848  20206083.440    20206091.250
       244.000         215.000
 00  2  4  0 19  0.0000000  0  8G 6G 5G 4G 9G10G30G 7G24
  24557320.548    -5496138.05949  -4272292.82345  24557320.551    24557333.112
       214.000         145.000
  20575621.853   -25711473.35949 -20021213.58948  20575621.084    20575628.700
       248.000         215.000
  21782550.220   -17499810.94949 -13444059.09947  21782550.324    21782558.494
       236.000         193.000
  22630616.660   -14317745.55849 -11140802.85546  22630616.120    22630625.504
       228.000         182.000
  23500626.689   -10863017.04149  -8449570.92545  23500625.376    23500637.104
       215.000         157.000
  23076402.465   -10137848.70949  -7882087.21246  23076402.619    23076412.034
       222.000         165.000
  24510387.646    -3694473.79549  -2866397.83445  24510387.862    24510398.751
       203.000         137.000
  20207995.929   -25722943.05349 -19807515.52948  20207995.456    20208003.554
       244.000         215.000
 00  2  4  0 19 30.0000000  0  8G 6G 5G 4G 9G10G30G 7G24
  24543965.673    -5566317.51149  -4326977.96745  24543964.797    24543978.599
       213.000         144.000
  20567701.802   -25753093.31749 -20053644.67448  20567701.137    20567708.605
       248.000         215.000
  21798091.454   -17418141.40049 -13380420.50547  21798091.745    21798099.573
       236.000         193.000
  22645713.020   -14238413.94549 -11078986.05646  22645712.619    22645722.136
       228.000         182.000
  23481732.379   -10962306.82149  -8526939.44945  23481731.136    23481742.813
       216.000         158.000
  23058306.889   -10232940.94049  -7956184.90546  23058307.296    23058316.040
       222.000         166.000
  24523413.572    -3626022.20349  -2813058.94745  24523412.285    24523424.277
       212.000         136.000
  20210001.125   -25712405.76649 -19799304.62348  20210000.768    20210008.809
       244.000         215.000
 00  2  4  0 20  0.0000000  0  8G 6G 5G 4G 9G10G30G 7G24
  24530614.693    -5636476.45749  -4381647.09645  24530613.899    24530626.310
       213.000         143.000
  20559855.999   -25794323.11849 -20085771.74648  20559855.298    20559863.000
       248.000         216.000
  21813683.346   -17336205.52849 -13316574.39547  21813683.501    21813691.522
       235.000         192.000
  22660860.967   -14158811.15049 -11016957.95146  22660860.503    22660870.070
       228.000         182.000
  23462859.319   -11061485.15549  -8604221.13245  23462858.331    23462869.975
       219.000         160.000
  23040235.284   -10327907.34949  -8030184.55246  23040235.057    23040245.316
       222.000         166.000
  24536446.743    -3557532.31649  -2759690.22645  24536446.152    24536457.299
       207.000         136.000
  20212100.526   -25701373.16449 -19790707.76348  20212100.124    20212108.175
       244.000         215.000
 00  2  4  0 20 30.0000000  0  8G 6G 5G 4G 9G10G30G 7G24
  24517268.350    -5706610.96849  -4436297.15945  24517267.079    24517281.413
       212.000         142.000
  20552084.458   -25835162.64349 -20117594.70648  20552083.599    20552091.359
       248.000         216.000
  21829325.841   -17254003.84949 -13252521.15947  21829325.622    21829333.936
       235.000         192.000
  22676058.572   -14078947.13749 -10954726.30046  22676058.421    22676068.127
       228.000         181.000
  23444006.579   -11160556.39749  -8681419.35745  23444005.523    23444016.354
       217.000         160.000
  23022192.905   -10422719.94349  -8104064.35646  23022193.907    23022202.551
       222.000         166.000
  24549480.861    -3489037.23949  -2706317.45145  24549480.348    24549490.748
       209.000         136.000
  20214296.826   -25689831.45749 -19781714.19148  20214296.194    20214304.206
       244.000         215.000
 00  2  4  0 21  0.0000000  0  8G 6G 5G 4G 9G10G30G 7G24
  24503928.227    -5776713.36749  -4490922.18145  24503927.574    24503939.923
       210.000         142.000
  20544385.990   -25875618.12149 -20149118.41348  20544385.438    20544392.970
       248.000         216.000
  21845023.697   -17171510.91049 -13188240.96947  21845024.314    21845031.875
       235.000         192.000
  22691303.479   -13998834.94649 -10892301.26346  22691303.438    22691312.703
       228.000         181.000
  23425173.677   -11259523.32249  -8758536.30545  23425172.860    23425184.240
       216.000         161.000
  23004182.857   -10517362.79649  -8177811.88946  23004182.826    23004192.387
       221.000         166.000
  24562515.401    -3420540.64749  -2652943.49645  24562514.605    24562526.574
       206.000         135.000
  20216590.893   -25677775.86449 -19772320.19348  20216590.566    20216598.520
       244.000         215.000
 00  2  4  0 21 30.0000000  0  7G 6G 5G 4G 9G10G30G24
  24490596.181    -5846772.68749  -4545513.62345  24490595.444    24490608.699
       209.000         141.000
  20536763.721   -25915673.30249 -20180330.19348  20536763.095    20536770.752
       248.000         216.000
  21860781.227   -17088704.52849 -13123716.53047  21860781.316    21860789.041
       235.000         191.000
  22706598.508   -13918459.03949 -10829670.73946  22706598.939    22706607.697
       228.000         181.000
  23406362.392   -11358376.59749  -8835564.68345  23406361.303    23406372.610
       216.000         162.000
  22986212.380   -10611797.55449  -8251397.25446  22986211.557    22986221.724
       220.000         166.000
  20218983.726   -25665201.31249 -19762521.80948  20218983.299    20218991.302
       244.000         215.000
 00  2  4  0 22  0.0000000  0  7G 6G 5G 4G 9G10G30G24
  24477275.074    -5916774.79449  -4600060.44845  24477274.106    24477287.394
       211.000         142.000
  20529225.905   -25955284.51349 -20211196.02348  20529225.143    20529232.583
       248.000         216.000
  21876599.190   -17005580.72749 -13058944.75147  21876599.595    21876607.194
       235.000         191.000
  22721944.341   -13837816.39049 -10766832.35346  22721944.295    22721953.539
       228.000         180.000
  23387573.232   -11457113.75149  -8912502.57745  23387572.620    23387583.518
       217.000         162.000
  22968283.806   -10706011.74549  -8324810.75146  22968283.039    22968293.441
       220.000         166.000
  20221478.712   -25652090.01449 -19752305.17848  20221478.382    20221486.240
       244.000         215.000
 00  2  4  0 22 30.0000000  0  7G 6G 5G 4G 9G10G30G24
  24463950.948    -5986792.84349  -4654619.69845  24463950.370    24463962.728
       210.000         143.000
  20521762.946   -25994502.46549 -20241755.41248  20521762.230    20521769.726
       248.000         216.000
  21892459.526   -16922234.18749 -12993999.40647  21892459.755    21892467.751
       235.000         191.000
  22737326.869   -13756980.79249 -10703843.61346  22737326.646    22737336.334
       227.000         180.000
  23368790.606   -11555816.47449  -8989413.62746  23368789.424    23368800.422
       220.000         163.000
  22950383.809   -10800076.16049  -8398107.54546  22950383.600    22950393.336
       221.000         167.000
  20224057.876   -25638536.17749 -19741743.71048  20224057.526    20224065.435
       244.000         216.000
 00  2  4  0 23  0.0000000  0  7G 6G 5G 4G 9G10G30G24
  24450626.674    -6056811.13949  -4709179.14845  24450626.094    24450638.850
       210.000         143.000
  20514380.301   -26033298.18949 -20271985.79948  20514379.541    20514387.179
       249.000         216.000
  21908363.914   -16838656.21849 -12928873.73847  21908363.685    21908372.295
       235.000         191.000
  22752750.064   -13675931.50449 -10640688.37946  22752750.039    22752759.145
       227.000         180.000
  23350021.161   -11654449.75649  -9066270.56246  23350019.958    23350031.553
       219.000         164.000
  22932516.857   -10893966.97149  -8471269.07246  22932516.299    22932526.642
       222.000         167.000
  20226722.243   -25624534.67249 -19730833.41848  20226722.022    20226729.808
       244.000         215.000
 00  2  4  0 23 30.0000000  0  7G 6G 5G 4G 9G10G30G24
  24437304.610    -6126818.26949  -4763729.90145  24437302.837    24437316.625
       209.000         144.000
  20507083.295   -26071644.17549 -20301865.73648  20507082.472    20507090.044
       249.000         216.000
  21924311.184   -16754852.63549 -12863572.25347  21924311.115    21924319.174
       235.000         190.000
  22768218.190   -13594646.24649 -10577349.26346  22768217.981    22768227.522
       227.000         179.000
  23331270.004   -11752987.42749  -9143053.00346  23331268.959    23331280.051
       220.000         165.000
  22914685.598   -10987670.37549  -8544284.55846  22914685.363    22914695.144
       222.000         167.000
  20229472.368   -25610082.72649 -19719572.12548  20229472.108    20229479.791
       245.000         216.000
 00  2  4  0 24  0.0000000  0  7G 6G 5G 4G 9G10G30G24
  24423988.390    -6196794.81249  -4818256.83245  24423987.855    24424000.252
       212.000         145.000
  20499875.902   -26109519.10249 -20331378.61948  20499875.222    20499882.611
       249.000         216.000
  21940304.318   -16670808.20749 -12798083.10847  21940303.694    21940312.420
       235.000         190.000
  22783733.811   -13513111.48149 -10513815.73746  22783734.219    22783743.503
       227.000         179.000
  23312544.692   -11851388.99749  -9219729.39246  23312543.592    23312555.632
       220.000         166.000
  22896890.844   -11081181.84149  -8617150.48346  22896890.373    22896900.093
       223.000         168.000
  20232310.804   -25595166.49249 -19707949.06448  20232310.573    20232318.354
       245.000         216.000
 00  2  4  0 24 30.0000000  0  7G 6G 5G 4G 9G10G30G24
  24410676.572    -6266747.96549  -4872765.56145  24410676.111    24410688.495
       207.000         145.000
  20492750.495   -26146963.18749 -20360555.77948  20492749.904    20492757.338
       248.000         217.000
  21956342.454   -16586527.19649 -12732409.61047  21956342.530    21956350.651
       235.000         189.000
  22799294.068   -13431341.96749 -10450099.28846  22799294.287    22799303.023
       226.000         179.000
  23293847.059   -11949645.08249  -9296292.40646  23293845.326    23293857.250
       220.000         167.000
  22879128.331   -11174524.07549  -8689884.52746  22879128.359    22879137.645
       223.000         169.000
  20235233.782   -25579806.10949 -19695979.90748  20235233.459    20235241.335
       244.000         216.000
 00  2  4  0 25  0.0000000  0  7G 6G 5G 4G 9G10G30G24
  24397366.714    -6336690.89849  -4927266.34445  24397366.195    24397379.020
       209.000         145.000
  20485698.987   -26184018.85049 -20389430.27648  20485698.186    20485705.730
       249.000         217.000
  21972423.257   -16502022.07649 -12666561.48447  21972423.368    21972431.174
       234.000         189.000
  22814893.391   -13349366.86049 -10386222.63646  22814893.118    22814902.893
       227.000         179.000
  23275171.652   -12047784.52449  -9372764.52746  23275170.505    23275181.494
       219.000         166.000
  22861387.812   -11267750.58249  -8762528.40746  22861387.421    22861396.339
       223.000         169.000
  20238239.103   -25564012.86449 -19683673.45648  20238238.639    20238246.697
       244.000         216.000
 00  2  4  0 25 30.0000000  0  7G 6G 5G 4G 9G10G30G24
  24384063.113    -6406601.29049  -4981741.78345  24384062.905    24384075.066
       211.000         147.000
  20478722.702   -26220679.40949 -20417996.89948  20478722.016    20478729.494
       249.000         217.000
  21988550.038   -16417275.31749 -12600525.06847  21988549.774    21988558.135
       235.000         189.000
  22830533.006   -13267180.35449 -10322181.25646  22830532.361    22830542.725
       226.000         179.000
  23256520.034   -12145798.83949  -9449139.14346  23256519.277    23256529.998
       220.000         166.000
  22843668.793   -11360864.13249  -8835084.26646  22843668.637    22843677.182
       224.000         170.000
  20241331.967   -25547759.52749 -19671008.49048  20241331.508    20241339.255
       245.000         216.000
 00  2  4  0 26  0.0000000  0  7G 6G 5G 4G 9G10G30G24
  24370766.362    -6476475.37449  -5036188.93945  24370765.310    24370777.013
       210.000         148.000
  20471820.521   -26256950.42049 -20446259.97848  20471819.834    20471827.202
       248.000         217.000
  22004725.214   -16332274.26149 -12534290.49847  22004725.526    22004733.442
       234.000         189.000
  22846212.139   -13184786.06749 -10257977.96046  22846212.916    22846221.559
       226.000         178.000
  23237892.878   -12243684.51449  -9525413.52246  23237891.702    23237902.783
       220.000         166.000
  22825971.487   -11453863.60949  -8907551.23946  22825970.989    22825980.335
       225.000         171.000
  20244516.003   -25531027.30749 -19657970.37248  20244515.873    20244523.657
       244.000         216.000
 00  2  4  0 26 30.0000000  0  7G 6G 5G 4G 9G10G30G24
  24357477.698    -6546306.73449  -5090602.81845  24357477.099    24357489.212
       208.000         148.000
  20464995.533   -26292815.74349 -20474206.94348  20464994.819    20465002.077
       248.000         217.000
  22020947.743   -16247024.48149 -12467862.12847  22020948.015    22020956.377
       234.000         188.000
  22861930.517   -13102185.60549 -10193614.02046  22861930.735    22861939.466
       227.000         178.000
  23219285.499   -12341466.43649  -9601607.05646  23219283.614    23219295.884
       219.000         166.000
  22808298.054   -11546737.52149  -8979920.38046  22808297.114    22808307.120
       225.000         172.000
  20247792.089   -25513811.26949 -19644555.25348  20247791.825    20247799.657
       244.000         216.000
 00  2  4  0 27  0.0000000  0  7G 6G 5G 4G 9G10G30G24
  24344196.283    -6616100.55149  -5144987.43845  24344195.124    24344206.955
       209.000         148.000
  20458254.945   -26328237.45149 -20501808.23048  20458254.195    20458261.609
       249.000         217.000
  22037216.811   -16161529.98049 -12401243.06047  22037217.032    22037224.845
       234.000         188.000
  22877689.164   -13019373.50849 -10129085.16446  22877688.666    22877698.433
       226.000         178.000
  23200698.761   -12439139.65149  -9677715.88346  23200697.531    23200708.456
       218.000         166.000
  22790655.632   -11639448.79949  -9052162.78946  22790654.718    22790664.414
       225.000         173.000
  20251160.905   -25496107.88049 -19630760.37948  20251160.503    20251168.094
       244.000         216.000
 00  2  4  0 27 30.0000000  0  7G 6G 5G 4G 9G10G30G24
  24330922.744    -6685852.50649  -5199339.43345  24330923.162    24330934.351
       206.000         149.000
  20451602.238   -26363197.55149 -20529049.82848  20451601.471    20451608.835
       248.000         217.000
  22053530.385   -16075801.75749 -12334441.87746  22053531.018    22053538.922
       234.000         187.000
  22893488.216   -12936348.97949 -10064390.77746  22893488.418    22893497.543
       226.000         178.000
  23182137.256   -12536680.19649  -9753721.32946  23182135.941    23182146.563
       219.000         166.000
  22773051.000   -11731960.90649  -9124250.00246  22773050.485    22773059.770
       225.000         173.000
  20254622.183   -25477918.49449 -19616586.80748  20254621.697    20254629.610
       245.000         216.000
 00  2  4  0 28  0.0000000  0  7G 6G 5G 4G 9G10G30G24
  24317658.260    -6755556.80349  -5253654.27845  24317657.526    24317670.319
       206.000         149.000
  20445041.302   -26397675.26449 -20555915.54248  20445040.663    20445047.977
       248.000         217.000
  22069886.584   -15989849.49949 -12267466.12246  22069886.705    22069895.097
       233.000         187.000
  22909331.638   -12853091.49049  -9999514.86246  22909331.190    22909341.577
       225.000         178.000
  23163602.772   -12634079.04749  -9829616.38346  23163601.542    23163612.451
       219.000         166.000
  22755487.753   -11824255.85849  -9196168.02346  22755487.534    22755496.620
       225.000         173.000
  20258174.163   -25459252.67149 -19602041.98848  20258173.728    20258181.632
       244.000         216.000
 00  2  4  0 28 30.0000000  0  7G 6G 5G 4G 9G10G30G24
  24304403.298    -6825211.39249  -5307930.37245  24304401.933    24304414.325
       208.000         149.000
  20438573.409   -26431663.97449 -20582400.21148  20438572.820    20438580.135
       249.000         217.000
  22086284.509   -15903678.04049 -12200319.56546  22086284.573    22086292.874
       234.000         187.000
  22925220.796   -12769593.74049  -9934451.74246  22925220.730    22925229.982
       226.000         177.000
  23145096.675   -12731328.50549  -9905394.99946  23145095.983    23145106.054
       219.000         166.000
  22737967.943   -11916322.48249  -9267908.11346  22737967.513    22737977.127
       225.000         174.000
  20261816.877   -25440109.93749 -19587125.54848  20261816.506    20261824.263
       244.000         216.000
 00  2  4  0 29  0.0000000  0  7G 6G 5G 4G 9G10G30G24
  24291157.209    -6894819.32449  -5362170.11145  24291156.712    24291169.075
       210.000         149.000
  20432195.466   -26465180.28249 -20608516.77948  20432194.586    20432202.232
       248.000         217.000
  22102723.005   -15817293.19049 -12133006.72346  22102723.273    22102731.345
       233.000         186.000
  22941156.703   -12685849.79749  -9869196.77146  22941156.738    22941165.946
       225.000         177.000
  23126621.932   -12828412.96849  -9981045.05846  23126620.494    23126631.539
       218.000         166.000
  22720489.000   -12008174.26849  -9339480.80946  22720488.653    22720498.148
       225.000         174.000
  20265551.376   -25420484.82949 -19571833.22748  20265550.991    20265558.805
       245.000         216.000
 00  2  4  0 29 30.0000000  0  7G 6G 5G 4G 9G10G30G24
  24277923.175    -6964363.27949  -5416359.98745  24277922.284    24277934.800
       211.000         150.000
  20425904.658   -26498238.58849 -20634276.46548  20425903.891    20425911.287
       249.000         217.000
  22119203.236   -15730689.00549 -12065522.97446  22119203.434    22119211.183
       233.000         186.000
  22957141.121   -12601851.58249  -9803743.67246  22957141.102    22957150.879
       226.000         177.000
  23108177.451   -12925338.82449 -10056571.52846  23108176.153    23108186.134
       219.000         165.000
  22703048.151   -12099825.81649  -9410897.46446  22703047.567    22703057.241
       226.000         175.000
  20269379.158   -25400369.55849 -19556158.96848  20269378.861    20269386.513
       245.000         216.000
 00  2  4  0 30  0.0000000  0  7G 6G 5G 4G 9G10G30G24
  24264698.206    -7033860.12549  -5470513.14745  24264697.569    24264709.830
       210.000         151.000
  20419699.647   -26530845.83349 -20659684.67248  20419698.967    20419706.181
       248.000         217.000
  22135726.910   -15643856.35149 -11997861.19446  22135727.005    22135734.774
       232.000         185.000
  22973173.495   -12517601.19649  -9738094.07446  22973172.983    22973183.017
       225.000         177.000
  23089762.002   -13022111.92149 -10131978.95746  23089760.112    23089772.106
       219.000         165.000
  22685643.785   -12191285.85749  -9482164.89646  22685644.105    22685653.650
       225.000         175.000
  20273299.389   -25379768.46749 -19540106.14648  20273299.217    20273306.870
       244.000         216.000
 00  2  4  0 30 30.0000000  0  7G 6G 5G 4G 9G10G30G24
  24251481.902    -7103311.56249  -5524630.89845  24251481.309    24251492.715
       211.000         152.000
  20413580.577   -26563001.69749 -20684741.15648  20413579.783    20413587.377
       250.000         218.000
  22152296.388   -15556783.32749 -11930012.11246  22152296.264    22152304.414
       233.000         185.000
  22989251.021   -12433113.24949  -9672259.37846  22989251.063    22989260.345
       225.000         177.000
  23071375.554   -13118732.51949 -10207267.56746  23071373.600    23071384.765
       219.000         164.000
  22668276.669   -12282550.06849  -9553279.73846  22668276.858    22668284.940
       226.000         175.000
  20277312.185   -25358681.06049 -19523674.37448  20277311.729    20277319.546
       246.000         216.000
 00  2  4  0 31  0.0000000  0  7G 6G 5G 4G 9G10G30G24
  24238272.858    -7172724.87949  -5578718.95745  24238272.363    24238284.021
       212.000         152.000
  20407547.258   -26594706.81549 -20709446.40548  20407546.639    20407553.932
       248.000         218.000
  22168908.943   -15469483.96949 -11861986.65946  22168908.904    22168917.281
       231.000         185.000
  23005368.089   -12348417.74749  -9606262.94046  23005368.265    23005377.329
       224.000         177.000
  23053016.153   -13215211.07049 -10282445.46546  23053014.730    23053025.453
       219.000         164.000
  22650945.977   -12373623.18549  -9624245.67046  22650946.366    22650955.142
       226.000         175.000
  20281413.781   -25337126.89749 -19506878.89648  20281413.430    20281421.330
       245.000         216.000
 00  2  4  0 31 30.0000000  0  7G 6G 5G 4G 9G10G30G24
  24225070.531    -7242102.81849  -5632779.43445  24225069.803    24225081.707
       212.000         153.000
  20401601.592   -26625951.30149 -20733792.72548  20401600.886    20401608.347
       249.000         218.000
  22185566.243   -15381949.06649 -11793777.66646  22185566.242    22185574.381
       232.000         184.000
  23021521.355   -12263532.06249  -9540118.31146  23021521.352    23021530.186
       224.000         176.000
  23034685.844   -13311536.73449 -10357504.24246  23034684.580    23034695.368
       219.000         165.000
  22633656.896   -12464477.28149  -9695040.93646  22633657.005    22633665.287
       226.000         176.000
  20285602.847   -25315113.13949 -19489725.29448  20285602.669    20285610.415
       244.000         216.000
 00  2  4  0 32  0.0000000  0  7G 6G 5G 4G 9G10G30G24
  24211869.574    -7311473.44949  -5686834.21445  24211868.922    24211880.550
       213.000         153.000
  20395743.345   -26656736.42449 -20757781.09448  20395742.911    20395750.186
       249.000         218.000
  22202265.239   -15294195.56549 -11725398.33846  22202265.222    22202273.611
       231.000         184.000
  23037705.013   -12178486.56749  -9473849.14946  23037704.839    23037714.894
       224.000         176.000
  23016385.779   -13407703.63349 -10432439.30946  23016384.289    23016395.609
       220.000         166.000
  22616409.975   -12555109.96449  -9765663.65946  22616410.035    22616418.699
       227.000         176.000
  20289875.657   -25292659.16049 -19472228.65948  20289875.312    20289883.077
       245.000         216.000
 00  2  4  0 32 30.0000000  0  7G 6G 5G 4G 9G10G30G24
  24198671.364    -7380829.95949  -5740877.98045  24198670.889    24198681.888
       212.000         153.000
  20389973.310   -26687058.00949 -20781408.26748  20389972.626    20389980.015
       248.000         218.000
  22219004.282   -15206231.38149 -11656854.83546  22219004.433    22219012.411
       231.000         184.000
  23053917.677   -12093288.57249  -9407461.15946  23053917.165    23053927.809
       224.000         176.000
  22998118.330   -13503698.77649 -10507240.53246  22998117.005    22998127.737
       219.000         166.000
  22599207.379   -12645509.83749  -9836104.97646  22599207.134    22599216.036
       227.000         177.000
  20294232.455   -25269764.02949 -19454388.27148  20294232.135    20294239.982
       244.000         216.000
 00  2  4  0 33  0.0000000  0  7G 6G 5G 4G 9G10G30G24
  24185474.897    -7450176.72649  -5794914.15545  24185474.175    24185485.770
       213.000         154.000
  20384289.564   -26716926.16249 -20804682.11748  20384288.860    20384296.290
       248.000         218.000
  22235782.294   -15118062.35749 -11588151.72446  22235782.678    22235790.623
       230.000         183.000
  23070158.462   -12007943.08849  -9340958.24446  23070158.182    23070168.182
       224.000         175.000
  22979884.281   -13599518.54049 -10581905.10046  22979882.998    22979892.757
       220.000         167.000
  22582048.014   -12735682.31549  -9906369.09446  22582047.674    22582057.042
       227.000         177.000
  20298672.653   -25246430.52549 -19436206.29748  20298672.332    20298680.195
       244.000         216.000
 00  2  4  0 33 30.0000000  0  7G 6G 5G 4G 9G10G30G24
  24172280.148    -7519514.82249  -5848943.57245  24172279.139    24172290.707
       212.000         154.000
  20378689.155   -26746356.39349 -20827614.72748  20378688.408    20378695.811
       248.000         218.000
  22252599.820   -15029685.80549 -11519286.90646  22252599.626    22252608.463
       230.000         183.000
  23086429.862   -11922436.56049  -9274329.84146  23086429.807    23086439.127
       225.000         175.000
  22961684.901   -13695156.34849 -10656427.88146  22961683.497    22961694.244
       221.000         168.000
  22564931.002   -12825632.27049  -9976459.82746  22564930.963    22564939.531
       228.000         177.000
  20303192.669   -25222677.52149 -19417697.44148  20303192.183    20303199.975
       245.000         216.000
 00  2  4  0 34  0.0000000  0  7G 6G 5G 4G 9G10G30G24
  24159086.483    -7588846.92449  -5902968.33445  24159085.783    24159096.734
       212.000         155.000
  20373169.341   -26775362.97349 -20850217.21948  20373168.719    20373175.944
       248.000         218.000
  22269452.162   -14941126.28249 -11450279.50646  22269452.399    22269460.253
       230.000         183.000
  23102731.913   -11836769.00049  -9207575.94946  23102731.892    23102742.010
       224.000         176.000
  22943518.510   -13790620.86749 -10730815.62446  22943516.464    22943527.470
       222.000         168.000
  22547852.307   -12915380.82749 -10046393.62346  22547851.907    22547861.386
       228.000         177.000
  20307790.989   -25198513.07449 -19398867.98148  20307790.669    20307798.445
       245.000         216.000
 00  2  4  0 34 30.0000000  0  7G 6G 5G 4G 9G10G30G24
  24145894.971    -7658168.00349  -5956984.51545  24145894.585    24145905.751
       213.000         154.000
  20367729.606   -26803948.82049 -20872491.86848  20367728.895    20367736.132
       248.000         218.000
  22286337.737   -14852392.02549 -11381135.96046  22286337.580    22286345.591
       230.000         182.000
  23119065.761   -11750934.31249  -9140691.83446  23119065.424    23119075.341
       223.000         175.000
  22925383.367   -13885920.71549 -10805075.06446  22925381.988    22925392.929
       221.000         169.000
  22530809.006   -13004943.28549 -10116182.41446  22530808.526    22530817.521
       227.000         177.000
  20312466.918   -25173940.86549 -19379720.78748  20312466.832    20312474.522
       244.000         216.000
 00  2  4  0 35  0.0000000  0  7G 6G 5G 4G 9G10G30G24
  24132706.492    -7727472.81549  -6010988.03345  24132705.965    24132716.968
       213.000         155.000
  20362371.166   -26832107.48749 -20894433.64948  20362370.464    20362377.815
       248.000         218.000
  22303255.588   -14763488.25849 -11311860.31746  22303256.127    22303264.035
       230.000         182.000
  23135431.881   -11664929.99849  -9073675.54246  23135431.874    23135441.107
       224.000         175.000
  22907280.338   -13981052.12949 -10879203.25146  22907278.631    22907289.225
       223.000         169.000
  22513802.438   -13094312.76949 -10185820.82046  22513801.899    22513810.607
       227.000         177.000
  20317220.734   -25148959.25449 -19360254.58048  20317220.311    20317228.157
       244.000         216.000
 00  2  4  0 35 30.0000000  0  7G 6G 5G 4G 9G10G30G24
  24119521.019    -7796761.92449  -6064979.33545  24119520.344    24119531.818
       214.000         155.000
  20357095.442   -26859831.44949 -20916036.69548  20357094.537    20357102.078
       248.000         218.000
  22320202.708   -14674430.48049 -11242464.66546  22320203.185    22320211.031
       230.000         182.000
  23151827.517   -11578770.52149  -9006538.34646  23151827.583    23151837.040
       224.000         175.000
  22889210.168   -14076010.80849 -10953196.84146  22889208.551    22889219.298
       222.000         170.000
  22496833.995   -13183481.87649 -10255303.09746  22496833.706    22496843.335
       227.000         177.000
  20322052.284   -25123569.13849 -19340470.05648  20322052.036    20322059.717
       246.000         216.000
 00  2  4  0 36  0.0000000  0  7G 6G 5G 4G 9G10G30G24
  24106339.375    -7866030.86649  -6118954.94345  24106338.079    24106349.470
       214.000         155.000
  20351908.475   -26887088.97049 -20937276.28148  20351907.707    20351914.866
       248.000         218.000
  22337179.958   -14585214.67449 -11172945.87746  22337180.342    22337187.984
       229.000         182.000
  23168252.513   -11492456.63549  -8939280.82446  23168252.433    23168262.355
       225.000         174.000
  22871174.836   -14170786.41749 -11027047.78246  22871173.426    22871184.876
       222.000         171.000
  22479906.850   -13272434.03149 -10324616.32346  22479906.614    22479914.764
       228.000         178.000
  20326969.143   -25097730.87649 -19320336.32848  20326968.722    20326976.276
       246.000         216.000
 00  2  4  0 36 30.0000000  0  7G 6G 5G 4G 9G10G30G24
  24093163.077    -7935271.44349  -6172908.45245  24093162.501    24093173.740
       214.000         155.000
  20346814.549   -26913857.46949 -20958134.80948  20346813.724    20346820.927
       248.000         218.000
  22354190.861   -14495821.81049 -11103289.12046  22354190.836    22354198.892
       229.000         181.000
  23184707.969   -11405982.73649  -8871898.61746  23184707.381    23184717.000
       223.000         174.000
  22853176.752   -14265366.32949 -11100746.23846  22853175.296    22853186.045
       222.000         172.000
  22463024.777   -13361149.33249 -10393744.99346  22463024.162    22463032.802
       228.000         178.000
  20331971.950   -25071440.64049 -19299850.41048  20331971.599    20331979.528
       246.000         215.000
 00  2  4  0 37  0.0000000  0  7G 6G 5G 4G 9G10G30G24
  24079995.806    -8004465.24349  -6226825.53045  24079995.496    24080006.943
       215.000         155.000
  20341814.704   -26940131.59549 -20978608.12248  20341814.175    20341821.331
       248.000         218.000
  22371237.519   -14406240.96349 -11033485.88146  22371237.844    22371245.895
       229.000         181.000
  23201194.066   -11319348.21049  -8804391.24946  23201194.497    23201203.158
       223.000         173.000
  22835217.715   -14359741.01349 -11174284.78746  22835216.049    22835226.396
       223.000         172.000
  22446191.124   -13449610.23449 -10462675.43446  22446190.995    22446199.068
       228.000         179.000
  20337062.498   -25044689.69049 -19279005.50048  20337062.135    20337069.896
       246.000         215.000
 00  2  4  0 37 30.0000000  0  7G 6G 5G 4G 9G10G30G24
  24066836.840    -8073615.29349  -6280708.51845  24066836.496    24066847.591
       214.000         155.000
  20336908.420   -26965914.30849 -20998698.50948  20336907.832    20336915.034
       248.000         218.000
  22388321.107   -14316466.28649 -10963531.60346  22388320.438    22388329.059
       230.000         181.000
  23217710.607   -11232553.42549  -8736759.00546  23217709.854    23217719.693
       221.000         172.000
  22817296.539   -14453916.80149 -11247668.34046  22817295.025    22817305.877
       223.000         173.000
  22429403.848   -13537827.29849 -10531415.86546  22429403.727    22429412.519
       229.000         179.000
  20342241.747   -25017472.34849 -19257797.15948  20342241.499    20342249.247
       246.000         215.000
 00  2  4  0 38  0.0000000  0  7G 6G 5G 4G 9G10G30G24
  24053687.835    -8142713.02449  -6334550.73945  24053686.849    24053698.638
       215.000         156.000
  20332095.384   -26991206.78649 -21018406.90048  20332094.784    20332101.946
       248.000         218.000
  22405445.009   -14226479.58649 -10893412.11346  22405445.063    22405454.122
       229.000         180.000
  23234261.338   -11145578.71349  -8668986.55446  23234261.246    23234270.556
       221.000         171.000
  22799414.109   -14547888.77049 -11320893.08646  22799412.885    22799422.702
       223.000         173.000
  22412661.995   -13625806.05049 -10599970.60546  22412661.907    22412670.158
       228.000         180.000
  20347509.845   -24989788.17449 -19236225.05848  20347509.422    20347517.133
       246.000         215.000
 00  2  4  0 38 30.0000000  0  7G 6G 5G 4G 9G10G30G24
  24040549.836    -8211753.20649  -6388348.13845  24040549.494    24040560.737
       215.000         156.000
  20327371.303   -27016031.81749 -21037751.05448  20327370.594    20327378.010
       248.000         218.000
  22422607.891   -14136288.12049 -10823133.07846  22422608.181    22422616.090
       228.000         180.000
  23250844.512   -11058433.86549  -8601081.53846  23250844.805    23250853.981
       222.000         171.000
  22781569.879   -14641660.02549 -11393961.43646  22781568.728    22781578.886
       224.000         174.000
  22395962.725   -13713560.66549 -10668350.70546  22395962.448    22395971.082
       229.000         180.000
  20352861.092   -24961666.92749 -19214312.38448  20352860.718    20352868.658
       246.000         215.000
 00  2  4  0 39  0.0000000  0  7G 6G 5G 4G 9G10G30G24
  24027420.244    -8280749.09649  -6442111.01145  24027420.173    24027430.812
       216.000         157.000
  20322733.764   -27040402.17249 -21056740.91048  20322733.135    20322740.304
       248.000         218.000
  22439808.165   -14045900.19149 -10752700.94746  22439808.954    22439816.049
       229.000         179.000
  23267456.776   -10971136.00949  -8533057.29246  23267456.605    23267466.467
       222.000         170.000
  22763762.772   -14735236.39449 -11466877.93546  22763761.116    22763771.318
       223.000         174.000
  22379303.323   -13801105.96149 -10736567.68946  22379303.191    22379311.210
       230.000         181.000
  20358292.542   -24933124.55149 -19192071.55248  20358292.417    20358299.927
       246.000         215.000
 00  2  4  0 39 30.0000000  0  7G 6G 5G 4G 9G10G30G24
  24014293.917    -8349727.58249  -6495860.31545  24014293.011    24014303.886
       216.000         157.000
  20318181.786   -27064322.86049 -21075380.37648  20318181.116    20318188.283
       248.000         218.000
  22457043.823   -13955326.17149 -10682123.80646  22457044.442    22457052.092
       228.000         179.000
  23284096.351   -10883694.88049  -8464921.40546  23284096.136    23284106.518
       221.000         170.000
  22745993.530   -14828613.65149 -11539639.28646  22745992.117    22746002.023
       225.000         174.000
  22362683.860   -13888441.40649 -10804621.16646  22362683.716    22362691.594
       229.000         181.000
  20363800.344   -24904180.81349 -19169517.97748  20363800.085    20363807.801
       246.000         215.000
 00  2  4  0 40  0.0000000  0  7G 6G 5G 4G 9G10G30G24
  24001167.754    -8418705.08849  -6549608.84845  24001167.228    24001177.592
       215.000         157.000
  20313714.251   -27087799.68849 -21093673.98148  20313713.609    20313720.799
       248.000         218.000
  22474311.334   -13864584.82649 -10611416.28046  22474311.468    22474319.284
       228.000         179.000
  23300760.275   -10796125.60149  -8396685.65946  23300760.039    23300769.981
       222.000         169.000
  22728263.387   -14921785.54549 -11612240.61746  22728262.062    22728271.882
       223.000         174.000
  22346103.686   -13975570.12449 -10872513.54946  22346103.634    22346111.448
       229.000         181.000
  20369380.623   -24874856.14349 -19146667.56748  20369380.421    20369388.041
       246.000         215.000
 00  2  4  0 40 30.0000000  0  7G 6G 5G 4G 9G10G30G24
  23988040.191    -8487689.98849  -6603363.14945  23988040.095    23988050.534
       215.000         157.000
  20309333.948   -27110818.24049 -21111610.48548  20309333.371    20309340.544
       248.000         218.000
  22491606.917   -13773695.92549 -10540593.78246  22491606.705    22491615.575
       228.000         179.000
  23317446.918   -10708436.70449  -8328356.71346  23317446.548    23317456.494
       221.000         169.000
  22710572.926   -15014748.88949 -11684679.44846  22710572.118    22710581.674
       223.000         174.000
  22329566.176   -14062475.01649 -10940231.52646  22329566.393    22329573.575
       230.000         182.000
  20375032.836   -24845153.58549 -19123522.70148  20375032.708    20375040.322
       246.000         215.000
 00  2  4  0 41  0.0000000  0  7G 6G 5G 4G 9G10G30G24
  23974910.119    -8556688.14449  -6657127.75945  23974909.815    23974920.330
       215.000         157.000
  20305044.699   -27133358.24549 -21129174.09948  20305044.150    20305051.168
       248.000         218.000
  22508929.316   -13682666.12349 -10469661.48446  22508929.283    22508937.357
       228.000         178.000
  23334157.328   -10620623.03649  -8259930.54746  23334157.009    23334166.457
       222.000         168.000
  22692923.193   -15107498.20649 -11756951.50546  22692922.886    22692931.776
       223.000         175.000
  22313075.410   -14149134.08849 -11007757.95646  22313075.110    22313083.107
       230.000         182.000
  20380759.527   -24815059.50149 -19100072.75348  20380759.434    20380766.952
       246.000         215.000
 00  2  4  0 41 30.0000000  0  7G 6G 5G 4G 9G10G30G24
  23961780.693    -8625683.03549  -6710889.82445  23961780.435    23961790.825
       217.000         158.000
  20300848.854   -27155407.62349 -21146355.40048  20300848.285    20300855.525
       248.000         218.000
  22526277.269   -13591502.33849 -10398624.77646  22526277.912    22526285.848
       228.000         178.000
  23350894.103   -10532671.08649  -8191396.60546  23350894.122    23350903.030
       222.000         168.000
  22675315.187   -15200027.99849 -11829052.50446  22675314.097    22675324.264
       223.000         175.000
  22296634.007   -14235533.63149 -11075082.15746  22296634.251    22296642.552
       230.000         182.000
  20386565.460   -24784549.13349 -19076298.42248  20386564.915    20386572.731
       246.000         215.000
 00  2  4  0 42  0.0000000  0  7G 6G 5G 4G 9G10G30G24
  23948657.832    -8694643.78249  -6764625.28345  23948657.559    23948668.866
       217.000         157.000
  20296750.351   -27176945.28249 -21163137.96548  20296749.643    20296756.838
       248.000         218.000
  22543653.978   -13500187.13949 -10327470.09946  22543654.213    22543661.983
       228.000         178.000
  23367658.229   -10444575.29349  -8122750.59446  23367657.317    23367668.285
       222.000         167.000
  22657750.389   -15292331.00349 -11900976.79746  22657748.987    22657758.686
       224.000         175.000
  22280243.574   -14321665.49649 -11142197.78446  22280243.668    22280251.419
       230.000         182.000
  20392454.252   -24753603.19549 -19052184.69448  20392454.038    20392461.766
       246.000         215.000
 00  2  4  0 42 30.0000000  0  7G 6G 5G 4G 9G10G30G24
  23935546.424    -8763544.07549  -6818313.64145  23935546.136    23935556.877
       217.000         158.000
  20292749.953   -27197967.40549 -21179518.81448  20292749.242    20292756.531
       249.000         218.000
  22561059.859   -13408718.61049 -10256195.94146  22561059.713    22561067.852
       226.000         177.000
  23384450.386   -10356331.96949  -8053989.62346  23384450.102    23384459.969
       220.000         167.000
  22640229.066   -15384405.61549 -11972723.12146  22640228.006    22640238.222
       224.000         176.000
  22263906.710   -14407515.81549 -11209094.03346  22263906.568    22263914.189
       230.000         182.000
  20398426.668   -24722217.89949 -19027728.61348  20398426.533    20398434.228
       246.000         215.000
 00  2  4  0 43  0.0000000  0  7G 6G 5G 4G 9G10G30G24
  23922449.006    -8832370.77749  -6871944.65345  23922448.803    23922458.598
       216.000         157.000
  20288845.246   -27218486.51849 -21195507.70748  20288844.535    20288851.783
       248.000         218.000
  22578496.879   -13317086.23349 -10184794.09946  22578497.292    22578505.563
       226.000         177.000
  23401268.079   -10267954.45649  -7985124.09446  23401268.039    23401277.637
       220.000         166.000
  22622755.620   -15476228.71749 -12044273.45846  22622754.783    22622764.277
       224.000         176.000
  22247621.943   -14493092.33749 -11275776.93246  22247621.542    22247629.625
       230.000         182.000
  20404485.838   -24690376.72649 -19002917.30048  20404485.698    20404493.406
       246.000         215.000
 00  2  4  0 43 30.0000000  0  7G 6G 5G 4G 9G10G30G24
  23909364.667    -8901128.59849  -6925522.01245  23909363.612    23909374.995
       215.000         157.000
  20285032.545   -27238522.33149 -21211120.00248  20285031.775    20285039.005
       249.000         218.000
  22595965.338   -13225289.17449 -10113263.93646  22595965.119    22595973.306
       227.000         177.000
  23418107.456   -10179463.01549  -7916169.78846  23418106.272    23418117.170
       220.000         166.000
  22605329.137   -15567804.95149 -12115631.42846  22605327.727    22605337.669
       224.000         176.000
  22231386.541   -14578409.48749 -11342257.71646  22231386.162    22231394.536
       230.000         183.000
  20410628.561   -24658096.55149 -18977763.90348  20410628.206    20410635.994
       246.000         215.000
 00  2  4  0 44  0.0000000  0  7G 6G 5G 4G 9G10G30G24
  23896290.448    -8969833.32149  -6979057.99245  23896289.153    23896299.659
       215.000         157.000
  20281311.390   -27258077.08349 -21226357.44748  20281310.721    20281318.010
       249.000         218.000
  22613462.781   -13133339.57249 -10041614.91146  22613462.925    22613471.480
       226.000         176.000
  23434967.553   -10090862.70149  -7847130.64046  23434968.009    23434977.927
       220.000         166.000
  22587952.024   -15659121.58649 -12186787.11246  22587950.437    22587960.430
       224.000         176.000
  22215201.398   -14663462.55149 -11408532.72746  22215201.116    22215209.413
       230.000         184.000
  20416852.168   -24625391.15849 -18952279.16848  20416851.808    20416859.513
       246.000         215.000
 00  2  4  0 44 30.0000000  0  7G 6G 5G 4G 9G10G30G24
  23883221.781    -9038508.85249  -7032571.23545  23883220.840    23883231.564
       215.000         156.000
  20277680.144   -27277159.15049 -21241226.56548  20277679.425    20277686.582
       249.000         218.000
  22630984.780   -13041261.00049  -9969865.38846  22630984.206    22630992.943
       226.000         176.000
  23451847.775   -10002156.71249  -7778009.15446  23451847.524    23451857.901
       220.000         166.000
  22570623.793   -15750181.50449 -12257742.75046  22570622.343    22570632.579
       224.000         176.000
  22199066.472   -14748251.75149 -11474602.11846  22199065.926    22199074.669
       231.000         184.000
  20423154.713   -24592270.91549 -18926471.17348  20423154.374    20423162.097
       246.000         215.000
 00  2  4  0 45  0.0000000  0  7G 6G 5G 4G 9G10G30G24
  23870154.039    -9107179.45449  -7086080.63745  23870153.487    23870163.594
       214.000         155.000
  20274141.764   -27295753.44649 -21255715.60548  20274141.004    20274148.150
       249.000         219.000
  22648532.622   -12949046.61849  -9898010.04746  22648533.367    22648541.057
       227.000         176.000
  23468749.551    -9913337.38149  -7708799.35546  23468749.733    23468759.160
       219.000         166.000
  22553343.561   -15840989.29749 -12328501.94046  22553342.006    22553352.294
       225.000         177.000
  22182984.078   -14832764.76149 -11540456.31146  22182983.650    22182992.129
       231.000         184.000
  20429536.495   -24558734.39649 -18900338.80948  20429536.056    20429543.822
       246.000         215.000
 00  2  4  0 45 30.0000000  0  7G 6G 5G 4G 9G10G30G24
  23857085.951    -9175851.80049  -7139591.40545  23857085.204    23857095.629
       213.000         155.000
  20270701.422   -27313832.46049 -21269803.12348  20270700.886    20270707.899
       249.000         219.000
  22666105.898   -12856698.37849  -9826050.39246  22666105.462    22666114.001
       226.000         175.000
  23485678.223    -9824376.71349  -7639479.41646  23485678.413    23485688.556
       219.000         166.000
  22536109.080   -15931556.73849 -12399073.83446  22536107.747    22536117.528
       226.000         177.000
  22166959.580   -14916973.72449 -11606073.57546  22166959.623    22166967.234
       232.000         185.000
  20435995.225   -24524793.32249 -18873891.20148  20435994.995    20436002.662
       246.000         215.000
 00  2  4  0 46  0.0000000  0  7G 6G 5G 4G 9G10G30G24
  23844019.288    -9244516.99649  -7193096.60345  23844019.349    23844029.194
       214.000         155.000
  20267361.231   -27331385.23249 -21283480.59048  20267360.658    20267367.781
       249.000         219.000
  22683704.738   -12764216.14049  -9753986.32346  22683705.258    22683713.108
       225.000         175.000
  23502635.076    -9735268.26049  -7570044.32146  23502634.705    23502645.824
       220.000         166.000
  22518923.393   -16021867.58549 -12469445.79546  22518922.324    22518932.719
       225.000         177.000
  22150992.956   -15000878.45749 -11671453.79046  22150992.797    22151000.762
       231.000         185.000
  20442531.840   -24490443.22849 -18847124.88148  20442531.580    20442539.256
       246.000         215.000
 00  2  4  0 46 30.0000000  0  7G 6G 5G 4G 9G10G30G24
  23830956.032    -9313164.21349  -7246587.78245  23830956.402    23830966.652
       213.000         155.000
  20264120.973   -27348412.83049 -21296748.82348  20264120.321    20264127.439
       249.000         219.000
  22701333.435   -12671576.83949  -9681799.87246  22701333.624    22701341.375
       226.000         175.000
  23519617.649    -9646024.46649  -7500503.76746  23519617.588    23519627.889
       219.000         166.000
  22501787.128   -16111918.80649 -12539615.43946  22501785.708    22501795.301
       225.000         177.000
  22135083.433   -15084483.07049 -11736600.13146  22135083.531    22135091.426
       232.000         186.000
  20449145.743   -24455686.90649 -18820042.01148  20449145.571    20449153.221
       246.000         215.000
 00  2  4  0 47  0.0000000  0  7G 6G 5G 4G 9G10G30G24
  23817897.479    -9381786.44649  -7300059.49445  23817896.034    23817907.452
       212.000         154.000
  20260979.181   -27364922.85849 -21309613.76548  20260978.706    20260985.683
       249.000         219.000
  22718992.605   -12578777.42949  -9609488.66146  22718993.318    22719000.895
       225.000         175.000
  23536623.329    -9556659.35249  -7430868.68146  23536622.955    23536633.461
       219.000         166.000
  22484701.200   -16201705.25249 -12609578.78446  22484699.996    22484709.586
       225.000         178.000
  22119227.771   -15167804.84649 -11801526.08646  22119227.537    22119235.915
       232.000         186.000
  20455835.541   -24420531.77349 -18792648.38548  20455835.320    20455842.990
       246.000         215.000
 00  2  4  0 47 30.0000000  0  7G 6G 5G 4G 9G10G30G24
  23804847.801    -9450362.39249  -7353495.14045  23804847.357    23804857.394
       212.000         154.000
  20257933.116   -27380930.04449 -21322086.87148  20257932.515    20257939.387
       249.000         219.000
  22736682.495   -12485816.58649  -9537051.65846  22736683.142    22736691.641
       226.000         174.000
  23553647.720    -9467196.25149  -7361157.23846  23553647.179    23553657.700
       219.000         167.000
  22467668.242   -16291213.67549 -12679325.48046  22467666.988    22467676.605
       227.000         178.000
  22103421.919   -15250864.93049 -11866248.11746  22103421.790    22103429.844
       233.000         187.000
  20462600.911   -24384979.71249 -18764945.45748  20462600.616    20462608.356
       246.000         215.000
 00  2  4  0 48  0.0000000  0  7G 6G 5G 4G 9G10G30G24
  23791805.910    -9518897.20749  -7406898.73845  23791805.186    23791816.297
       213.000         153.000
  20254979.039   -27396453.59849 -21334183.12648  20254978.360    20254985.460
       249.000         219.000
  22754402.860   -12392695.28949  -9464489.62146  22754402.825    22754411.098
       225.000         174.000
  23570685.880    -9377660.56049  -7291389.23146  23570685.614    23570696.073
       219.000         166.000
  22450688.537   -16380442.14649 -12748854.04746  22450686.803    22450697.295
       226.000         178.000
  22087660.437   -15333691.58949 -11930788.26446  22087659.991    22087668.068
       233.000         187.000
  20469439.967   -24349040.16949 -18736940.59748  20469439.662    20469447.276
       247.000         215.000
 00  2  4  0 48 30.0000000  0  7G 6G 5G 4G 9G10G30G24
  23778768.000    -9587411.00749  -7460285.94245  23778766.942    23778778.152
       213.000         154.000
  20252115.852   -27411499.57549 -21345907.24348  20252115.013    20252122.297
       249.000         219.000
  22772150.119   -12299433.02149  -9391817.74646  22772150.148    22772158.097
       225.000         174.000
  23587736.195    -9288060.87149  -7221571.36246  23587736.130    23587746.409
       218.000         166.000
  22433759.210   -16469406.08049 -12818176.48146  22433757.493    22433767.054
       226.000         179.000
  22071945.003   -15416276.27949 -11995139.85946  22071944.930    22071952.906
       232.000         187.000
  20476351.796   -24312718.08949 -18708637.65948  20476351.497    20476359.211
       246.000         215.000
 00  2  4  0 49  0.0000000  0  7G 6G 5G 4G 9G10G30G24
  23765734.758    -9655900.49749  -7513654.22045  23765734.694    23765744.625
       212.000         154.000
  20249345.663   -27426056.91049 -21357250.59648  20249345.020    20249352.150
       249.000         219.000
  22789919.982   -12206051.77949  -9319053.14846  22789920.257    22789928.295
       224.000         173.000
  23604800.634    -9198386.75949  -7151695.50046  23604800.347    23604810.528
       218.000         166.000
  22416879.222   -16558110.48849 -12887296.70046  22416878.008    22416887.440
       227.000         179.000
  22056278.828   -15498602.11949 -12059289.74246  22056278.646    22056285.984
       233.000         187.000
  20483337.146   -24276009.69849 -18680033.69748  20483336.841    20483344.618
       246.000         215.000
 00  2  4  0 49 30.0000000  0  7G 6G 5G 4G 9G10G30G24
  23752706.557    -9724363.64749  -7567001.96245  23752706.284    23752716.212
       213.000         155.000
  20246670.442   -27440115.22549 -21368205.10748  20246669.882    20246676.954
       248.000         219.000
  22807712.704   -12112550.41549  -9246194.95446  22807713.179    22807720.625
       224.000         173.000
  23621880.547    -9108631.56249  -7081756.45846  23621880.812    23621890.566
       219.000         167.000
  22400049.576   -16646550.31849 -12956210.75046  22400048.589    22400057.913
       227.000         179.000
  22040668.155   -15580636.35449 -12123212.41047  22040667.973    22040675.624
       232.000         188.000
  20490396.319   -24238913.38549 -18651127.46148  20490396.084    20490403.692
       246.000         215.000
 00  2  4  0 50  0.0000000  0  7G 6G 5G 4G 9G10G30G24
  23739681.154    -9792811.78249  -7620338.01945  23739680.661    23739690.552
       214.000         155.000
  20244093.470   -27453657.14349 -21378757.22648  20244092.716    20244099.888
       249.000         219.000
  22825525.742   -12018942.53549  -9173253.76046  22825525.707    22825534.070
       224.000         173.000
  23638978.329    -9018782.53749  -7011744.30146  23638978.246    23638988.138
       218.000         167.000
  22383270.866   -16734722.62949 -13024916.34646  22383269.175    22383278.954
       227.000         180.000
  22025117.292   -15662356.24949 -12186890.13047  22025117.528    22025125.039
       233.000         188.000
  20497528.684   -24201432.42049 -18621921.49448  20497528.296    20497536.016
       246.000         215.000
 00  2  4  0 50 30.0000000  0  7G 6G 5G 4G 9G10G30G24
  23726661.518    -9861229.79849  -7673650.60245  23726661.004    23726670.921
       214.000         157.000
  20241615.386   -27466679.53549 -21388904.52148  20241614.812    20241621.855
       250.000         219.000
  22843359.183   -11925227.38749  -9100228.97746  22843359.012    22843368.069
       225.000         173.000
  23656094.048    -8928839.12949  -6941658.59946  23656094.417    23656103.987
       220.000         167.000
  22366543.932   -16822622.86149 -13093409.93046  22366542.285    22366552.790
       228.000         180.000
  22009630.423   -15743739.94449 -12250305.88047  22009630.490    22009637.835
       234.000         188.000
  20504736.472   -24163554.98449 -18592406.59348  20504736.147    20504743.801
       245.000         215.000
 00  2  4  0 51  0.0000000  0  7G 6G 5G 4G 9G10G30G24
  23713650.697    -9929601.59649  -7726927.17645  23713650.671    23713660.324
       214.000         158.000
  20239236.331   -27479181.58749 -21398646.35748  20239235.869    20239242.905
       250.000         219.000
  22861215.933   -11831389.50549  -9027108.56946  22861215.940    22861224.640
       224.000         172.000
  23673226.401    -8838808.34449  -6871504.81046  23673226.566    23673237.047
       219.000         167.000
  22349868.632   -16910251.64449 -13161692.00346  22349867.319    22349876.978
       227.000         181.000
  21994206.577   -15824792.27149 -12313463.42747  21994206.318    21994213.874
       235.000         188.000
  20512018.834   -24125285.84049 -18562586.46848  20512018.555    20512026.227
       245.000         215.000
 00  2  4  0 51 30.0000000  0  7G 6G 5G 4G 9G10G30G24
  23700647.538    -9997932.96349  -7780172.24545  23700647.443    23700656.728
       216.000         159.000
  20236955.499   -27491167.27049 -21407985.82948  20236954.868    20236961.920
       249.000         219.000
  22879097.616   -11737420.42549  -8953885.92146  22879098.020    22879106.494
       224.000         172.000
  23690373.319    -8748701.03149  -6801291.39746  23690373.526    23690383.191
       218.000         167.000
  22333246.576   -16997600.71349 -13229756.10246  22333245.926    22333254.674
       228.000         181.000
  21978843.082   -15905527.38649 -12376373.79147  21978842.554    21978850.127
       234.000         189.000
  20519373.666   -24086635.84949 -18532469.58348  20519373.243    20519380.905
       244.000         215.000
 00  2  4  0 52  0.0000000  0  7G 6G 5G 4G 9G10G30G24
  23687651.128   -10066229.16849  -7833389.91845  23687650.661    23687660.665
       216.000         160.000
  20234772.959   -27502636.63749 -21416922.97848  20234772.289    20234779.355
       250.000         219.000
  22897003.173   -11643326.19249  -8880565.74346  22897003.005    22897011.818
       224.000         172.000
  23707534.738    -8658517.49249  -6731018.58646  23707534.365    23707544.976
       218.000         166.000
  22316680.182   -17084657.12849 -13297592.16246  22316679.125    22316688.828
       228.000         181.000
  21963537.719   -15985957.08949 -12439046.17647  21963537.369    21963545.235
       235.000         189.000
  20526801.798   -24047600.49549 -18502052.41748  20526801.351    20526808.968
       245.000         215.000
 00  2  4  0 52 30.0000000  0  7G 6G 5G 4G 9G10G30G24
  23674661.263   -10134490.79349  -7886580.65145  23674660.683    23674670.630
       218.000         161.000
  20232685.487   -27513606.25049 -21425470.70648  20232684.774    20232691.750
       249.000         219.000
  22914932.457   -11549107.26349  -8807148.39746  22914933.142    22914940.480
       223.000         172.000
  23724709.762    -8568262.42649  -6660690.04146  23724710.345    23724720.114
       218.000         166.000
  22300169.384   -17171421.42149 -13365200.58846  22300168.415    22300177.169
       228.000         182.000
  21948288.213   -16066093.42849 -12501489.96647  21948288.096    21948295.648
       234.000         190.000
  20534301.342   -24008189.99949 -18471342.92948  20534300.989    20534308.664
       244.000         214.000
 00  2  4  0 53  0.0000000  0  7G 6G 5G 4G 9G10G30G24
  23661673.603   -10202741.06849  -7939762.54945  23661673.554    23661682.654
       219.000         162.000
  20230693.531   -27524073.96449 -21433627.34548  20230692.863    20230699.786
       251.000         219.000
  22932883.516   -11454773.75849  -8733641.77946  22932883.875    22932892.551
       224.000         171.000
  23741898.022    -8477937.77949  -6590307.28046  23741898.046    23741908.422
       218.000         165.000
  22283715.298   -17257887.84149 -13432576.90846  22283714.246    22283723.611
       229.000         182.000
  21933093.778   -16145940.20449 -12563708.12547  21933093.595    21933100.895
       236.000         190.000
  20541867.510   -23968429.51149 -18440360.72348  20541867.331    20541874.958
       245.000         215.000
 00  2  4  0 53 30.0000000  0  7G 6G 5G 4G 9G10G30G24
  23648685.624   -10270992.71949  -7992945.51746  23648684.806    23648695.129
       218.000         164.000
  20228796.907   -27534040.64749 -21441393.57348  20228796.256    20228803.230
       249.000         219.000
  22950853.866   -11360338.82549  -8660056.13746  22950854.274    22950862.595
       223.000         171.000
  23759101.245    -8387534.47049  -6519863.22346  23759101.216    23759111.711
       217.000         165.000
  22267321.236   -17344038.78649 -13499707.40746  22267320.365    22267329.487
       228.000         182.000
  21917954.412   -16225497.71549 -12625700.89247  21917954.106    21917961.794
       235.000         190.000
  20549499.743   -23928321.86749 -18409108.01248  20549499.687    20549507.150
       244.000         215.000
 00  2  4  0 54  0.0000000  0  7G 6G 5G 4G 9G10G30G24
  23635697.531   -10339245.17549  -8046129.11646  23635697.107    23635707.196
       220.000         165.000
  20226992.524   -27543522.62949 -21448782.11148  20226991.925    20226998.883
       249.000         219.000
  22968842.502   -11265807.86749  -8586395.65646  22968842.661    22968851.435
       223.000         171.000
  23776318.230    -8297058.82949  -6449362.79946  23776318.627    23776328.685
       216.000         164.000
  22250985.955   -17429880.61349 -13566597.02646  22250985.064    22250994.782
       229.000         183.000
  21902872.095   -16304755.34849 -12687459.98747  21902872.057    21902879.086
       234.000         190.000
  20557197.661   -23887869.05549 -18377586.33548  20557197.548    20557205.186
       244.000         215.000
 00  2  4  0 54 30.0000000  0  7G 6G 5G 4G 9G10G30G24
  23622711.052   -10407489.28949  -8099306.22646  23622710.997    23622720.871
       220.000         166.000
  20225279.742   -27552523.32049 -21455795.61648  20225279.091    20225286.086
       249.000         219.000
  22986847.487   -11171191.13749  -8512668.34846  22986847.327    22986855.931
       223.000         170.000
  23793546.789    -8206522.08349  -6378814.77045  23793546.830    23793556.712
       216.000         162.000
  22234705.369   -17515435.43549 -13633263.01946  22234704.115    22234713.605
       229.000         183.000
  21887846.726   -16383713.60549 -12748985.80547  21887846.369    21887854.481
       235.000         190.000
  20564960.677   -23847074.14249 -18345798.08748  20564960.524    20564968.127
       245.000         214.000
 00  2  4  0 55  0.0000000  0  7G 6G 5G 4G 9G10G30G24
  23609725.708   -10475727.29749  -8152478.56846  23609724.948    23609735.384
       219.000         167.000
  20223660.708   -27561031.22049 -21462425.12448  20223660.091    20223666.967
       249.000         219.000
  23004867.388   -11076495.85849  -8438879.83146  23004868.091    23004875.475
       223.000         169.000
  23810783.617    -8115942.10049  -6308233.04745  23810782.978    23810794.277
       215.000         161.000
  22218480.408   -17600697.97149 -13699701.25746  22218479.647    22218488.671
       229.000         184.000
  21872879.748   -16462365.21949 -12810272.68347  21872879.621    21872886.841
       235.000         191.000
  20572790.015   -23805930.64449 -18313738.21148  20572789.904    20572797.340
       245.000         214.000
 00  2  4  0 55 30.0000000  0  7G 6G 5G 4G 9G10G30G24
  23596745.049   -10543940.48149  -8205631.57846  23596744.564    23596754.845
       220.000         168.000
  20222138.552   -27569030.19849 -21468658.07248  20222138.015    20222144.827
       249.000         219.000
  23022902.135   -10981722.64349  -8365030.58746  23022902.406    23022910.717
       223.000         169.000
  23828027.298    -8025325.98549  -6237623.16845  23828027.490    23828037.641
       214.000         160.000
  22202314.664   -17685649.02549 -13765896.78646  22202313.818    22202322.993
       229.000         184.000
  21857971.800   -16540706.64549 -12871317.86947  21857971.841    21857979.102
       235.000         191.000
  20580690.216   -23764414.89349 -18281388.27348  20580690.065    20580697.716
       245.000         214.000
 00  2  4  0 56  0.0000000  0  7G 6G 5G 4G 9G10G30G24
  23583771.937   -10612114.14849  -8258753.79046  23583771.675    23583780.452
       221.000         168.000
  20220716.303   -27576504.23349 -21474481.96848  20220715.650    20220722.700
       250.000         219.000
  23040952.622   -10886866.73849  -8291116.90046  23040952.580    23040961.462
       223.000         168.000
  23845275.777    -7934684.95449  -6166993.86945  23845275.929    23845285.781
       213.000         158.000
  22186209.688   -17770280.72849 -13831843.46546  22186208.547    22186217.930
       229.000         184.000
  21843125.305   -16618724.90549 -12932111.22847  21843125.039    21843132.545
       235.000         191.000
  20588661.707   -23722524.51549 -18248746.40748  20588661.636    20588669.197
       245.000         214.000
 00  2  4  0 56 30.0000000  0  7G 6G 5G 4G 9G10G30G24
  23570806.151   -10680249.55849  -8311846.20046  23570805.111    23570815.366
       221.000         168.000
  20219400.052   -27583421.00549 -21479871.63848  20219399.501    20219406.305
       249.000         219.000
  23059020.112   -10791921.42449  -8217133.55446  23059020.922    23059028.278
       222.000         168.000
  23862530.880    -7844009.13249  -6096337.47445  23862531.113    23862541.441
       213.000         157.000
  22170170.578   -17854566.67849 -13897520.73446  22170169.381    22170178.280
       229.000         185.000
  21828341.553   -16696413.27949 -12992647.54147  21828341.404    21828349.062
       235.000         191.000
  20596707.147   -23680245.39949 -18215801.63548  20596706.807    20596714.443
       245.000         214.000
 00  2  4  0 57  0.0000000  0  7G 6G 5G 4G 9G10G30G24
  23557846.204   -10748353.95049  -8364914.42846  23557845.923    23557856.343
       221.000         168.000
  20218191.056   -27589774.11449 -21484822.08748  20218190.558    20218197.437
       249.000         219.000
  23077108.575   -10696866.04749  -8143064.44046  23077108.240    23077117.008
       222.000         167.000
  23879793.049    -7753296.22249  -6025652.16345  23879793.373    23879803.609
       212.000         157.000
  22154202.884   -17938477.03049 -13962905.33246  22154201.925    22154211.453
       230.000         185.000
  21813622.692   -16773760.95349 -13052918.37347  21813622.643    21813630.391
       235.000         191.000
  20604825.373   -23637583.98649 -18182558.95948  20604825.126    20604832.679
       245.000         214.000
 00  2  4  0 57 30.0000000  0  7G 6G 5G 4G 9G10G30G24
  23544894.644   -10816414.11849  -8417948.19246  23544893.899    23544903.462
       220.000         168.000
  20217087.917   -27595571.14549 -21489339.23048  20217087.352    20217094.264
       249.000         219.000
  23095219.710   -10601691.44349  -8068902.42146  23095220.142    23095228.133
       221.000         166.000
  23897065.291    -7662530.07649  -5954925.38145  23897064.866    23897075.957
       211.000         156.000
  22138305.741   -18022016.77449 -14028001.14346  22138304.950    22138313.649
       229.000         185.000
  21798971.239   -16850754.67149 -13112913.40247  21798971.306    21798978.989
       236.000         192.000
  20613015.231   -23594545.87649 -18149022.75848  20613015.037    20613022.747
       245.000         214.000
 00  2  4  0 58  0.0000000  0  7G 6G 5G 4G 9G10G30G24
  23531950.860   -10884433.82549  -8470950.43446  23531950.330    23531960.457
       220.000         168.000
  20216086.030   -27600836.03949 -21493441.71948  20216085.385    20216092.262
       249.000         219.000
  23113351.219   -10506409.56949  -7994656.81246  23113350.810    23113359.638
       221.000         165.000
  23914347.712    -7571710.24749  -5884156.77545  23914348.201    23914357.973
       213.000         155.000
  22122472.361   -18105221.38149 -14092835.80546  22122471.052    22122480.499
       230.000         186.000
  21784387.869   -16927390.57949 -13172629.62247  21784388.172    21784395.008
       236.000         192.000
  20621273.487   -23551148.24049 -18115206.40248  20621273.150    20621280.962
       244.000         214.000
 00  2  4  0 58 30.0000000  0  7G 6G 5G 4G 9G10G30G24
  23519012.400   -10952425.54649  -8523930.85846  23519011.737    23519021.331
       220.000         168.000
  20215181.662   -27605588.46649 -21497144.88448  20215180.971    20215187.976
       249.000         219.000
  23131502.258   -10411025.09049  -7920331.24146  23131501.835    23131511.274
       221.000         165.000
  23931638.412    -7480847.30149  -5813354.55345  23931637.832    23931649.044
       211.000         154.000
  22106699.484   -18188107.97449 -14157422.66246  22106698.521    22106707.727
       230.000         186.000
  21769872.888   -17003667.07349 -13232065.77447  21769872.731    21769880.372
       236.000         193.000
  20629598.711   -23507398.88549 -18081115.97648  20629598.506    20629605.896
       245.000         214.000
 00  2  4  0 59  0.0000000  0  7G 6G 5G 4G 9G10G30G24
  23506081.020   -11020379.75149  -8576882.03846  23506080.519    23506089.921
       220.000         168.000
  20214370.119   -27609852.93949 -21500467.82948  20214369.583    20214376.546
       249.000         219.000
  23149670.273   -10315551.23749  -7845936.04846  23149670.277    23149679.238
       221.000         164.000
  23948934.564    -7389955.26549  -5742529.67145  23948933.818    23948945.741
       211.000         154.000
  22090985.569   -18270684.74149 -14221768.10046  22090984.630    22090993.698
       230.000         186.000
  21755424.416   -17079594.16349 -13291229.66047  21755424.143    21755431.814
       236.000         193.000
  20637988.792   -23463308.58749 -18046759.88548  20637988.468    20637996.115
       244.000         214.000
 00  2  4  0 59 30.0000000  0  7G 6G 5G 4G 9G10G30G24
  23493156.544   -11088297.75149  -8629805.01046  23493155.957    23493165.624
       220.000         168.000
  20213648.734   -27613643.75949 -21503421.69148  20213648.043    20213654.938
       249.000         219.000
  23167851.324   -10220009.18049  -7771487.67746  23167851.820    23167859.638
       220.000         164.000
  23966234.155    -7299045.48049  -5671690.95745  23966234.391    23966245.091
       211.000         153.000
  22075328.193   -18352964.50349 -14285882.10046  22075327.009    22075336.065
       231.000         187.000
  21741039.118   -17155189.10149 -13350134.73247  21741038.902    21741046.596
       236.000         193.000
  20646444.028   -23418875.83949 -18012136.94348  20646443.784    20646451.589
       244.000         214.000
 00  2  4  1  0  0.0000000  0  7G 6G 5G 4G 9G10G30G24
  23480236.688   -11156191.74349  -8682709.27446  23480236.790    23480245.363
       220.000         167.000
  20213018.279   -27616956.73149 -21506003.20848  20213017.609    20213024.552
       249.000         219.000
  23186044.070   -10124405.48849  -7696991.30346  23186044.336    23186052.976
       221.000         163.000
  23983535.915    -7208124.51649  -5600843.53645  23983535.684    23983546.636
       211.000         153.000
  22059729.388   -18434936.48849 -14349756.27246  22059728.238    22059737.339
       230.000         187.000
  21726713.271   -17230471.61249 -13408796.36147  21726713.319    21726720.382
       238.000         194.000
  20654965.788   -23374093.94649 -17977241.94948  20654965.595    20654973.245
       245.000         214.000
 00  2  4  1  0 30.0000000  0  7G 6G 5G 4G 9G10G30G24
  23467317.952   -11224079.41549  -8735608.61846  23467317.564    23467327.478
       218.000         167.000
  20212480.232   -27619783.97049 -21508206.23148  20212479.632    20212486.606
       249.000         219.000
  23204249.301   -10028736.42749  -7622443.98745  23204250.552    23204258.431
       219.000         162.000
  24000839.001    -7117196.51849  -5529990.62345  24000839.465    24000849.920
       213.000         154.000
  22044194.705   -18516571.29249 -14413367.69646  22044193.862    22044202.460
       231.000         187.000
  21712444.627   -17305453.82749 -13467223.98647  21712444.607    21712451.515
       237.000         194.000
  20663554.280   -23328960.96149 -17942073.37148  20663553.779    20663561.467
       245.000         214.000
 00  2  4  1  1  0.0000000  0  7G 6G 5G 4G 9G10G30G24
  23454400.531   -11291960.17149  -8788502.55546  23454399.177    23454409.006
       219.000         166.000
  20212039.128   -27622101.94549 -21510012.42548  20212038.487    20212045.466
       249.000         219.000
  23222465.133    -9933011.63049  -7547853.24245  23222465.162    23222473.943
       219.000         162.000
  24018146.172    -7026247.24749  -5459121.13645  24018146.753    24018156.786
       214.000         155.000
  22028726.801   -18597855.29749 -14476705.77347  22028725.770    22028735.052
       231.000         188.000
  21698233.214   -17380134.87449 -13525416.93147  21698233.456    21698240.432
       237.000         194.000
  20672209.702   -23283476.14549 -17906630.64448  20672209.627    20672217.098
       245.000         214.000
 00  2  4  1  1 30.0000000  0  7G 6G 5G 4G 9G10G30G24
  23441483.814   -11359837.41549  -8841393.76446  23441483.758    23441492.109
       218.000         166.000
  20211700.864   -27623879.45549 -21511397.47848  20211700.261    20211707.187
       249.000         219.000
  23240693.657    -9837220.04349  -7473210.45945  23240694.432    23240702.140
       220.000         162.000
  24035459.425    -6935265.99449  -5388226.73045  24035459.498    24035469.754
       216.000         155.000
  22013325.405   -18678789.85049 -14539771.55447  22013324.682    22013333.128
       232.000         188.000
  21684083.611   -17454491.38749 -13583356.99247  21684083.881    21684090.855
       238.000         194.000
  20680932.578   -23237637.04449 -17870911.85148  20680932.478    20680939.934
       245.000         214.000
 00  2  4  1  2  0.0000000  0  7G 6G 5G 4G 9G10G30G24
  23428568.897   -11427705.23349  -8894277.62246  23428569.089    23428577.944
       218.000         165.000
  20211470.606   -27625089.25349 -21512340.15448  20211470.050    20211477.006
       249.000         219.000
  23258936.014    -9741355.79549  -7398511.05245  23258935.394    23258944.479
       219.000         162.000
  24052780.496    -6844243.64049  -5317300.29445  24052780.696    24052791.871
       214.000         155.000
  21997993.196   -18759360.70249 -14602553.92447  21997992.337    21998000.911
       231.000         188.000
  21670002.095   -17528489.80149 -13641018.01247  21670001.970    21670009.205
       237.000         195.000
  20689723.669   -23191439.40549 -17834913.67248  20689723.323    20689730.936
       244.000         214.000
 00  2  4  1  2 30.0000000  0  7G 6G 5G 4G 9G10G30G24
  23415659.510   -11495543.80549  -8947138.69046  23415657.598    23415668.549
       218.000         165.000
  20211351.381   -27625715.74049 -21512828.31048  20211350.823    20211357.750
       249.000         219.000
  23277194.619    -9645406.29449  -7323745.21645  23277194.943    23277203.673
       219.000         162.000
  24070107.778    -6753188.57549  -5246348.37145  24070107.801    24070118.064
       215.000         155.000
  21982733.393   -18839550.95549 -14665039.72847  21982732.421    21982741.397
       231.000         189.000
  21655995.576   -17602094.26449 -13698372.05747  21655995.216    21656002.762
       238.000         195.000
  20698582.058   -23144888.25749 -17798640.04048  20698581.890    20698589.426
       245.000         213.000
 00  2  4  1  3  0.0000000  0  7G 6G 5G 4G 9G10G30G24
  23402759.427   -11563333.33149  -8999961.54946  23402758.937    23402768.243
       218.000         164.000
  20211341.729   -27625766.32649 -21512867.71148  20211341.290    20211348.079
       249.000         219.000
  23295470.615    -9549365.38649  -7248908.15545  23295470.112    23295479.087
       219.000         162.000
  24087440.678    -6662104.17849  -5175373.58245  24087441.531    24087451.134
       215.000         155.000
  21967544.678   -18919367.66949 -14727234.46647  21967543.526    21967552.127
       232.000         189.000
  21642066.191   -17675293.26549 -13755410.16947  21642066.229    21642073.205
       237.000         195.000
  20707506.160   -23097991.68649 -17762097.24748  20707505.902    20707513.558
       244.000         213.000
 00  2  4  1  3 30.0000000  0  7G 6G 5G 4G 9G10G30G24
  23389869.955   -11631067.31249  -9052741.13246  23389869.540    23389879.391
       219.000         164.000
  20211437.205   -27625264.50249 -21512476.66148  20211436.594    20211443.465
       249.000         219.000
  23313765.186    -9453226.72949  -7173994.91645  23313765.516    23313773.939
       218.000         162.000
  24104775.096    -6571011.87849  -5104392.64145  24104774.932    24104785.761
       216.000         156.000
  21952427.418   -18998808.73949 -14789136.48947  21952426.341    21952435.061
       232.000         189.000
  21628215.007   -17748081.49549 -13812128.19247  21628214.978    21628222.158
       237.000         195.000
  20716494.980   -23050754.96349 -17725289.39848  20716494.909    20716502.559
       244.000         213.000
 00  2  4  1  4  0.0000000  0  7G 6G 5G 4G 9G10G30G24
  23376989.638   -11698753.44249  -9105483.43746  23376989.017    23376998.313
       219.000         164.000
  20211632.220   -27624239.72249 -21511678.11748  20211631.699    20211638.463
       249.000         219.000
  23332074.343    -9357011.37149  -7099021.91145  23332074.051    23332082.804
       220.000         162.000
  24122107.004    -6479932.47049  -5033421.74645  24122107.762    24122117.653
       215.000         156.000
  21937381.574   -19077874.64949 -14850746.19347  21937380.118    21937389.189
       232.000         189.000
  21614441.236   -17820462.83149 -13868529.15847  21614441.434    21614447.982
       237.000         196.000
  20725543.461   -23003204.93749 -17688237.42648  20725542.885    20725550.621
       244.000         213.000
 00  2  4  1  4 30.0000000  0  7G 6G 5G 4G 9G10G30G24
  23364116.198   -11766403.01549  -9158197.25046  23364115.270    23364125.529
       219.000         164.000
  20211923.409   -27622709.48049 -21510485.70148  20211922.767    20211929.618
       249.000         219.000
  23350395.919    -9260730.69749  -7023998.01445  23350395.627    23350403.900
       219.000         162.000
  24139434.761    -6388874.93849  -4962467.90045  24139434.657    24139445.733
       214.000         156.000
  21922405.084   -19156576.40849 -14912072.13747  21922404.465    21922412.605
       232.000         190.000
  21600740.864   -17892458.45249 -13924629.56647  21600740.618    21600747.855
       238.000         196.000
  20734647.791   -22955361.13549 -17650956.53348  20734647.402    20734655.087
       244.000         213.000
 00  2  4  1  5  0.0000000  0  7G 6G 5G 4G 9G10G30G24
  23351246.998   -11834030.38049  -9210893.76446  23351247.038    23351255.711
       220.000         164.000
  20212309.837   -27620678.49549 -21508903.10248  20212309.319    20212316.191
       249.000         219.000
  23368726.739    -9164401.56549  -6948936.36145  23368726.587    23368734.982
       219.000         162.000
  24156759.369    -6297833.75349  -4891526.78845  24156758.854    24156769.643
       214.000         155.000
  21907495.754   -19234925.08649 -14973122.95547  21907494.947    21907503.044
       232.000         190.000
  21587111.776   -17964079.48549 -13980438.09447  21587111.933    21587118.727
       239.000         196.000
  20743808.457   -22907221.48849 -17613445.11648  20743808.160    20743815.727
       245.000         213.000
 00  2  4  1  5 30.0000000  0  7G 6G 5G 4G 9G10G30G24
  23338380.733   -11901642.56749  -9263578.46146  23338380.246    23338389.124
       220.000         164.000
  20212794.001   -27618134.29649 -21506920.59048  20212793.454    20212800.419
       249.000         219.000
  23387064.208    -9068037.62949  -6873847.58745  23387064.322    23387072.944
       218.000         162.000
  24174079.992    -6206813.21549  -4820601.76945  24174080.412    24174091.171
       214.000         155.000
  21892654.167   -19312917.68449 -15033896.30847  21892653.451    21892661.887
       232.000         190.000
  21573553.942   -18035326.28849 -14035955.00647  21573553.670    21573561.104
       237.000         197.000
  20753026.896   -22858778.28149 -17575697.15348  20753026.749    20753034.260
       244.000         213.000
 00  2  4  1  6  0.0000000  0  7G 6G 5G 4G 9G10G30G24
  23325518.677   -11969232.35849  -9316245.70246  23325518.520    23325526.818
       221.000         165.000
  20213380.381   -27615052.77449 -21504519.38948  20213379.818    20213386.833
       249.000         219.000
  23405407.190    -8971644.56049  -6798736.11245  23405407.034    23405415.445
       218.000         162.000
  24191401.369    -6115789.19149  -4749674.03345  24191402.061    24191412.560
       214.000         155.000
  21877882.160   -19390544.77849 -15094384.85347  21877881.268    21877890.037
       232.000         190.000
  21560066.837   -18106201.14049 -14091182.09147  21560066.846    21560074.161
       238.000         197.000
  20762304.919   -22810021.86249 -17537705.12847  20762304.516    20762312.207
       244.000         212.000
 00  2  4  1  6 30.0000000  0  7G 6G 5G 4G 9G10G30G24
  23312663.683   -12036785.23649  -9368884.18446  23312662.729    23312672.377
       220.000         165.000
  20214071.614   -27611420.39749 -21501688.95348  20214071.170    20214078.024
       249.000         219.000
  23423757.921    -8875210.87149  -6723592.96646  23423758.350    23423766.377
       219.000         163.000
  24208727.223    -6024741.72849  -4678728.02945  24208726.767    24208737.638
       213.000         155.000
  21863181.272   -19467798.08149 -15154582.13547  21863180.375    21863188.817
       233.000         191.000
  21546649.008   -18176711.82049 -14146125.41247  21546649.005    21546655.860
       238.000         197.000
  20771646.944   -22760928.96549 -17499450.91747  20771646.858    20771654.404
       244.000         212.000
 00  2  4  1  7  0.0000000  0  7G 6G 5G 4G 9G10G30G24
  23299818.918   -12104284.43749  -9421480.83946  23299818.541    23299827.278
       221.000         166.000
  20214865.933   -27607246.21649 -21498436.32648  20214865.230    20214872.029
       249.000         219.000
  23442117.544    -8778730.37149  -6648413.35646  23442117.220    23442125.943
       218.000         163.000
  24226056.791    -5933674.62149  -4607766.71945  24226057.110    24226067.603
       214.000         156.000
  21848554.834   -19544659.92649 -15214474.38247  21848553.831    21848562.545
       233.000         191.000
  21533301.698   -18246852.21949 -14200780.19747  21533301.705    21533308.646
       237.000         197.000
  20781055.075   -22711488.97149 -17460926.23547  20781054.975    20781062.501
       244.000         212.000
 00  2  4  1  7 30.0000000  0  7G 6G 5G 4G 9G10G30G24
  23286983.297   -12171735.74349  -9474040.16146  23286982.477    23286991.893
       221.000         167.000
  20215759.574   -27602549.85649 -21494776.81148  20215758.941    20215765.897
       249.000         219.000
  23460485.431    -8682206.53949  -6573199.98446  23460485.684    23460494.102
       220.000         163.000
  24243387.752    -5842600.06849  -4536799.61145  24243387.962    24243398.445
       212.000         157.000
  21834003.367   -19621128.00949 -15274059.80947  21834002.475    21834011.070
       234.000         191.000
  21520021.799   -18316638.32249 -14255158.91347  21520021.769    21520028.785
       238.000         198.000
  20790525.056   -22661723.81749 -17422148.18747  20790524.819    20790532.526
       244.000         212.000
 00  2  4  1  8  0.0000000  0  7G 6G 5G 4G 9G10G30G24
  23274156.639   -12239139.64049  -9526562.54846  23274155.437    23274164.665
       222.000         167.000
  20216750.743   -27597341.11349 -21490718.03448  20216750.055    20216757.022
       249.000         219.000
  23478860.653    -8585644.16649  -6497956.56545  23478860.983    23478869.330
       218.000         162.000
  24260718.307    -5751527.85549  -4465834.32145  24260718.604    24260729.129
       213.000         158.000
  21819527.199   -19697200.36249 -15333336.86847  21819526.246    21819534.717
       234.000         191.000
  21506806.922   -18386082.77449 -14309271.40047  21506806.917    21506813.981
       238.000         198.000
  20800053.188   -22611653.18649 -17383132.09747  20800052.943    20800060.454
       244.000         212.000
 00  2  4  1  8 30.0000000  0  7G 6G 5G 4G 9G10G30G24
  23261335.514   -12306514.71349  -9579062.47646  23261335.802    23261343.199
       222.000         168.000
  20217836.109   -27591637.33449 -21486273.51648  20217835.484    20217842.294
       249.000         219.000
  23497244.371    -8489036.83149  -6422678.12245  23497244.466    23497253.507
       218.000         162.000
  24278042.886    -5660486.80449  -4394893.31645  24278043.580    24278054.013
       212.000         158.000
  21805126.916   -19772874.14349 -15392303.35347  21805126.105    21805134.625
       234.000         192.000
  21493656.687   -18455187.45749 -14363119.13647  21493656.611    21493663.324
       238.000         198.000
  20809636.548   -22561292.13149 -17343889.70747  20809636.319    20809643.774
       244.000         212.000
 00  2  4  1  9  0.0000000  0  7G 6G 5G 4G 9G10G30G24
  23248515.880   -12373881.66549  -9631556.07546  23248515.178    23248524.545
       223.000         168.000
  20219017.284   -27585430.35049 -21481436.88948  20219016.876    20219023.722
       249.000         219.000
  23515635.892    -8392388.66249  -6347367.85445  23515636.164    23515644.897
       219.000         162.000
  24295354.969    -5569511.42349  -4324003.48645  24295354.526    24295365.800
       212.000         158.000
  21790800.673   -19848158.69449 -15450966.54947  21790799.833    21790807.888
       234.000         192.000
  21480571.431   -18523950.45149 -14416700.61847  21480571.420    21480578.345
       238.000         198.000
  20819272.788   -22510653.51949 -17304431.03747  20819272.578    20819280.035
       244.000         212.000
 00  2  4  1  9 30.0000000  0  7G 6G 5G 4G 9G10G30G24
  23235696.668   -12441246.79649  -9684048.24446  23235696.142    23235704.763
       223.000         169.000
  20220302.576   -27578675.83549 -21476173.61648  20220301.996    20220308.817
       249.000         219.000
  23534034.984    -8295700.82549  -6272026.67845  23534034.607    23534043.689
       218.000         161.000
  24312656.044    -5478593.64149  -4253158.55545  24312656.508    24312667.078
       211.000         158.000
  21776548.293   -19923054.88449 -15509327.12447  21776547.430    21776555.594
       234.000         192.000
  21467552.965   -18592362.80849 -14470008.88247  21467553.082    21467559.793
       238.000         199.000
  20828961.860   -22459737.16649 -17264755.94847  20828961.660    20828969.072
       244.000         211.000
 00  2  4  1 10  0.0000000  0  7G 6G 5G 4G 9G10G30G24
  23222881.506   -12508590.21849  -9736523.49046  23222881.304    23222890.158
       222.000         169.000
  20221700.103   -27571331.66949 -21470450.87148  20221699.509    20221706.644
       249.000         219.000
  23552443.753    -8198961.98249  -6196645.74845  23552443.483    23552452.141
       217.000         160.000
  24329949.790    -5387714.43649  -4182343.66345  24329949.526    24329961.210
       212.000         158.000
  21762373.499   -19997543.47849 -15567370.08947  21762372.583    21762380.918
       234.000         192.000
  21454608.851   -18660384.30649 -14523012.58047  21454608.853    21454615.884
       238.000         199.000
  20838709.116   -22408514.96149 -17224842.52447  20838708.902    20838716.313
       243.000         211.000
 00  2  4  1 10 30.0000000  0  7G 6G 5G 4G 9G10G30G24
  23210071.278   -12575907.68649  -9788978.52046  23210071.352    23210078.919
       222.000         170.000
  20223212.619   -27563383.36949 -21464257.37448  20223211.812    20223218.829
       249.000         219.000
  23570864.216    -8102161.77549  -6121217.01845  23570863.841    23570872.731
       218.000         159.000
  24347237.589    -5296866.80249  -4111553.37845  24347238.018    24347248.556
       210.000         157.000
  21748276.896   -20071621.41749 -15625093.06747  21748275.862    21748284.183
       234.000         193.000
  21441748.070   -18727967.76849 -14575674.95347  21441747.877    21441754.688
       239.000         199.000
  20848518.642   -22356965.47349 -17184674.08047  20848518.411    20848525.770
       244.000         211.000
 00  2  4  1 11  0.0000000  0  7G 6G 5G 4G 9G10G30G24
  23197273.249   -12643161.35149  -9841383.83046  23197272.972    23197281.550
       222.000         170.000
  20224842.499   -27554818.09149 -21457583.11848  20224842.023    20224848.703
       249.000         219.000
  23589295.917    -8005302.39949  -6045742.17545  23589296.580    23589304.211
       215.000         158.000
  24364524.489    -5206023.59749  -4040766.54545  24364524.231    24364535.741
       209.000         156.000
  21734262.401   -20145267.79649 -15682479.77147  21734261.344    21734270.056
       235.000         193.000
  21428973.794   -18795096.71749 -14627983.16047  21428973.810    21428980.741
       239.000         200.000
  20858394.267   -22305068.74349 -17144235.05847  20858394.084    20858401.630
       244.000         211.000
 00  2  4  1 11 30.0000000  0  7G 6G 5G 4G 9G10G30G24
  23184488.759   -12710343.86949  -9893733.70146  23184488.023    23184497.535
       223.000         171.000
  20226583.962   -27545666.62649 -21450452.09048  20226583.488    20226590.313
       249.000         219.000
  23607736.378    -7908397.02949  -5970231.48645  23607736.034    23607744.917
       216.000         157.000
  24381814.823    -5115162.58949  -3969965.83845  24381814.611    24381825.688
       209.000         154.000
  21720333.130   -20218466.17649 -15739517.38647  21720332.087    21720340.535
       235.000         193.000
  21416286.274   -18861769.87249 -14679936.20347  21416286.264    21416293.074
       239.000         200.000
  20868334.341   -22252833.36149 -17103532.15047  20868334.243    20868341.827
       244.000         211.000
 00  2  4  1 12  0.0000000  0  7G 6G 5G 4G 9G10G30G24
  23171715.559   -12777466.98349  -9946037.28046  23171714.766    23171723.716
       223.000         171.000
  20228426.779   -27535982.52649 -21442906.01648  20228426.162    20228433.013
       249.000         219.000
  23626184.095    -7811453.56549  -5894691.11245  23626184.393    23626192.176
       213.000         157.000
  24399105.337    -5024300.55249  -3899164.33145  24399105.111    24399116.555
       207.000         153.000
  21706487.783   -20291223.60249 -15796211.40047  21706486.772    21706495.109
       235.000         194.000
  21403685.063   -18927989.44849 -14731535.80547  21403685.207    21403692.015
       239.000         200.000
  20878336.785   -22200270.15049 -17062573.78847  20878336.548    20878344.106
       244.000         211.000
 00  2  4  1 12 30.0000000  0  7G 6G 5G 4G 9G10G30G24
  23158948.923   -12844555.36049  -9998313.79246  23158948.494    23158957.255
       225.000         171.000
  20230362.125   -27525812.05049 -21434980.95148  20230361.502    20230368.462
       249.000         219.000
  23644637.173    -7714481.98949  -5819128.84545  23644637.548    23644645.881
       215.000         155.000
  24416391.733    -4933459.95349  -3828379.54245  24416391.744    24416403.013
       207.000         151.000
  21692722.389   -20363560.84249 -15852577.99847  21692721.411    21692729.879
       235.000         194.000
  21391164.397   -18993785.79649 -14782805.62047  21391164.405    21391171.094
       239.000         200.000
  20888396.475   -22147405.89549 -17021380.84547  20888396.204    20888403.540
       244.000         211.000
 00  2  4  1 13  0.0000000  0  7G 6G 5G 4G 9G10G30G24
  23146183.072   -12911639.85449 -10050587.28046  23146182.431    23146190.906
       223.000         171.000
  20232385.826   -27515177.42549 -21426694.21048  20232385.161    20232391.925
       248.000         219.000
  23663094.116    -7617489.91649  -5743550.59145  23663094.600    23663102.579
       214.000         154.000
  24433670.492    -4842659.80949  -3757626.27545  24433669.443    24433681.097
       204.000         149.000
  21679036.454   -20435480.62649 -15908619.31647  21679035.616    21679043.724
       236.000         194.000
  21378714.571   -19059209.88249 -14833785.35747  21378714.504    21378721.478
       239.000         200.000
  20898507.118   -22094274.06649 -16979979.40047  20898506.975    20898514.368
       244.000         211.000
 00  2  4  1 13 30.0000000  0  7G 6G 5G 4G 9G10G30G24
  23133410.898   -12978757.37249 -10102886.49746  23133410.583    23133418.725
       223.000         172.000
  20234498.369   -27504075.83549 -21418043.60448  20234497.919    20234504.675
       249.000         219.000
  23681554.736    -7520478.75649  -5667957.47545  23681555.101    23681563.062
       213.000         153.000
  24450935.787    -4751930.00449  -3686927.81645  24450935.360    24450946.740
       203.000         147.000
  21665424.449   -20507011.85149 -15964357.85747  21665423.539    21665432.011
       235.000         195.000
  21366336.034   -19124259.28349 -14884473.13647  21366335.923    21366342.968
       239.000         201.000
  20908665.462   -22040891.62349 -16938382.67447  20908665.172    20908672.828
       244.000         211.000
 00  2  4  1 14  0.0000000  0  7G 6G 5G 4G 9G10G30G24
  23120633.481   -13045902.67249 -10155207.35346  23120632.709    23120641.457
       222.000         172.000
  20236703.182   -27492489.34949 -21409015.15648  20236702.532    20236709.326
       249.000         219.000
  23700020.912    -7423438.21049  -5592341.44745  23700020.667    23700029.161
       212.000         153.000
  24468184.518    -4661286.92249  -3616296.94645  24468183.979    24468196.908
       203.000         145.000
  21651885.760   -20578157.84949 -16019796.22247  21651884.732    21651893.135
       236.000         195.000
  21354031.537   -19188919.48049 -14934857.63447  21354031.482    21354038.346
       239.000         201.000
  20918872.727   -21987251.91649 -16896585.48347  20918872.536    20918880.007
       243.000         211.000
 00  2  4  1 14 30.0000000  0  7G 6G 5G 4G 9G10G30G24
  23107853.814   -13113059.56949 -10207537.26046  23107853.216    23107862.472
       223.000         172.000
  20239005.412   -27480390.92249 -21399587.79448  20239004.938    20239011.636
       249.000         219.000
  23718493.230    -7326365.23449  -5516700.15045  23718493.099    23718501.125
       211.000         151.000
  24485415.558    -4570737.48849  -3545739.04645  24485415.060    24485426.620
       203.000         145.000
  21638423.045   -20648904.49449 -16074923.40747  21638422.252    21638430.341
       236.000         195.000
  21341802.868   -19253181.31449 -14984931.72247  21341802.977    21341809.923
       240.000         201.000
  20929128.105   -21933359.39649 -16854591.29347  20929128.046    20929135.253
       244.000         211.000
 00  2  4  1 15  0.0000000  0  7G 6G 5G 4G 9G10G30G24
  23095076.862   -13180202.26249 -10259856.10146  23095076.721    23095084.853
       223.000         172.000
  20241411.150   -27467748.69949 -21389736.69848  20241410.503    20241417.453
       248.000         219.000
  23736969.593    -7229271.17449  -5441042.43345  23736968.978    23736977.587
       212.000         151.000
  24502628.688    -4480282.09249  -3475254.39245  24502628.693    24502638.959
       206.000         145.000
  21625040.207   -20719231.56749 -16129723.65047  21625039.397    21625047.641
       236.000         196.000
  21329652.937   -19317029.33149 -15034683.35647  21329652.959    21329659.798
       239.000         201.000
  20939432.644   -21879208.59849 -16812395.85247  20939432.542    20939440.117
       244.000         210.000
 00  2  4  1 15 30.0000000  0  7G 6G 5G 4G 9G10G30G24
  23082308.424   -13247300.33649 -10312140.16446  23082307.841    23082316.877
       223.000         173.000
  20243923.745   -27454544.77949 -21379447.91248  20243923.154    20243929.983
       249.000         219.000
  23755447.249    -7132170.19549  -5365379.31745  23755446.716    23755455.805
       211.000         151.000
  24519828.256    -4389897.98749  -3404825.29845  24519827.697    24519840.488
       207.000         146.000
  21611738.147   -20789134.02249 -16184193.02347  21611737.096    21611745.571
       236.000         196.000
  21317588.263   -19380429.26349 -15084085.82647  21317588.351    21317595.035
       239.000         201.000
  20949790.148   -21824779.62849 -16769983.64447  20949789.922    20949797.059
       244.000         210.000
 00  2  4  1 16  0.0000000  0  7G 6G 5G 4G 9G10G30G24
  23069552.060   -13314334.78549 -10364374.66646  23069551.372    23069560.822
       225.000         173.000
  20246543.673   -27440776.91549 -21368719.69148  20246543.160    20246549.911
       248.000         219.000
  23773926.229    -7035062.39749  -5289710.87845  23773926.223    23773934.758
       210.000         150.000
  24537016.906    -4299571.10749  -3334440.79345  24537016.747    24537028.595
       210.000         146.000
  21598521.353   -20858588.56949 -16238313.37247  21598520.086    21598528.836
       236.000         196.000
  21305607.709   -19443387.18249 -15133143.86947  21305607.655    21305614.331
       239.000         201.000
  20960201.329   -21770068.24149 -16727351.37547  20960201.175    20960208.680
       244.000         210.000
 00  2  4  1 16 30.0000000  0  7G 6G 5G 4G 9G10G30G24
  23056808.401   -13381302.67849 -10416557.30846  23056808.514    23056816.466
       225.000         174.000
  20249274.979   -27426423.75049 -21357535.39148  20249274.419    20249281.257
       249.000         219.000
  23792405.567    -6937952.79549  -5214041.03045  23792406.060    23792414.085
       212.000         149.000
  24554197.868    -4209285.02149  -3264088.07445  24554198.302    24554209.931
       208.000         147.000
  21585391.394   -20927586.60749 -16292078.00247  21585390.495    21585398.444
       236.000         196.000
  21293709.415   -19505912.72549 -15181865.00247  21293709.552    21293715.994
       240.000         201.000
  20970667.713   -21715067.03749 -16684493.27547  20970667.349    20970674.785
       244.000         210.000
 00  2  4  1 17  0.0000000  0  7G 6G 5G 4G 9G10G30G24
  23044077.202   -13448205.14049 -10468688.96846  23044076.508    23044085.104
       225.000         174.000
  20252117.391   -27411486.64549 -21345896.07048  20252116.931    20252123.695
       248.000         219.000
  23810884.381    -6840846.19749  -5138373.50745  23810884.817    23810893.001
       211.000         150.000
  24571374.964    -4119019.27149  -3193751.19845  24571375.001    24571386.447
       212.000         146.000
  21572348.236   -20996128.51249 -16345487.19647  21572347.185    21572355.591
       236.000         197.000
  21281892.374   -19568011.51149 -15230253.59847  21281892.482    21281899.011
       240.000         202.000
  20981193.162   -21659755.30049 -16641393.19847  20981192.972    20981200.444
       243.000         210.000
 00  2  4  1 17 30.0000000  0  7G 6G 5G 4G 9G10G30G24
  23031357.527   -13515046.91049 -10520773.33646  23031356.853    23031365.537
       226.000         175.000
  20255068.745   -27395977.11449 -21333810.70948  20255068.238    20255074.999
       248.000         219.000
  23829366.569    -6743721.73449  -5062692.08945  23829366.903    23829374.293
       213.000         150.000
  24588549.594    -4028766.37549  -3123424.33045  24588549.332    24588560.457
       213.000         146.000
  21559391.346   -21064217.25149 -16398543.27847  21559390.365    21559398.598
       236.000         197.000
  21270157.437   -19629678.72649 -15278305.90747  21270157.466    21270164.196
       239.000         202.000
  20991778.455   -21604129.08449 -16598048.07347  20991778.254    20991785.654
       243.000         210.000
 00  2  4  1 18  0.0000000  0  7G 6G 5G 4G 9G10G30G24
  23018647.977   -13581835.89649 -10572816.58646  23018646.613    23018655.659
       225.000         175.000
  20258125.634   -27379912.86849 -21321293.09848  20258124.862    20258131.789
       248.000         219.000
  23847852.713    -6646576.43049  -4986994.42045  23847852.795    23847860.548
       212.000         150.000
  24605716.559    -3938553.75249  -3053128.83445  24605716.257    24605727.766
       212.000         147.000
  21546522.090   -21131845.13349 -16451240.24947  21546520.994    21546529.544
       236.000         197.000
  21258502.687   -19690924.55849 -15326029.85847  21258502.795    21258509.344
       240.000         202.000
  21002419.672   -21548208.98249 -16554473.94647  21002419.448    21002426.995
       243.000         210.000
 00  2  4  1 18 30.0000000  0  7G 6G 5G 4G 9G10G30G24
  23005947.542   -13648576.38949 -10624822.05146  23005947.254    23005955.465
       225.000         175.000
  20261284.112   -27363314.74849 -21308359.48448  20261283.475    20261290.432
       248.000         218.000
  23866340.646    -6549421.51249  -4911289.26545  23866340.696    23866348.721
       213.000         151.000
  24622873.829    -3848392.26849  -2982873.17845  24622874.429    24622885.819
       214.000         147.000
  21533739.540   -21199017.47549 -16503582.25547  21533738.473    21533746.743
       237.000         197.000
  21246930.554   -19751736.23849 -15373415.51647  21246930.626    21246937.192
       240.000         203.000
  21013113.403   -21492013.10849 -16510684.93547  21013113.194    21013120.637
       243.000         209.000
 00  2  4  1 19  0.0000000  0  7G 6G 5G 4G 9G10G30G24
  22993253.300   -13715284.45049 -10676802.24546  22993252.962    22993261.593
       225.000         176.000
  20264538.512   -27346212.68249 -21295033.18648  20264537.992    20264544.823
       248.000         218.000
  23884831.293    -6452252.68849  -4835573.26345  23884832.195    23884839.406
       214.000         151.000
  24640015.344    -3758313.42049  -2912681.93145  24640015.932    24640026.479
       214.000         147.000
  21521042.949   -21265738.13549 -16555572.29847  21521041.813    21521050.269
       237.000         197.000
  21235442.611   -19812105.25749 -15420456.24047  21235442.729    21235449.369
       240.000         203.000
  21023854.462   -21435568.43649 -16466702.05447  21023854.309    21023861.606
       243.000         209.000
 00  2  4  1 19 30.0000000  0  7G 6G 5G 4G 9G10G30G24
  22980562.422   -13781974.81549 -10728768.65146  22980562.358    22980570.361
       225.000         176.000
  20267887.955   -27328611.19649 -21281317.73148  20267887.483    20267894.352
       246.000         218.000
  23903324.245    -6355071.38549  -4759847.53645  23903324.533    23903332.123
       213.000         152.000
  24657134.199    -3668353.34049  -2842583.21645  24657133.722    24657145.878
       214.000         147.000
  21508431.323   -21332012.24549 -16607214.38047  21508430.324    21508438.598
       237.000         197.000
  21224040.056   -19872025.80149 -15467147.50947  21224040.093    21224046.724
       241.000         203.000
  21034637.223   -21378904.61349 -16422548.40747  21034637.004    21034644.399
       242.000         209.000
 00  2  4  1 20  0.0000000  0  7G 6G 5G 4G 9G10G30G24
  22967873.627   -13848654.39649 -10780726.65146  22967873.222    22967881.414
       226.000         176.000
  20271334.460   -27310499.60549 -21267204.79248  20271333.898    20271340.791
       246.000         218.000
  23921816.641    -6257893.00949  -4684124.09945  23921816.631    23921825.766
       214.000         152.000
  24674229.490    -3578517.39749  -2772581.23045  24674229.686    24674241.262
       213.000         147.000
  21495905.716   -21397834.43849 -16658504.32147  21495904.515    21495912.661
       236.000         198.000
  21212721.981   -19931502.32249 -15513492.78547  21212722.178    21212728.665
       240.000         203.000
  21045461.322   -21322023.33849 -16378225.31747  21045461.100    21045468.413
       242.000         209.000
 00  2  4  1 20 30.0000000  0  7G 6G 5G 4G 9G10G30G24
  22955188.461   -13915314.84849 -10832669.76046  22955188.014    22955196.641
       225.000         176.000
  20274881.145   -27291861.55149 -21252681.62648  20274880.652    20274887.576
       246.000         218.000
  23940309.687    -6160711.57249  -4608398.26445  23940310.048    23940318.145
       214.000         153.000
  24691303.065    -3488795.58149  -2702668.17445  24691303.137    24691314.059
       213.000         147.000
  21483465.768   -21463206.31749 -16709443.36647  21483464.807    21483472.892
       236.000         198.000
  21201489.468   -19990529.49649 -15559487.91747  21201489.464    21201496.089
       241.000         204.000
  21056330.995   -21264902.54749 -16333715.59247  21056330.706    21056338.178
       242.000         209.000
 00  2  4  1 21  0.0000000  0  7G 6G 5G 4G 9G10G30G24
  22942507.154   -13981955.08449 -10884597.11146  22942506.673    22942515.245
       224.000         176.000
  20278532.489   -27272673.41249 -21237729.81948  20278531.944    20278538.636
       246.000         218.000
  23958804.175    -6063522.20749  -4532666.25745  23958804.275    23958812.565
       214.000         153.000
  24708355.484    -3399185.04449  -2632841.83045  24708355.901    24708367.032
       213.000         146.000
  21471113.045   -21528119.92549 -16760025.31547  21471111.949    21471120.106
       237.000         198.000
  21190341.367   -20049112.93349 -15605137.28347  21190341.352    21190347.727
       241.000         204.000
  21067249.777   -21207523.85349 -16289004.90347  21067249.597    21067256.945
       242.000         208.000
 00  2  4  1 21 30.0000000  0  7G 6G 5G 4G 9G10G30G24
  22929833.290   -14048556.40749 -10936494.14146  22929832.917    22929841.105
       223.000         176.000
  20282291.296   -27252920.61149 -21222338.01448  20282290.862    20282297.593
       246.000         218.000
  23977299.432    -5966328.99749  -4456931.26245  23977299.011    23977307.923
       214.000         153.000
  24725392.500    -3309655.72649  -2563078.77345  24725391.997    24725404.218
       213.000         144.000
  21458851.298   -21592555.58049 -16810234.83647  21458850.467    21458858.356
       237.000         198.000
  21179277.832   -20107251.86249 -15650440.28247  21179277.901    21179284.156
       241.000         204.000
  21078221.891   -21149864.90649 -16244075.83847  21078221.491    21078229.106
       242.000         208.000
 00  2  4  1 22  0.0000000  0  7G 6G 5G 4G 9G10G30G24
  22917166.449   -14115120.71649 -10988362.32846  22917166.296    22917174.330
       223.000         176.000
  20286155.128   -27232615.92149 -21206516.17048  20286154.677    20286161.401
       246.000         218.000
  23995793.952    -5869139.51549  -4381199.16145  23995794.377    23995802.541
       215.000         154.000
  24742417.775    -3220187.63949  -2493363.42545  24742417.241    24742429.417
       209.000         143.000
  21446681.950   -21656505.50449 -16860065.86847  21446681.082    21446689.010
       237.000         198.000
  21168297.351   -20164954.34449 -15695403.19147  21168297.403    21168303.777
       241.000         204.000
  21089248.473   -21091919.51549 -16198923.57147  21089248.157    21089255.541
       242.000         208.000
 00  2  4  1 22 30.0000000  0  7G 6G 5G 4G 9G10G30G24
  22904507.385   -14181644.10349 -11040198.62946  22904506.600    22904515.184
       224.000         176.000
  20290121.693   -27211771.65949 -21190273.88248  20290121.351    20290128.095
       247.000         218.000
  24014288.671    -5771949.05549  -4305466.30645  24014288.844    24014296.174
       213.000         154.000
  24759428.005    -3130798.21749  -2423709.36345  24759428.844    24759439.447
       210.000         142.000
  21434605.846   -21719965.59949 -16909515.21647  21434604.872    21434612.983
       236.000         198.000
  21157401.727   -20222211.03349 -15740018.72647  21157401.955    21157408.294
       241.000         205.000
  21100329.916   -21033686.01749 -16153546.80247  21100329.776    21100336.912
       242.000         208.000
 00  2  4  1 23  0.0000000  0  7G 6G 5G 4G 9G10G30G24
  22891853.989   -14248137.33149 -11092011.43446  22891853.320    22891862.036
       224.000         176.000
  20294188.889   -27190398.32549 -21173619.33048  20294188.366    20294195.224
       247.000         218.000
  24032782.399    -5674763.77949  -4229737.49145  24032783.550    24032790.694
       214.000         155.000
  24776421.943    -3041494.58149  -2354122.17145  24776422.909    24776433.105
       210.000         142.000
  21422622.312   -21782939.12649 -16958585.41747  21422621.268    21422629.281
       237.000         199.000
  21146591.342   -20279019.70849 -15784285.16747  21146591.319    21146597.977
       242.000         205.000
  21111461.420   -20975189.49349 -16107965.07947  21111461.279    21111468.540
       242.000         207.000
 00  2  4  1 23 30.0000000  0  7G 6G 5G 4G 9G10G30G24
  22879207.040   -14314596.98449 -11143798.08246  22879206.245    22879215.570
       223.000         176.000
  20298354.666   -27168507.04049 -21156561.18348  20298354.132    20298360.836
       246.000         218.000
  24051274.291    -5577588.20049  -4154016.23045  24051274.059    24051282.352
       212.000         154.000
  24793399.377    -2952278.12349  -2284602.89945  24793399.617    24793410.661
       209.000         142.000
  21410730.044   -21845433.02949 -17007281.89247  21410728.981    21410737.263
       237.000         199.000
  21135866.140   -20335380.89149 -15828202.91447  21135866.274    21135872.750
       241.000         205.000
  21122640.617   -20916442.27649 -16062188.01347  21122640.360    21122647.798
       242.000         207.000
 00  2  4  1 24  0.0000000  0  7G 6G 5G 4G 9G10G30G24
  22866566.988   -14381020.71249 -11195556.74646  22866566.336    22866574.793
       225.000         177.000
  20302620.260   -27146091.10049 -21139094.20348  20302619.789    20302626.570
       247.000         218.000
  24069763.687    -5480425.59149  -4078305.06145  24069763.549    24069772.908
       212.000         154.000
  24810354.226    -2863179.96449  -2215175.79945  24810354.139    24810365.187
       212.000         142.000
  21398925.989   -21907463.49549 -17055617.24447  21398925.042    21398933.298
       237.000         199.000
  21125227.182   -20391288.68649 -15871767.36547  21125227.030    21125233.605
       241.000         205.000
  21133865.385   -20857455.68549 -16016224.41847  21133865.190    21133872.663
       242.000         207.000
 00  2  4  1 24 30.0000000  0  7G 6G 5G 4G 9G10G30G24
  22853938.572   -14447383.27149 -11247267.73846  22853937.728    22853946.246
       226.000         177.000
  20306989.377   -27123131.37749 -21121203.50148  20306988.994    20306995.743
       247.000         218.000
  24088250.231    -5383277.72949  -4002605.40145  24088250.911    24088258.949
       212.000         154.000
  24827286.427    -2774201.09149  -2145841.65945  24827285.518    24827296.733
       207.000         143.000
  21387209.426   -21969033.99249 -17103594.17747  21387208.434    21387216.418
       237.000         199.000
  21114676.393   -20446733.23049 -15914970.84847  21114676.434    21114682.789
       242.000         205.000
  21145133.106   -20798243.31249 -15970084.88947  21145133.129    21145140.395
       241.000         207.000
 00  2  4  1 25  0.0000000  0  7G 6G 5G 4G 9G10G30G24
  22841323.042   -14513677.84049 -11298925.76246  22841322.731    22841330.489
       225.000         178.000
  20311463.916   -27099617.49349 -21102880.98948  20311463.486    20311470.271
       246.000         218.000
  24106734.037    -5286144.58249  -3926917.19645  24106733.745    24106742.157
       210.000         153.000
  24844200.173    -2685318.91249  -2076582.87845  24844200.168    24844211.191
       210.000         144.000
  21375581.335   -22030139.77249 -17151209.00547  21375580.534    21375588.417
       236.000         200.000
  21104213.346   -20501716.73649 -15957815.08347  21104213.437    21104219.873
       241.000         205.000
  21156442.028   -20738814.41349 -15923776.64247  21156442.050    21156449.253
       241.000         207.000
 00  2  4  1 25 30.0000000  0  7G 6G 5G 4G 9G10G30G24
  22828719.344   -14579910.35249 -11350535.43646  22828718.797    22828727.831
       225.000         178.000
  20316043.637   -27075550.75349 -21084127.67748  20316043.116    20316050.012
       247.000         218.000
  24125213.692    -5189033.30649  -3851246.05345  24125213.522    24125221.371
       210.000         153.000
  24861093.681    -2596542.98949  -2007406.88045  24861094.492    24861104.858
       208.000         144.000
  21364042.320   -22090777.49349 -17198459.10847  21364041.312    21364049.186
       236.000         200.000
  21093836.866   -20556245.34349 -16000304.84947  21093837.170    21093843.456
       241.000         205.000
  21167793.412   -20679162.47049 -15877294.59147  21167793.002    21167800.461
       241.000         206.000
 00  2  4  1 26  0.0000000  0  7G 6G 5G 4G 9G10G30G24
  22816128.099   -14646077.70549 -11402094.34246  22816127.544    22816135.568
       225.000         179.000
  20320727.926   -27050934.62449 -21064946.27148  20320727.433    20320734.181
       247.000         218.000
  24143689.091    -5091944.17549  -3775592.15345  24143689.641    24143697.192
       212.000         152.000
  24877966.282    -2507877.30149  -1938316.77845  24877967.262    24877976.655
       205.000         144.000
  21352594.068   -22150938.15349 -17245337.47847  21352593.197    21352601.276
       238.000         200.000
  21083548.521   -20610310.75149 -16042433.68447  21083548.683    21083555.003
       242.000         205.000
  21179188.101   -20619282.80149 -15830635.09147  21179188.113    21179195.518
       242.000         206.000
 00  2  4  1 26 30.0000000  0  7G 6G 5G 4G 9G10G30G24
  22803546.958   -14712191.68349 -11453611.66046  22803546.723    22803555.632
       225.000         179.000
  20325514.844   -27025779.18949 -21045344.63048  20325514.369    20325521.227
       246.000         218.000
  24162161.055    -4994873.21849  -3699952.41645  24162161.324    24162169.895
       206.000         151.000
  24894820.061    -2419310.39949  -1869303.65945  24894820.185    24894831.457
       203.000         143.000
  21341237.046   -22210619.40049 -17291842.28247  21341235.920    21341244.184
       237.000         200.000
  21073348.548   -20663911.53249 -16084200.47847  21073348.934    21073354.996
       242.000         206.000
  21190626.974   -20559171.12249 -15783794.81247  21190626.964    21190634.269
       241.000         206.000
 00  2  4  1 27  0.0000000  0  7G 6G 5G 4G 9G10G30G24
  22790970.783   -14778279.75049 -11505108.78246  22790970.340    22790978.168
       226.000         179.000
  20330401.951   -27000097.21949 -21025332.70148  20330401.526    20330408.237
       246.000         218.000
  24180629.812    -4897818.97849  -3624325.69845  24180629.978    24180638.631
       207.000         150.000
  24911651.234    -2330862.16049  -1800383.02045  24911651.043    24911662.361
       204.000         142.000
  21329972.168   -22269816.42449 -17337969.76847  21329970.978    21329978.973
       237.000         200.000
  21063238.378   -20717040.47549 -16125599.60347  21063238.523    21063244.857
       242.000         206.000
  21202112.950   -20498812.04849 -15736761.75347  21202112.733    21202120.025
       241.000         206.000
 00  2  4  1 27 30.0000000  0  7G 6G 5G 4G 9G10G30G24
  22778399.797   -14844340.42549 -11556584.55446  22778399.412    22778407.472
       226.000         179.000
  20335390.717   -26973881.13949 -21004904.58148  20335390.282    20335396.990
       246.000         218.000
  24199095.202    -4800782.64149  -3548712.94145  24199094.945    24199103.840
       211.000         149.000
  24928458.352    -2242540.47649  -1731560.99545  24928458.937    24928469.757
       202.000         141.000
  21318799.727   -22328527.79849 -17383718.83447  21318799.003    21318806.964
       237.000         201.000
  21053221.613   -20769678.64149 -16166616.30847  21053221.558    21053227.953
       242.000         206.000
  21213647.457   -20438197.73349 -15689529.80947  21213647.577    21213654.892
       241.000         206.000
 00  2  4  1 28  0.0000000  0  7G 6G 5G 4G 9G10G30G24
  22765835.089   -14910367.96449 -11608034.51946  22765834.870    22765842.061
       227.000         179.000
  20340482.034   -26947125.96649 -20984056.39348  20340481.508    20340488.286
       247.000         218.000
  24217558.896    -4703755.04449  -3473106.99745  24217558.533    24217566.853
       205.000         148.000
  24945242.511    -2154339.34749  -1662832.91345  24945241.978    24945253.984
       201.000         140.000
  21307721.791   -22386742.51149 -17429080.88947  21307720.982    21307728.227
       238.000         201.000
  21043300.876   -20821812.18149 -16207239.79747  21043301.096    21043307.283
       242.000         206.000
  21225229.597   -20377333.27149 -15642102.94447  21225229.609    21225236.644
       241.000         206.000
 00  2  4  1 28 30.0000000  0  7G 6G 5G 4G 9G10G30G24
  22753276.108   -14976365.39449 -11659461.00446  22753275.575    22753283.659
       226.000         179.000
  20345678.383   -26919818.99749 -20962778.23148  20345677.810    20345684.676
       246.000         218.000
  24236021.125    -4606735.24649  -3397507.12445  24236021.671    24236029.035
       206.000         147.000
  24962003.802    -2066258.54149  -1594198.57845  24962004.934    24962015.154
       202.000         139.000
  21296740.753   -22444448.24449 -17474046.33847  21296739.944    21296747.901
       238.000         201.000
  21033477.679   -20873433.28849 -16247463.98547  21033477.856    21033484.258
       241.000         206.000
  21236857.738   -20316226.98849 -15594487.64847  21236857.719    21236865.109
       241.000         205.000
 00  2  4  1 29  0.0000000  0  7G 6G 5G 4G 9G10G30G24
  22740723.459   -15042329.87549 -11710861.81846  22740723.115    22740731.074
       226.000         179.000
  20350980.797   -26891954.48149 -20941065.61648  20350980.150    20350986.965
       246.000         218.000
  24254479.724    -4509734.77849  -3321922.32545  24254479.743    24254488.424
       205.000         147.000
  24978740.888    -1978304.64349  -1525663.12745  24978739.738    24978751.191
       200.000         139.000
  21285860.927   -22501621.84949 -17518597.13947  21285859.906    21285867.781
       238.000         202.000
  21023752.089   -20924541.47349 -16287288.49747  21023752.379    21023758.624
       242.000         206.000
  21248531.036   -20254883.54449 -15546687.55147  21248530.828    21248538.277
       241.000         205.000
 00  2  4  1 29 30.0000000  0  6G 6G 5G 4G10G30G24
  22728195.779   -15108162.90149 -11762160.18846  22728195.418    22728203.724
       227.000         179.000
  20356405.979   -26863444.87849 -20918850.33148  20356405.524    20356412.240
       247.000         218.000
  24272951.798    -4412663.44849  -3246282.29545  24272952.085    24272960.167
       209.000         145.000
  21275100.009   -22558170.57749 -17562661.02247  21275098.916    21275107.061
       238.000         202.000
  21014139.610   -20975055.21849 -16326649.80247  21014139.654    21014145.746
       243.000         206.000
  21260265.386   -20193218.91349 -15498637.17547  21260265.215    21260272.418
       241.000         205.000
 00  2  4  1 30  0.0000000  0  6G 6G 5G 4G10G30G24
  22715676.614   -15173951.40349 -11813423.86146  22715676.325    22715684.205
       226.000         180.000
  20361932.692   -26834401.63549 -20896219.22748  20361932.198    20361938.988
       246.000         218.000
  24291418.899    -4315618.15849  -3170662.56345  24291419.570    24291426.810
       208.000         144.000
  21264442.302   -22614177.09749 -17606302.40647  21264441.444    21264449.351
       238.000         202.000
  21004617.854   -21025092.12149 -16365639.54647  21004617.886    21004624.051
       242.000         207.000
  21272042.082   -20131331.82449 -15450413.45647  21272041.632    21272049.081
       241.000         205.000
 00  2  4  1 30 30.0000000  0  6G 6G 5G 4G10G30G24
  22703161.852   -15239716.41949 -11864669.21946  22703161.428    22703169.582
       227.000         179.000
  20367555.305   -26804854.52849 -20873195.50248  20367554.865    20367561.498
       246.000         218.000
  24309874.253    -4218634.66049  -3095090.96545  24309874.644    24309882.946
       207.000         144.000
  21253882.151   -22669670.91949 -17649544.28347  21253881.224    21253889.207
       238.000         202.000
  20995180.141   -21074687.53049 -16404285.26547  20995180.419    20995186.328
       242.000         207.000
  21283855.243   -20069252.92149 -15402040.27347  21283854.954    21283862.376
       240.000         205.000
 00  2  4  1 31  0.0000000  0  6G 6G 5G 4G10G30G24
  22690654.147   -15305444.44249 -11915885.75846  22690653.368    22690661.927
       227.000         180.000
  20373272.635   -26774809.76349 -20849783.99348  20373272.087    20373278.761
       246.000         217.000
  24328320.304    -4121699.99249  -3019557.42145  24328320.154    24328328.175
       207.000         144.000
  21243416.561   -22724667.75149 -17692398.89747  21243415.619    21243423.160
       239.000         202.000
  20985825.322   -21123847.11849 -16442591.38747  20985825.545    20985831.860
       242.000         207.000
  21295706.820   -20006972.38649 -15353509.97547  21295706.799    21295713.968
       241.000         205.000
 00  2  4  1 31 30.0000000  0  6G 6G 5G 4G10G30G24
  22678154.831   -15371128.39849 -11967067.95146  22678154.001    22678162.625
       227.000         180.000
  20379081.679   -26744283.03749 -20825996.93148  20379081.226    20379088.031
       247.000         217.000
  24346758.518    -4024806.17149  -2944055.70745  24346759.129    24346767.372
       209.000         144.000
  21233041.101   -22779190.98949 -17734884.47447  21233040.162    21233047.888
       239.000         203.000
  20976553.022   -21172573.12549 -16480559.64847  20976553.234    20976559.334
       242.000         207.000
  21307594.775   -19944500.73949 -15304830.75347  21307594.709    21307602.229
       241.000         205.000
 00  2  4  1 32  0.0000000  0  6G 6G 5G 4G10G30G24
  22665661.643   -15436780.17249 -12018225.06546  22665660.420    22665668.395
       227.000         180.000
  20384981.731   -26713278.09049 -20801837.22748  20384981.201    20384988.082
       246.000         217.000
  24365185.372    -3927972.16549  -2868600.59045  24365185.243    24365193.947
       210.000         144.000
  21222754.267   -22833248.40449 -17777007.06747  21222753.264    21222760.989
       239.000         203.000
  20967363.376   -21220864.98849 -16518189.61347  20967363.516    20967369.632
       242.000         207.000
  21319513.432   -19881867.56849 -15256025.66947  21319513.288    21319520.784
       240.000         204.000
 00  2  4  1 32 30.0000000  0  6G 6G 5G 4G10G30G24
  22653172.307   -15502411.44449 -12069366.21946  22653172.745    22653179.749
       226.000         180.000
  20390975.489   -26681780.59949 -20777293.72748  20390975.102    20390981.858
       246.000         218.000
  24383600.413    -3831200.38749  -2793193.96445  24383599.695    24383608.593
       211.000         144.000
  21212553.265   -22886854.78049 -17818778.20447  21212552.316    21212560.175
       239.000         203.000
  20958260.295   -21268701.82949 -16555465.02047  20958260.228    20958266.555
       243.000         207.000
  21331460.948   -19819082.97449 -15207102.59047  21331460.857    21331468.214
       240.000         204.000
 00  2  4  1 33  0.0000000  0  6G 6G 5G 4G10G30G24
  22640686.684   -15568023.44049 -12120492.32546  22640686.359    22640693.765
       228.000         181.000
  20397064.288   -26649783.96849 -20752361.27848  20397063.976    20397070.673
       246.000         218.000
  24402005.430    -3734481.52049  -2717828.55745  24402005.693    24402013.456
       212.000         143.000
  21202442.159   -22939988.68349 -17860181.17547  21202441.275    21202448.814
       238.000         203.000
  20949249.656   -21316052.83949 -16592361.84847  20949249.846    20949255.888
       242.000         208.000
  21343439.681   -19756134.28549 -15158051.64247  21343439.334    21343446.642
       241.000         204.000
 00  2  4  1 33 30.0000000  0  6G 6G 5G 4G10G30G24
  22628202.514   -15633627.69249 -12171612.41146  22628202.911    22628209.945
       228.000         181.000
  20403250.563   -26617274.92149 -20727029.55248  20403250.044    20403256.836
       246.000         218.000
  24420399.317    -3637820.90049  -2642508.54045  24420399.159    24420407.227
       212.000         143.000
  21192428.053   -22992612.78549 -17901186.90147  21192427.038    21192434.991
       239.000         203.000
  20940335.215   -21362898.31349 -16628864.76347  20940335.397    20940341.259
       243.000         208.000
  21355450.139   -19693018.91349 -15108870.81447  21355449.920    21355457.190
       241.000         204.000
 00  2  4  1 34  0.0000000  0  6G 6G 5G 4G10G30G24
  22615721.490   -15699215.68549 -12222719.82646  22615721.112    22615728.610
       228.000         182.000
  20409538.773   -26584230.22449 -20701280.43948  20409538.281    20409545.018
       246.000         218.000
  24438780.967    -3541224.61349  -2567238.63145  24438781.354    24438788.280
       212.000         143.000
  21182514.879   -23044706.62349 -17941779.43847  21182513.741    21182521.594
       239.000         203.000
  20931518.840   -21409228.55249 -16664966.19547  20931519.011    20931525.123
       243.000         208.000
  21367493.340   -19629731.31749 -15059555.78247  21367493.302    21367500.572
       241.000         204.000
 00  2  4  1 34 30.0000000  0  6G 6G 5G 4G10G30G24
  22603245.977   -15764774.59049 -12273804.57346  22603245.609    22603253.205
       228.000         182.000
  20415929.870   -26550644.65449 -20675109.86448  20415929.376    20415936.117
       246.000         218.000
  24457152.624    -3444680.47349  -2492009.34545  24457152.396    24457160.564
       212.000         141.000
  21172705.626   -23096254.21649 -17981946.32547  21172704.652    21172712.321
       239.000         203.000
  20922802.065   -21455035.20349 -16700659.63647  20922802.305    20922808.432
       243.000         208.000
  21379576.764   -19566232.54149 -15010076.19647  21379576.647    21379583.959
       241.000         204.000
 00  2  4  1 35  0.0000000  0  6G 6G 5G 4G10G30G24
  22590779.778   -15830284.56449 -12324851.19446  22590779.249    22590786.227
       227.000         182.000
  20422426.897   -26516502.54049 -20648505.62348  20422426.358    20422433.030
       246.000         217.000
  24475519.661    -3348160.89349  -2416799.22245  24475519.301    24475527.397
       211.000         141.000
  21163005.121   -23147230.36849 -18021667.93447  21163004.147    21163011.786
       239.000         204.000
  20914188.371   -21500300.28749 -16735931.08347  20914188.429    20914194.565
       243.000         208.000
  21391708.057   -19502482.15749 -14960400.55647  21391707.599    21391714.909
       241.000         203.000
 00  2  4  1 35 30.0000000  0  7G 6G 5G 4G10G30G17G24
  22578328.406   -15895716.39849 -12375836.93546  22578328.119    22578335.248
       228.000         183.000
  20429032.584   -26481789.49549 -20621456.49348  20429032.075    20429038.975
       246.000         217.000
  24493883.374    -3251658.84249  -2341602.74145  24493882.398    24493890.504
       212.000         141.000
  21153413.785   -23197632.90249 -18060942.56947  21153412.857    21153420.438
       239.000         204.000
  20905677.223   -21545026.28249 -16770782.46047  20905677.441    20905683.635
       243.000         208.000
  25070503.767    -2698102.61349  -2088061.14345  25070502.043    25070514.950
       195.000         136.000
  21403888.019   -19438475.85849 -14910525.49747  21403887.777    21403895.074
       241.000         203.000
 00  2  4  1 36  0.0000000  0  7G 6G 5G 4G10G30G17G24
  22565888.667   -15961087.10149 -12426775.03446  22565888.141    22565895.974
       228.000         183.000
  20435741.749   -26446532.50049 -20593983.50548  20435741.101    20435747.990
       246.000         217.000
  24512239.522    -3155196.44349  -2266437.17345  24512239.620    24512248.237
       211.000         141.000
  21143924.318   -23247499.97449 -18099799.96147  21143923.406    21143930.953
       239.000         204.000
  20897263.765   -21589239.27349 -16805234.09547  20897263.735    20897270.143
       243.000         209.000
  25053172.396    -2789178.62949  -2159029.24945  25053170.531    25053182.848
       195.000         135.000
  21416109.314   -19374252.56049 -14860481.35347  21416109.146    21416116.298
       241.000         203.000
 00  2  4  1 36 30.0000000  0  7G 6G 5G 4G10G30G17G24
  22553459.538   -16026402.25849 -12477669.86146  22553459.165    22553467.027
       228.000         183.000
  20442552.335   -26410742.63149 -20566095.29248  20442551.936    20442558.739
       246.000         217.000
  24530589.030    -3058769.11649  -2191298.91445  24530587.817    24530595.941
       213.000         140.000
  21134535.676   -23296837.48249 -18138244.70747  21134534.836    21134542.568
       239.000         204.000
  20888948.086   -21632938.32349 -16839285.26047  20888948.242    20888954.339
       243.000         209.000
  25035864.983    -2880128.52548  -2229899.06045  25035863.033    25035875.586
       193.000         133.000
  21428372.322   -19309809.82949 -14810266.22047  21428372.247    21428379.649
       241.000         203.000
 00  2  4  1 37  0.0000000  0  7G 6G 5G 4G10G30G17G24
  22541044.191   -16091644.89549 -12528508.18246  22541044.130    22541050.990
       228.000         183.000
  20449464.940   -26374416.80849 -20537789.45848  20449464.430    20449471.281
       246.000         217.000
  24548934.575    -2962362.09449  -2116176.49445  24548936.135    24548941.837
       213.000         140.000
  21125249.276   -23345637.63049 -18176270.73047  21125248.465    21125256.105
       239.000         204.000
  20880732.116   -21676113.32749 -16872928.08147  20880732.340    20880738.350
       243.000         209.000
  25018580.519    -2970957.54649  -2300674.66845  25018579.608    25018592.915
       195.000         132.000
  21440672.582   -19245171.56349 -14759898.72647  21440672.162    21440679.662
       241.000         203.000
 00  2  4  1 37 30.0000000  0  7G 6G 5G 4G10G30G17G24
  22528644.458   -16156805.46549 -12579282.55846  22528644.084    22528651.575
       229.000         184.000
  20456478.625   -26337559.53949 -20509069.51548  20456478.135    20456484.830
       246.000         217.000
  24567273.164    -2865991.90049  -2041082.74545  24567272.581    24567280.171
       213.000         139.000
  21116067.533   -23393887.76649 -18213868.17447  21116066.661    21116074.279
       239.000         204.000
  20872614.189   -21718773.10049 -16906169.42447  20872614.320    20872620.536
       243.000         209.000
  25001317.498    -3061674.15149  -2371362.69745  25001316.329    25001327.046
       197.000         133.000
  21453005.360   -19180362.36349 -14709398.03747  21453004.994    21453012.582
       241.000         202.000
 00  2  4  1 38  0.0000000  0  7G 6G 5G 4G10G30G17G24
  22516258.548   -16221893.48849 -12630000.40946  22516258.189    22516265.601
       229.000         184.000
  20463592.923   -26300173.69049 -20479937.68848  20463592.480    20463599.155
       246.000         217.000
  24585604.219    -2769661.08849  -1966019.70245  24585604.470    24585611.630
       209.000         139.000
  21106991.053   -23441584.81149 -18251034.64247  21106990.115    21106997.670
       239.000         204.000
  20864594.206   -21760918.16849 -16939009.70147  20864594.392    20864600.465
       243.000         209.000
  24984077.051    -3152272.51949  -2441958.57645  24984076.584    24984087.093
       199.000         135.000
  21465370.765   -19115381.67649 -14658763.72247  21465370.533    21465377.780
       241.000         202.000
 00  2  4  1 38 30.0000000  0  7G 6G 5G 4G10G30G17G24
  22503883.860   -16286922.51549 -12680672.29346  22503883.506    22503891.000
       229.000         184.000
  20470806.546   -26262265.77649 -20450399.05548  20470805.996    20470812.818
       246.000         217.000
  24603925.172    -2673383.47249  -1890998.10645  24603925.956    24603933.220
       211.000         139.000
  21098019.684   -23488729.30349 -18287770.54647  21098018.796    21098026.348
       239.000         205.000
  20856670.525   -21802557.18049 -16971455.64447  20856670.877    20856676.517
       243.000         209.000
  24966861.550    -3242739.86449  -2512452.35945  24966861.302    24966872.564
       201.000         136.000
  21477769.645   -19050225.04949 -14607992.31347  21477769.020    21477776.491
       240.000         202.000
 00  2  4  1 39  0.0000000  0  7G 6G 5G 4G10G30G17G24
  22491517.206   -16351909.38149 -12731311.32046  22491516.647    22491524.505
       229.000         184.000
  20478119.848   -26223834.09249 -20420452.28948  20478119.253    20478126.069
       246.000         217.000
  24622234.785    -2577165.64249  -1816023.10045  24622234.462    24622242.850
       209.000         138.000
  21089154.821   -23535314.21849 -18324070.42047  21089153.783    21089161.347
       240.000         205.000
  20848842.262   -21843694.90749 -17003510.97747  20848842.217    20848848.204
       244.000         209.000
  24949673.837    -3333061.05749  -2582832.25045  24949672.971    24949684.099
       202.000         138.000
  21490201.221   -18984896.61149 -14557087.02647  21490201.023    21490208.178
       241.000         201.000
 00  2  4  1 39 30.0000000  0  6G 6G 5G10G30G17G24
  22479157.438   -16416860.22449 -12781922.28246  22479157.343    22479164.217
       228.000         184.000
  20485535.841   -26184862.71249 -20390084.98248  20485535.399    20485542.185
       246.000         217.000
  21080398.073   -23581330.91349 -18359927.52747  21080397.205    21080404.723
       239.000         205.000
  20841110.413   -21884325.79549 -17035171.37547  20841110.569    20841116.644
       244.000         210.000
  24932517.352    -3423218.20749  -2653084.28345  24932516.238    24932526.824
       203.000         139.000
  21502669.550   -18919375.11449 -14506031.30247  21502669.602    21502676.771
       240.000         201.000
 00  2  4  1 40  0.0000000  0  6G 6G 5G10G30G17G24
  22466801.792   -16481789.27749 -12832516.27146  22466801.457    22466809.069
       229.000         184.000
  20493052.633   -26145361.72749 -20359304.99248  20493052.245    20493058.946
       246.000         216.000
  21071745.739   -23626799.06049 -18395357.19247  21071745.044    21071752.429
       240.000         205.000
  20833476.007   -21924444.95749 -17066433.02547  20833476.264    20833482.088
       244.000         210.000
  24915389.675    -3513224.05649  -2723218.43345  24915389.964    24915399.379
       206.000         139.000
  21515174.343   -18853661.89849 -14454826.18747  21515174.155    21515181.319
       239.000         201.000
 00  2  4  1 40 30.0000000  0  6G 6G 5G10G30G17G24
  22454450.979   -16546692.76349 -12883090.33646  22454450.697    22454457.853
       229.000         184.000
  20500669.667   -26105333.91349 -20328114.49148  20500669.162    20500675.967
       245.000         216.000
  21063196.731   -23671724.05149 -18430363.62147  21063195.923    21063203.264
       239.000         205.000
  20825938.906   -21964052.40449 -17097295.93947  20825939.122    20825944.891
       243.000         210.000
  24898288.947    -3603088.29849  -2793242.23945  24898287.554    24898298.601
       208.000         140.000
  21527716.380   -18787753.02249 -14403468.61547  21527716.332    21527723.484
       239.000         200.000
 00  2  4  1 41  0.0000000  0  6G 6G 5G10G30G17G24
  22442110.908   -16611539.59849 -12933620.25246  22442110.100    22442118.179
       230.000         185.000
  20508387.016   -26064778.80549 -20296513.10648  20508386.539    20508393.312
       246.000         216.000
  21054749.978   -23716111.72549 -18464951.35847  21054749.031    21054756.460
       240.000         205.000
  20818500.711   -22003140.12649 -17127753.87147  20818500.822    20818506.777
       244.000         210.000
  24881214.154    -3692816.09649  -2863159.71645  24881212.995    24881223.197
       210.000         140.000
  21540295.773   -18721647.74149 -14351957.99247  21540295.594    21540302.844
       240.000         200.000
 00  2  4  1 41 30.0000000  0  6G 6G 5G10G30G17G24
  22429786.229   -16676306.07849 -12984087.57146  22429786.112    22429793.540
       230.000         185.000
  20516202.648   -26023707.39249 -20264509.41548  20516202.189    20516208.861
       246.000         216.000
  21046404.985   -23759964.81249 -18499122.54047  21046404.337    21046411.487
       240.000         205.000
  20811164.631   -22041691.44049 -17157793.82647  20811164.960    20811170.811
       244.000         210.000
  24864163.854    -3782415.17849  -2932976.90445  24864162.538    24864172.918
       210.000         141.000
  21552909.640   -18655361.34149 -14300306.23847  21552909.511    21552916.559
       239.000         200.000
 00  2  4  1 42  0.0000000  0  6G 6G 5G10G30G17G24
  22417479.777   -16740976.50549 -13034480.03646  22417479.272    22417486.906
       229.000         186.000
  20524116.947   -25982117.53349 -20232101.73448  20524116.410    20524123.361
       246.000         216.000
  21038163.722   -23803272.56349 -18532868.77947  21038162.833    21038170.378
       239.000         205.000
  20803934.018   -22079688.38949 -17187401.80547  20803934.176    20803940.174
       244.000         210.000
  24847139.942    -3871875.65849  -3002686.09045  24847139.183    24847149.030
       211.000         141.000
  21565558.313   -18588891.88549 -14248511.84747  21565557.995    21565565.507
       239.000         199.000
 00  2  4  1 42 30.0000000  0  6G 6G 5G10G30G17G24
  22405190.529   -16805556.78849 -13084802.26346  22405190.359    22405197.657
       229.000         186.000
  20532129.290   -25940012.44849 -20199292.58148  20532128.813    20532135.515
       245.000         216.000
  21030027.139   -23846030.43149 -18566186.54147  21030026.256    21030033.535
       240.000         206.000
  20796807.681   -22117137.36649 -17216582.79447  20796807.870    20796813.977
       244.000         210.000
  24830145.199    -3961182.68249  -3072275.72645  24830143.919    24830154.532
       211.000         141.000
  21578240.351   -18522247.26649 -14196580.96147  21578239.995    21578247.502
       239.000         199.000
 00  2  4  1 43  0.0000000  0  6G 6G 5G10G30G17G24
  22392915.013   -16870064.76349 -13135068.14446  22392914.788    22392921.593
       230.000         186.000
  20540235.916   -25897411.76749 -20166097.24348  20540235.471    20540242.191
       246.000         216.000
  21021996.357   -23888232.10549 -18599070.90847  21021995.325    21022002.747
       240.000         206.000
  20789788.127   -22154025.25249 -17245326.57147  20789788.469    20789794.232
       244.000         211.000
  24813180.386    -4050332.39249  -3141742.78445  24813179.174    24813190.228
       212.000         140.000
  21590951.864   -18455447.71349 -14144529.34547  21590951.435    21590958.808
       237.000         199.000
 00  2  4  1 43 30.0000000  0  6G 6G 5G10G30G17G24
  22380650.095   -16934516.94649 -13185290.55046  22380650.188    22380656.929
       230.000         187.000
  20548437.285   -25854313.36349 -20132514.07248  20548436.713    20548443.723
       246.000         216.000
  21014074.508   -23929861.50449 -18631509.34547  21014073.729    21014081.103
       240.000         206.000
  20782876.631   -22190345.43449 -17273627.98047  20782876.874    20782882.910
       244.000         211.000
  24796247.745    -4139313.18749  -3211078.24745  24796245.966    24796256.405
       212.000         140.000
  21603692.709   -18388493.86249 -14092357.49747  21603692.315    21603699.757
       237.000         199.000
 00  2  4  1 44  0.0000000  0  6G 6G 5G10G30G17G24
  22368393.147   -16998927.28349 -13235480.35646  22368392.844    22368400.294
       231.000         187.000
  20556733.500   -25810716.56549 -20098542.53948  20556732.990    20556739.850
       245.000         216.000
  21006259.940   -23970927.18349 -18663508.51747  21006259.159    21006266.368
       240.000         206.000
  20776067.289   -22226128.63949 -17301510.96547  20776067.418    20776073.402
       244.000         211.000
  24779346.258    -4228130.28249  -3280286.19045  24779345.436    24779354.865
       213.000         140.000
  21616466.029   -18321369.41849 -14040052.71747  21616465.902    21616473.184
       237.000         198.000
 00  2  4  1 44 30.0000000  0  6G 6G 5G10G30G17G24
  22356143.443   -17063299.89349 -13285640.76647  22356143.204    22356150.122
       230.000         188.000
  20565122.302   -25766632.97249 -20064191.68548  20565121.782    20565128.599
       246.000         216.000
  20998551.393   -24011435.58449 -18695073.44547  20998550.566    20998557.785
       240.000         206.000
  20769358.257   -22261384.62849 -17328983.13147  20769358.482    20769364.260
       244.000         211.000
  24762474.282    -4316792.21749  -3349373.23945  24762472.697    24762483.446
       212.000         139.000
  21629270.343   -18254082.12349 -13987621.04247  21629270.218    21629277.552
       237.000         198.000
 00  2  4  1 45  0.0000000  0  6G 6G 5G10G30G17G24
  22343900.073   -17127638.92049 -13335775.00447  22343899.530    22343906.799
       230.000         188.000
  20573601.453   -25722074.92549 -20029471.12248  20573601.232    20573607.885
       246.000         216.000
  20990949.045   -24051386.01049 -18726203.59047  20990948.219    20990955.412
       240.000         206.000
  20762749.062   -22296115.92949 -17356046.45147  20762749.048    20762755.079
       244.000         211.000
  24745628.168    -4405318.17849  -3418354.35645  24745627.868    24745637.401
       211.000         139.000
  21642103.238   -18186644.83049 -13935072.48547  21642102.924    21642110.245
       237.000         198.000
 00  2  4  1 45 30.0000000  0  6G 6G 5G10G30G17G24
  22331664.748   -17191935.48549 -13385876.15747  22331664.550    22331671.578
       231.000         188.000
  20582173.622   -25677027.93449 -19994369.56948  20582173.138    20582179.739
       246.000         216.000
  20983451.468   -24090785.89449 -18756904.74847  20983450.649    20983457.975
       240.000         206.000
  20756234.978   -22330347.37549 -17382720.27947  20756235.277    20756241.079
       245.000         211.000
  24728805.678    -4493719.98949  -3487238.75445  24728804.475    24728813.673
       211.000         140.000
  21654964.744   -18119057.11049 -13882406.71747  21654964.650    21654971.513
       237.000         198.000
 00  2  4  1 46  0.0000000  0  6G 6G 5G10G30G17G24
  22319438.592   -17256184.08649 -13435939.93847  22319438.144    22319445.402
       231.000         188.000
  20590839.644   -25631487.62149 -19958883.61848  20590839.029    20590845.908
       246.000         216.000
  20976059.501   -24129630.54349 -18787173.24847  20976058.577    20976066.035
       240.000         206.000
  20749818.469   -22364066.04049 -17408994.53447  20749818.849    20749824.584
       244.000         211.000
  24712007.417    -4581994.72349  -3556024.17345  24712006.504    24712016.553
       210.000         140.000
  21667852.866   -18051329.30749 -13829631.78847  21667853.057    21667860.162
       237.000         198.000
 00  2  4  1 46 30.0000000  0  6G 6G 5G10G30G17G24
  22307223.943   -17320372.32449 -13485956.67147  22307223.401    22307230.709
       232.000         188.000
  20599601.601   -25585443.07349 -19923004.74848  20599601.213    20599608.021
       245.000         215.000
  20968778.252   -24167893.35749 -18816988.37047  20968777.308    20968784.715
       240.000         207.000
  20743507.472   -22397230.36949 -17434836.83747  20743507.768    20743513.702
       244.000         211.000
  24695234.815    -4670134.76549  -3624704.64445  24695233.506    24695243.865
       210.000         141.000
  21680764.789   -17983476.75549 -13776759.65347  21680764.339    21680771.824
       237.000         198.000
 00  2  4  1 47  0.0000000  0  6G 6G 5G10G30G17G24
  22295025.414   -17384475.59349 -13535907.19947  22295025.115    22295032.080
       231.000         188.000
  20608465.617   -25538862.31249 -19886708.05048  20608465.146    20608472.020
       245.000         215.000
  20961612.358   -24205550.33149 -18846331.41147  20961611.548    20961618.624
       240.000         207.000
  20737305.905   -22429819.83649 -17460231.19747  20737306.232    20737312.165
       245.000         211.000
  24678490.196    -4758127.53549  -3693270.35645  24678489.287    24678499.757
       209.000         141.000
  21693704.888   -17915476.08849 -13723772.10747  21693704.701    21693712.251
       236.000         197.000
 00  2  4  1 47 30.0000000  0  6G 6G 5G10G30G17G24
  22282848.284   -17448466.53549 -13585770.19947  22282848.505    22282855.089
       231.000         188.000
  20617436.505   -25491720.08349 -19849973.84748  20617435.896    20617442.677
       245.000         215.000
  20954562.809   -24242595.62149 -18875197.81647  20954561.929    20954569.000
       240.000         207.000
  20731217.988   -22461812.16449 -17485160.25947  20731218.166    20731224.353
       244.000         212.000
  24661777.591    -4845952.39449  -3761705.24245  24661776.248    24661786.545
       209.000         143.000
  21706676.228   -17847311.12449 -13670656.53947  21706675.941    21706683.426
       237.000         197.000
 00  2  4  1 48  0.0000000  0  6G 6G 5G10G30G17G24
  22270692.845   -17512343.41149 -13635544.32147  22270692.490    22270699.676
       231.000         189.000
  20626513.225   -25444021.39949 -19812806.04148  20626512.772    20626519.650
       246.000         215.000
  20947632.737   -24279013.16649 -18903575.07547  20947631.686    20947639.063
       240.000         207.000
  20725246.829   -22493190.71149 -17509611.04547  20725246.990    20725252.918
       244.000         212.000
  24645100.587    -4933590.13649  -3829994.29945  24645099.932    24645109.562
       209.000         144.000
  21719679.601   -17778977.96149 -13617409.91047  21719679.619    21719686.851
       237.000         197.000
 00  2  4  1 48 30.0000000  0  6G 6G 5G10G30G17G24
  22258559.914   -17576102.06949 -13685226.32447  22258559.260    22258566.530
       231.000         189.000
  20635694.560   -25395773.45449 -19775210.24248  20635694.096    20635700.824
       246.000         215.000
  20940821.282   -24314807.36849 -18931466.60847  20940820.312    20940827.720
       241.000         207.000
  20719387.913   -22523979.32649 -17533602.14647  20719388.116    20719394.016
       245.000         212.000
  24628459.805    -5021037.45049  -3898134.96345  24628458.873    24628468.953
       210.000         144.000
  21732719.803   -17710451.16249 -13564012.39047  21732719.451    21732726.924
       237.000         197.000
 00  2  4  1 49  0.0000000  0  6G 6G 5G10G30G17G24
  22246444.562   -17639768.37649 -13734836.36147  22246444.287    22246451.459
       231.000         189.000
  20644975.649   -25347001.08049 -19737205.78948  20644975.191    20644981.888
       245.000         215.000
  20934122.179   -24350011.13949 -18958898.06347  20934121.239    20934128.651
       240.000         207.000
  20713633.235   -22554220.39749 -17557166.58647  20713633.510    20713639.165
       244.000         212.000
  24611851.995    -5108311.61649  -3966140.70145  24611851.180    24611861.290
       208.000         145.000
  21745793.894   -17641746.34849 -13510476.16147  21745793.580    21745801.122
       236.000         197.000
 00  2  4  1 49 30.0000000  0  6G 6G 5G10G30G17G24
  22234340.856   -17703373.59549 -13784398.79247  22234340.496    22234347.778
       231.000         189.000
  20654349.354   -25297742.05049 -19698822.13348  20654348.832    20654355.549
       245.000         215.000
  20927531.954   -24384642.82649 -18985883.73947  20927531.292    20927538.274
       240.000         207.000
  20707978.036   -22583938.52849 -17580323.54347  20707978.435    20707984.051
       244.000         212.000
  24595276.501    -5195415.95749  -4034014.07745  24595275.925    24595285.682
       209.000         146.000
  21758896.545   -17572891.43549 -13456822.96647  21758896.340    21758903.628
       236.000         196.000
 00  2  4  1 50  0.0000000  0  6G 6G 5G10G30G17G24
  22222241.813   -17766954.30549 -13833942.13347  22222241.442    22222248.759
       233.000         190.000
  20663809.049   -25248030.87849 -19660086.15448  20663808.513    20663815.310
       246.000         215.000
  20921047.822   -24418717.01849 -19012434.99747  20921046.931    20921054.127
       241.000         208.000
  20702415.248   -22613170.95649 -17603102.02047  20702415.426    20702421.249
       245.000         212.000
  24578728.203    -5282377.54949  -4101776.23945  24578727.681    24578737.914
       209.000         147.000
  21772025.694   -17503897.16449 -13403061.18447  21772025.570    21772032.612
       237.000         196.000
 00  2  4  1 50 30.0000000  0  6G 6G 5G10G30G17G24
  22210144.059   -17830528.19249 -13883480.16347  22210143.857    22210150.708
       232.000         190.000
  20673351.950   -25197882.58249 -19621009.56648  20673351.447    20673358.199
       245.000         214.000
  20914663.671   -24452265.75149 -19038576.81447  20914662.970    20914669.895
       240.000         208.000
  20696942.677   -22641929.47349 -17625511.22647  20696942.865    20696948.543
       244.000         212.000
  24562200.373    -5369231.42849  -4169454.43845  24562200.303    24562209.667
       208.000         147.000
  21785178.402   -17434779.43749 -13349203.20647  21785178.185    21785185.408
       236.000         196.000
 00  2  4  1 51  0.0000000  0  6G 6G 5G10G30G17G24
  22198049.807   -17894083.46049 -13933003.68047  22198049.180    22198056.051
       232.000         190.000
  20682979.153   -25147291.16949 -19581587.68948  20682978.592    20682985.516
       245.000         214.000
  20908380.968   -24485281.17849 -19064303.07047  20908380.310    20908387.325
       241.000         208.000
  20691568.168   -22670172.48549 -17647518.74147  20691568.455    20691574.227
       244.000         212.000
  24545693.929    -5455972.92849  -4237045.07745  24545693.010    24545702.698
       206.000         147.000
  21798352.198   -17365550.63649 -13295258.67647  21798351.785    21798359.062
       236.000         196.000
 00  2  4  1 51 30.0000000  0  6G 6G 5G10G30G17G24
  22185963.003   -17957599.64449 -13982496.72747  22185962.778    22185969.416
       232.000         190.000
  20692694.855   -25096234.66749 -19541803.40448  20692694.476    20692701.077
       245.000         214.000
  20902203.709   -24517742.74849 -19089597.74347  20902202.816    20902209.872
       240.000         208.000
  20686298.738   -22697863.46849 -17669096.10147  20686299.063    20686304.813
       244.000         212.000
  24529212.913    -5542580.59049  -4304531.42645  24529212.400    24529222.397
       207.000         147.000
  21811552.710   -17296181.38049 -13241204.70047  21811552.606    21811559.553
       236.000         196.000
 00  2  4  1 52  0.0000000  0  6G 6G 5G10G30G17G24
  22173887.127   -18021058.42849 -14031945.04747  22173886.987    22173893.637
       232.000         191.000
  20702503.878   -25044687.78549 -19501636.99948  20702503.445    20702510.344
       245.000         214.000
  20896133.537   -24549641.43749 -19114453.80447  20896132.648    20896139.644
       241.000         208.000
  20681140.110   -22724971.98649 -17690219.58947  20681140.265    20681146.270
       245.000         212.000
  24512758.718    -5629047.45749  -4371908.06745  24512757.691    24512768.367
       207.000         147.000
  21824781.161   -17226665.35149 -13187036.35947  21824780.829    21824788.061
       235.000         195.000
 00  2  4  1 52 30.0000000  0  6G 6G 5G10G30G17G24
  22161829.853   -18084419.70049 -14081317.39447  22161829.605    22161836.389
       233.000         191.000
  20712412.475   -24992617.78149 -19461062.96548  20712411.976    20712418.904
       245.000         214.000
  20890176.414   -24580946.07649 -19138846.97047  20890175.742    20890182.876
       241.000         208.000
  20676101.705   -22751448.92749 -17710850.94047  20676101.982    20676107.960
       245.000         212.000
  24496340.095    -5715327.44549  -4439139.10045  24496339.257    24496349.435
       210.000         147.000
  21838037.462   -17157002.89149 -13132753.91047  21838037.591    21838044.498
       236.000         195.000
 00  2  4  1 53  0.0000000  0  6G 6G 5G10G30G17G24
  22149793.981   -18147668.09949 -14130601.77947  22149794.137    22149800.766
       232.000         191.000
  20722423.487   -24940009.48749 -19420069.48948  20722423.095    20722429.915
       244.000         214.000
  20884338.167   -24611626.09049 -19162753.41647  20884337.134    20884344.396
       240.000         208.000
  20671184.095   -22777291.00849 -17730987.59547  20671184.337    20671190.216
       244.000         212.000
  24479962.034    -5801394.29249  -4506204.03645  24479961.475    24479970.716
       210.000         148.000
  21851322.520   -17087189.53649 -13078353.88647  21851322.384    21851329.562
       236.000         195.000
 00  2  4  1 53 30.0000000  0  6G 6G 5G10G30G17G24
  22137779.049   -18210806.84249 -14179800.73147  22137778.815    22137785.696
       232.000         191.000
  20732537.685   -24886859.10749 -19378653.60948  20732537.193    20732543.954
       245.000         214.000
  20878619.963   -24641675.13849 -19186168.20247  20878619.103    20878626.173
       241.000         208.000
  20666382.366   -22802524.23249 -17750649.82247  20666382.501    20666388.289
       244.000         212.000
  24463625.055    -5887245.18649  -4573100.69645  24463623.806    24463634.128
       210.000         148.000
  21864635.338   -17017230.19849 -13023840.10347  21864634.908    21864642.131
       236.000         195.000
 00  2  4  1 54  0.0000000  0  6G 6G 5G10G30G17G24
  22125783.525   -18273843.59649 -14228920.20247  22125783.489    22125790.170
       233.000         192.000
  20742751.871   -24833183.18949 -19336828.21448  20742751.362    20742758.265
       244.000         213.000
  20873021.253   -24671096.34849 -19209093.76347  20873020.269    20873027.364
       241.000         209.000
  20661692.215   -22827170.97949 -17769855.05447  20661692.428    20661698.356
       244.000         212.000
  24447328.601    -5972883.17849  -4639831.43345  24447327.837    24447337.758
       211.000         148.000
  21877969.511   -16947158.54749 -12969238.80647  21877969.377    21877976.382
       236.000         194.000
 00  2  4  1 54 30.0000000  0  6G 6G 5G10G30G17G24
  22113805.486   -18336788.38949 -14277968.03447  22113805.341    22113811.789
       233.000         192.000
  20753061.679   -24779004.77649 -19294611.27248  20753061.195    20753067.960
       244.000         213.000
  20867539.638   -24699902.18949 -19231539.81947  20867538.654    20867545.989
       241.000         209.000
  20657108.403   -22851259.05949 -17788624.96147  20657108.691    20657114.404
       244.000         212.000
  24431068.950    -6058327.49749  -4706411.24945  24431068.113    24431077.585
       210.000         149.000
  21891325.503   -16876972.39749 -12914548.28647  21891325.551    21891332.484
       235.000         194.000
 00  2  4  1 55  0.0000000  0  6G 6G 5G10G30G17G24
  22101841.430   -18399659.63449 -14326958.55047  22101841.104    22101848.030
       232.000         192.000
  20763461.460   -24724353.50749 -19252025.87048  20763461.055    20763467.745
       244.000         213.000
  20862171.295   -24728112.80149 -19253522.05847  20862170.390    20862177.712
       241.000         209.000
  20652626.793   -22874809.90949 -17806976.24748  20652627.004    20652632.705
       245.000         213.000
  24414839.283    -6143614.29749  -4772868.30145  24414838.669    24414848.350
       210.000         149.000
  21904704.090   -16806667.38049 -12859765.14547  21904703.849    21904711.167
       235.000         194.000
 00  2  4  1 55 30.0000000  0  6G 6G 5G10G30G17G24
  22089890.850   -18462460.15449 -14375893.95347  22089890.417    22089897.510
       233.000         192.000
  20773947.426   -24669249.30049 -19209087.52848  20773946.896    20773953.852
       244.000         213.000
  20856913.112   -24755744.44949 -19275053.15847  20856912.390    20856919.574
       241.000         209.000
  20648247.922   -22897820.90749 -17824906.86848  20648248.085    20648253.950
       245.000         213.000
  24398638.665    -6228748.33749  -4839206.31145  24398637.405    24398647.239
       211.000         150.000
  21918102.781   -16736256.71749 -12804899.67347  21918102.593    21918109.408
       235.000         194.000
 00  2  4  1 56  0.0000000  0  6G 6G 5G10G30G17G24
  22077953.472   -18525191.10949 -14424775.15647  22077953.341    22077960.009
       233.000         192.000
  20784518.854   -24613696.11849 -19165799.33348  20784518.357    20784525.021
       244.000         213.000
  20851764.870   -24782798.52849 -19296134.20647  20851763.964    20851771.019
       241.000         209.000
  20643974.395   -22920278.40349 -17842406.19148  20643974.694    20643980.223
       245.000         213.000
  24382465.521    -6313737.94949  -4905431.74345  24382464.081    24382473.836
       211.000         151.000
  21931521.920   -16665738.79449 -12749950.62247  21931521.574    21931528.640
       234.000         193.000
 00  2  4  1 56 30.0000000  0  6G 6G 5G10G30G17G24
  22066032.280   -18587837.15349 -14473590.19847  22066032.094    22066038.783
       234.000         192.000
  20795176.401   -24557690.29649 -19122158.44348  20795175.919    20795182.620
       244.000         213.000
  20846729.165   -24809260.97149 -19316754.24747  20846728.230    20846735.281
       241.000         209.000
  20639810.182   -22942161.27249 -17859457.75548  20639810.307    20639816.162
       245.000         213.000
  24366318.405    -6398590.89849  -4971550.69845  24366316.780    24366326.910
       213.000         152.000
  21944966.592   -16595086.43049 -12694896.81747  21944966.576    21944973.641
       235.000         193.000
 00  2  4  1 57  0.0000000  0  6G 6G 5G10G30G17G24
  22054128.632   -18650391.17649 -14522333.53947  22054128.265    22054135.160
       234.000         193.000
  20805923.557   -24501213.63149 -19078150.66047  20805923.029    20805929.719
       244.000         212.000
  20841809.193   -24835115.36849 -19336900.48447  20841808.276    20841815.516
       241.000         209.000
  20635757.522   -22963457.94649 -17876052.54748  20635757.982    20635763.525
       245.000         213.000
  24350200.211    -6483291.76049  -5037551.13145  24350199.518    24350208.942
       213.000         152.000
  21958434.476   -16524312.22449 -12639748.07147  21958434.182    21958441.171
       235.000         193.000
 00  2  4  1 57 30.0000000  0  6G 6G 5G10G30G17G24
  22042243.063   -18712850.00549 -14571002.70447  22042242.963    22042249.560
       234.000         193.000
  20816765.216   -24444240.33349 -19033755.88447  20816764.814    20816771.663
       244.000         212.000
  20837007.199   -24860349.98749 -19356563.77847  20837006.441    20837013.384
       241.000         209.000
  20631817.926   -22984160.66749 -17892184.51548  20631818.080    20631824.066
       244.000         213.000
  24334114.648    -6567820.84649  -5103417.72045  24334113.674    24334123.271
       213.000         153.000
  21971926.699   -16453410.04249 -12584499.60147  21971926.642    21971934.101
       234.000         193.000
 00  2  4  1 58  0.0000000  0  6G 6G 5G10G30G17G24
  22030374.484   -18775219.71249 -14619602.42747  22030374.449    22030380.962
       235.000         193.000
  20827703.295   -24386760.36549 -18988966.29847  20827702.771    20827709.699
       245.000         212.000
  20832325.225   -24884953.86049 -19375735.57547  20832324.492    20832331.219
       242.000         209.000
  20627992.450   -23004263.51049 -17907849.04548  20627992.848    20627998.498
       244.000         213.000
  24318061.841    -6652177.63849  -5169150.04645  24318060.957    24318070.512
       213.000         153.000
  21985445.532   -16382368.00349 -12529142.14547  21985445.213    21985452.330
       235.000         193.000
 00  2  4  1 58 30.0000000  0  6G 6G 5G10G30G17G24
  22018522.575   -18837501.62849 -14668133.74147  22018522.544    22018528.938
       235.000         194.000
  20838737.792   -24328773.63249 -18943781.83447  20838737.232    20838744.200
       244.000         212.000
  20827762.703   -24908929.91249 -19394418.16647  20827761.950    20827768.841
       242.000         209.000
  20624279.531   -23023774.84849 -17923052.66348  20624279.648    20624285.416
       244.000         213.000
  24302045.363    -6736343.77049  -5234733.82445  24302044.605    24302054.468
       214.000         153.000
  21998990.231   -16311190.16449 -12473678.87147  21998990.076    21998996.901
       234.000         192.000
 00  2  4  1 59  0.0000000  0  6G 6G 5G10G30G17G24
  22006684.271   -18899712.10749 -14716609.39647  22006684.250    22006690.804
       234.000         194.000
  20849866.133   -24270293.87649 -18898213.19847  20849865.618    20849872.425
       244.000         212.000
  20823313.699   -24932309.38949 -19412635.89447  20823312.791    20823319.732
       241.000         209.000
  20620675.171   -23042715.88049 -17937811.88548  20620675.334    20620681.129
       245.000         213.000
  24286066.546    -6820312.31749  -5300163.64945  24286065.187    24286075.558
       216.000         153.000
  22012556.428   -16239899.21549 -12418127.46147  22012556.194    22012563.325
       234.000         192.000
 00  2  4  1 59 30.0000000  0  6G 6G 5G10G30G17G24
  21994857.738   -18961860.73149 -14765036.84947  21994857.497    21994864.146
       234.000         194.000
  20861082.948   -24211349.09649 -18852282.20347  20861082.413    20861089.152
       244.000         212.000
  20818975.015   -24955109.04949 -19430401.82047  20818974.134    20818981.094
       241.000         209.000
  20617176.255   -23061102.76049 -17952139.30148  20617176.606    20617182.220
       245.000         213.000
  24270122.474    -6904098.25549  -5365451.17445  24270120.905    24270131.851
       214.000         153.000
  22026142.943   -16168501.52149 -12362492.87547  22026142.759    22026150.211
       234.000         192.000
 00  2  4  2  0  0.0000000  0  6G 6G 5G10G30G17G24
  21983042.395   -19023950.60949 -14813418.52747  21983041.927    21983048.721
       235.000         194.000
  20872382.906   -24151967.49649 -18806010.82647  20872382.340    20872389.097
       244.000         212.000
  20814744.455   -24977340.77349 -19447725.19247  20814743.493    20814750.365
       241.000         209.000
  20613780.049   -23078949.97149 -17966046.19048  20613780.167    20613785.784
       245.000         213.000
  24254212.382    -6987705.52449  -5430599.50345  24254211.729    24254220.927
       215.000         154.000
  22039745.662   -16097018.31049 -12306791.65047  22039745.272    22039752.438
       234.000         191.000
 00  2  4  2  0 30.0000000  0  6G 6G 5G10G30G17G24
  21971237.076   -19085987.60949 -14861759.00147  21971236.489    21971243.690
       234.000         194.000
  20883760.899   -24092175.79649 -18759419.90047  20883760.364    20883767.187
       244.000         212.000
  20810617.946   -24999025.42349 -19464622.27547  20810617.150    20810623.998
       241.000         210.000
  20610482.118   -23096280.40749 -17979550.40448  20610482.330    20610487.994
       244.000         213.000
  24238333.079    -7071151.27249  -5495621.98945  24238332.292    24238341.675
       217.000         155.000
  22053362.249   -16025462.53649 -12251033.88447  22053362.205    22053369.271
       234.000         191.000
 00  2  4  2  1  0.0000000  0  6G 6G 5G10G30G17G24
  21959439.782   -19147982.65249 -14910066.78547  21959439.716    21959446.269
       234.000         194.000
  20895214.967   -24031984.19149 -18712517.36047  20895214.744    20895221.300
       243.000         211.000
  20806597.250   -25020154.06349 -19481086.10247  20806596.333    20806603.458
       242.000         210.000
  20607282.060   -23113096.84749 -17992654.10048  20607282.405    20607288.156
       245.000         213.000
  24222478.344    -7154467.69549  -5560543.70645  24222477.678    24222487.062
       217.000         156.000
  22066991.365   -15953840.98549 -12195224.86947  22066991.340    22066998.368
       233.000         191.000
 00  2  4  2  1 30.0000000  0  6G 6G 5G10G30G17G24
  21947651.567   -19209929.71349 -14958337.16947  21947651.247    21947657.905
       235.000         195.000
  20906747.636   -23971379.68149 -18665293.06447  20906747.250    20906753.905
       243.000         211.000
  20802689.250   -25040690.65049 -19497088.58247  20802688.448    20802695.326
       241.000         210.000
  20604183.880   -23129377.74049 -18005340.47948  20604184.020    20604189.986
       245.000         213.000
  24206648.185    -7237655.38549  -5625365.12045  24206647.856    24206656.121
       217.000         155.000
  22080633.364   -15882151.80549 -12139363.14947  22080633.306    22080640.122
       233.000         190.000
 00  2  4  2  2  0.0000000  0  6G 6G 5G10G30G17G24
  21935876.430   -19271808.27249 -15006554.17747  21935876.179    21935882.766
       235.000         195.000
  20918361.138   -23910350.43849 -18617737.81647  20918360.760    20918367.458
       243.000         211.000
  20798896.991   -25060618.82249 -19512616.98247  20798896.314    20798903.090
       241.000         210.000
  20601193.295   -23145093.33449 -18017586.37348  20601193.471    20601199.179
       245.000         213.000
  24190846.436    -7320693.51049  -5690070.01445  24190845.976    24190854.224
       216.000         155.000
  22094290.791   -15810381.60249 -12083438.30047  22094290.561    22094297.609
       233.000         190.000
 00  2  4  2  2 30.0000000  0  6G 6G 5G10G30G17G24
  21924116.051   -19333609.32849 -15054710.79247  21924115.711    21924122.402
       235.000         195.000
  20930060.010   -23848872.38949 -18569832.84547  20930059.501    20930066.196
       243.000         211.000
  20795222.891   -25079926.20149 -19527661.63947  20795221.907    20795228.732
       242.000         210.000
  20598314.386   -23160221.95749 -18029374.88148  20598314.713    20598320.152
       245.000         213.000
  24175071.002    -7403593.48249  -5754667.24545  24175070.387    24175079.180
       217.000         154.000
  22107966.496   -15738515.09249 -12027438.39947  22107966.253    22107973.283
       233.000         190.000
 00  2  4  2  3  0.0000000  0  6G 6G 5G10G30G17G24
  21912378.007   -19395293.23449 -15102776.11947  21912377.816    21912384.273
       235.000         196.000
  20941853.889   -23786895.04849 -18521538.81847  20941853.636    20941860.360
       243.000         211.000
  20791673.264   -25098579.23749 -19542196.41947  20791672.425    20791679.179
       242.000         210.000
  20595556.965   -23174712.03649 -18040665.82448  20595557.192    20595562.833
       245.000         213.000
  24159327.720    -7486324.11449  -5819132.54445  24159326.396    24159335.667
       215.000         153.000
  22121665.487   -15666526.20749 -11971343.15347  22121665.240    22121672.170
       232.000         190.000
 00  2  4  2  3 30.0000000  0  6G 6G 5G10G30G17G24
  21900668.047   -19456829.25649 -15150726.21247  21900667.743    21900674.430
       236.000         196.000
  20953744.550   -23724409.10049 -18472848.47247  20953744.305    20953750.995
       243.000         210.000
  20788248.430   -25116576.66749 -19556220.34547  20788247.656    20788254.670
       242.000         210.000
  20592925.304   -23188541.48949 -18051441.99648  20592925.524    20592931.202
       245.000         213.000
  24143622.383    -7568855.57149  -5883442.63045  24143621.499    24143630.314
       216.000         153.000
  22135391.183   -15594397.10849 -11915138.64447  22135390.758    22135398.188
       233.000         190.000
 00  2  4  2  4  0.0000000  0  6G 6G 5G10G30G17G24
  21888987.940   -19518208.47149 -15198554.11347  21888987.709    21888994.091
       235.000         196.000
  20965732.929   -23661409.77349 -18423758.08647  20965732.525    20965739.137
       242.000         210.000
  20784947.494   -25133923.13449 -19569737.02047  20784946.611    20784953.320
       241.000         210.000
  20590418.647   -23201714.01449 -18061706.27148  20590418.900    20590424.387
       245.000         213.000
  24127956.402    -7651180.23849  -5947591.58745  24127955.544    24127964.071
       216.000         154.000
  22149145.435   -15522118.01249 -11858817.25047  22149145.416    22149152.536
       232.000         189.000
 00  2  4  2  4 30.0000000  0  6G 6G 5G10G30G17G24
  21877335.619   -19579441.61449 -15246268.19547  21877335.376    21877341.761
       236.000         196.000
  20977821.192   -23597885.53049 -18374258.67947  20977820.847    20977827.699
       243.000         210.000
  20781770.093   -25150620.21249 -19582747.67747  20781769.201    20781775.987
       242.000         210.000
  20588034.640   -23214241.81949 -18071468.16848  20588034.890    20588040.785
       245.000         213.000
  24112328.958    -7733302.50449  -6011582.82345  24112329.192    24112336.077
       216.000         154.000
  22162926.799   -15449696.22149 -11802384.66547  22162926.755    22162933.960
       232.000         189.000
 00  2  4  2  5  0.0000000  0  6G 6G 5G10G30G17G24
  21865709.613   -19640536.48949 -15293874.53647  21865709.424    21865715.984
       236.000         197.000
  20990005.353   -23533857.43049 -18324366.66347  20990004.922    20990011.786
       243.000         210.000
  20778714.948   -25166674.92849 -19595257.79947  20778714.046    20778720.768
       242.000         210.000
  20585770.793   -23226138.31849 -18080738.14348  20585771.187    20585776.803
       245.000         213.000
  24096743.911    -7815201.43649  -6075400.02845  24096743.162    24096751.618
       214.000         153.000
  22176730.757   -15377155.84849 -11745859.68447  22176730.939    22176737.214
       232.000         189.000
 00  2  4  2  5 30.0000000  0  6G 6G 5G10G30G17G24
  21854105.674   -19701515.41749 -15341390.52547  21854105.448    21854111.865
       235.000         197.000
  21002278.446   -23469361.82149 -18274110.34847  21002278.005    21002284.757
       242.000         209.000
  20775780.421   -25182095.79049 -19607274.00847  20775779.557    20775786.407
       242.000         210.000
  20583620.723   -23237436.95449 -18089542.24748  20583620.806    20583626.524
       245.000         213.000
  24081201.132    -7896878.75049  -6139044.53745  24081200.092    24081209.713
       213.000         153.000
  22190552.450   -15304522.06749 -11689261.91747  22190552.360    22190558.966
       232.000         188.000
 00  2  4  2  6  0.0000000  0  6G 6G 5G10G30G17G24
  21842518.968   -19762403.30049 -15388835.57347  21842518.859    21842525.179
       235.000         197.000
  21014638.191   -23404410.94349 -18223499.28047  21014637.999    21014644.615
       242.000         209.000
  20772963.444   -25196898.87049 -19618808.83147  20772962.977    20772969.308
       242.000         210.000
  20581579.943   -23248161.01249 -18097898.63148  20581579.969    20581585.824
       245.000         213.000
  24065696.690    -7978354.35749  -6202531.87745  24065695.036    24065704.519
       212.000         153.000
  22204387.445   -15231818.88649 -11632610.07547  22204387.452    22204394.355
       231.000         188.000
 00  2  4  2  6 30.0000000  0  6G 6G 5G10G30G17G24
  21830949.207   -19823202.45249 -15436211.48047  21830948.669    21830955.512
       236.000         197.000
  21027083.215   -23339011.87949 -18172538.97647  21027082.744    21027089.549
       242.000         209.000
  20770262.005   -25211094.89149 -19629870.62147  20770261.307    20770267.855
       242.000         210.000
  20579647.847   -23258314.21549 -18105810.19048  20579648.196    20579653.680
       244.000         213.000
  24050228.001    -8059641.85749  -6265872.62845  24050226.824    24050235.647
       212.000         152.000
  22218233.624   -15159056.64149 -11575912.20547  22218233.547    22218240.195
       232.000         188.000
 00  2  4  2  7  0.0000000  0  6G 6G 5G10G30G17G24
  21819397.666   -19883906.04649 -15483512.92247  21819397.306    21819403.840
       236.000         197.000
  21039611.185   -23273176.86349 -18121238.97047  21039610.801    21039617.565
       242.000         209.000
  20767676.870   -25224679.74349 -19640456.17847  20767676.017    20767682.796
       242.000         210.000
  20577823.218   -23267902.55049 -18113281.59448  20577823.449    20577829.095
       244.000         213.000
  24034792.931    -8140752.82449  -6329075.82545  24034792.489    24034800.584
       212.000         151.000
  22232091.780   -15086231.49449 -11519165.32446  22232091.933    22232098.519
       231.000         187.000
 00  2  4  2  7 30.0000000  0  6G 6G 5G10G30G17G24
  21807865.456   -19944507.83549 -15530735.03147  21807865.099    21807871.935
       236.000         197.000
  21052221.195   -23206910.81549 -18069603.08847  21052220.731    21052227.434
       242.000         209.000
  20765208.584   -25237650.36149 -19650563.10647  20765207.856    20765214.365
       242.000         210.000
  20576105.298   -23276930.16549 -18120316.07048  20576105.339    20576111.035
       245.000         213.000
  24019386.836    -8221711.89749  -6392160.66845  24019386.844    24019394.174
       212.000         151.000
  22245964.217   -15013331.20549 -11462359.88246  22245963.900    22245971.470
       230.000         187.000
 00  2  4  2  8  0.0000000  0  6G 6G 5G10G30G17G24
  21796354.195   -20004999.69949 -15577871.49447  21796353.908    21796360.368
       236.000         197.000
  21064916.366   -23140197.25649 -18017618.49647  21064915.862    21064922.737
       242.000         208.000
  20762856.093   -25250012.65949 -19660196.02147  20762855.264    20762861.839
       242.000         210.000
  20574497.358   -23285379.79149 -18126900.17048  20574497.642    20574503.113
       245.000         213.000
  24004010.008    -8302517.08949  -6455125.62145  24004009.320    24004017.546
       213.000         151.000
  22259853.279   -14940343.61949 -11405486.42046  22259853.284    22259860.153
       230.000         187.000
 00  2  4  2  8 30.0000000  0  6G 6G 5G10G30G17G24
  21784864.314   -20065379.19249 -15624920.39347  21784864.002    21784870.675
       236.000         198.000
  21077695.194   -23073044.08949 -17965291.35047  21077694.726    21077701.632
       242.000         208.000
  20760619.568   -25261765.38249 -19669353.94647  20760618.693    20760625.535
       242.000         210.000
  20573000.736   -23293244.57149 -18133028.54448  20573001.048    20573006.571
       245.000         213.000
  23988663.890    -8383160.81249  -6517964.73245  23988662.794    23988671.093
       213.000         151.000
  22273760.042   -14867263.00749 -11348540.48046  22273759.727    22273766.837
       231.000         186.000
 00  2  4  2  9  0.0000000  0  6G 6G 5G10G30G17G24
  21773395.890   -20125646.09249 -15671881.55247  21773395.592    21773401.994
       237.000         198.000
  21090554.188   -23005469.57149 -17912635.88647  21090553.574    21090560.498
       243.000         208.000
  20758500.382   -25272901.68849 -19678031.54747  20758499.370    20758506.162
       243.000         210.000
  20571616.721   -23300517.47749 -18138695.71648  20571616.696    20571622.396
       246.000         213.000
  23973350.592    -8463632.20449  -6580669.56545  23973350.055    23973358.753
       213.000         152.000
  22287684.090   -14794091.51349 -11291523.71046  22287683.947    22287690.707
       231.000         186.000
 00  2  4  2  9 30.0000000  0  6G 6G 5G10G30G17G24
  21761948.953   -20185799.91749 -15718754.60847  21761948.616    21761954.898
       236.000         198.000
  21103492.644   -22937477.43649 -17859655.00547  21103492.226    21103498.841
       242.000         208.000
  20756497.044   -25283429.02849 -19686234.63247  20756496.307    20756502.961
       242.000         210.000
  20570348.889   -23307179.67349 -18143887.01548  20570348.934    20570354.551
       245.000         213.000
  23958074.806    -8543906.58749  -6643220.88445  23958073.351    23958082.989
       212.000         153.000
  22301624.797   -14720832.46249 -11234438.72346  22301624.806    22301631.603
       231.000         186.000
 00  2  4  2 10  0.0000000  0  6G 6G 5G10G30G17G24
  21750521.237   -20245852.61749 -15765548.86447  21750521.008    21750527.298
       236.000         199.000
  21116511.088   -22869064.98949 -17806346.61247  21116510.624    21116517.501
       242.000         207.000
  20754608.653   -25293352.42249 -19693967.10847  20754607.914    20754614.524
       242.000         210.000
  20569197.024   -23313232.72249 -18148603.65748  20569197.401    20569203.037
       244.000         214.000
  23942838.005    -8623975.82449  -6705612.34645  23942837.329    23942845.820
       213.000         153.000
  22315580.136   -14647496.54649 -11177293.84646  22315579.995    22315586.856
       230.000         185.000
 00  2  4  2 10 30.0000000  0  6G 6G 5G10G30G17G24
  21739113.100   -20305802.63449 -15812263.10247  21739113.035    21739119.401
       237.000         199.000
  21129608.055   -22800240.03649 -17752716.77847  21129607.807    21129614.509
       242.000         207.000
  20752838.977   -25302651.94849 -19701213.44747  20752838.029    20752844.760
       242.000         210.000
  20568160.137   -23318681.47049 -18152849.40948  20568160.389    20568165.990
       244.000         214.000
  23927639.137    -8703845.70349  -6767848.45045  23927638.031    23927646.932
       213.000         154.000
  22329549.216   -14574088.37049 -11120092.65046  22329549.035    22329556.317
       230.000         185.000
 00  2  4  2 11  0.0000000  0  6G 6G 5G10G30G17G24
  21727725.282   -20365645.72249 -15858894.02447  21727725.359    21727731.337
       236.000         199.000
  21142783.931   -22731000.15949 -17698763.63347  21142783.446    21142790.183
       242.000         207.000
  20751189.357   -25311320.50849 -19707968.12647  20751188.421    20751195.132
       242.000         210.000
  20567237.390   -23323530.31949 -18156627.71048  20567237.478    20567243.155
       245.000         214.000
  23912479.384    -8783510.14149  -6829924.48745  23912478.516    23912486.903
       215.000         155.000
  22343530.797   -14500614.41949 -11062840.19846  22343530.546    22343537.379
       230.000         185.000
 00  2  4  2 11 30.0000000  0  6G 6G 5G10G30G17G24
  21716355.914   -20425391.93449 -15905449.46247  21716355.700    21716362.049
       237.000         199.000
  21156040.683   -22661335.47449 -17644479.47247  21156040.388    21156046.888
       242.000         207.000
  20749657.107   -25319372.34749 -19714242.24347  20749656.482    20749663.040
       242.000         210.000
  20566427.231   -23327787.41549 -18159944.90948  20566427.588    20566433.231
       245.000         214.000
  23897356.721    -8862979.65549  -6891848.62645  23897355.815    23897364.119
       216.000         157.000
  22357526.135   -14427068.65549 -11005531.79946  22357526.117    22357533.200
       230.000         184.000
 00  2  4  2 12  0.0000000  0  6G 6G 5G10G30G17G24
  21705004.745   -20485042.44449 -15951930.32147  21705004.718    21705010.889
       237.000         199.000
  21169378.470   -22591244.94849 -17589863.48047  21169378.095    21169384.773
       241.000         207.000
  20748242.725   -25326804.86849 -19720033.77047  20748241.851    20748248.598
       242.000         211.000
  20565728.253   -23331460.74849 -18162807.22148  20565728.652    20565734.225
       245.000         214.000
  23882268.192    -8942270.14949  -6953633.27045  23882267.140    23882275.419
       217.000         158.000
  22371534.100   -14353456.16149 -10948171.40046  22371533.859    22371541.274
       229.000         184.000
 00  2  4  2 12 30.0000000  0  6G 6G 5G10G30G17G24
  21693672.717   -20544592.41549 -15998332.83747  21693672.233    21693678.531
       237.000         199.000
  21182795.823   -22520736.29049 -17534921.67547  21182795.696    21182802.162
       241.000         206.000
  20746946.114   -25333618.32049 -19725342.91047  20746945.279    20746951.956
       242.000         211.000
  20565141.658   -23334543.32249 -18165209.20748  20565141.958    20565147.410
       245.000         214.000
  23867213.833    -9021380.89149  -7015277.84545  23867212.643    23867221.206
       217.000         159.000
  22385555.750   -14279771.89149 -10890755.07446  22385556.082    22385562.727
       229.000         184.000
 00  2  4  2 13  0.0000000  0  6G 6G 5G10G30G17G24
  21682360.366   -20604038.94549 -16044654.74747  21682359.865    21682366.473
       236.000         199.000
  21196293.366   -22449806.21449 -17479651.48447  21196293.042    21196299.657
       241.000         206.000
  20745764.736   -25339826.34449 -19730180.28247  20745763.887    20745770.453
       242.000         211.000
  20564666.909   -23337037.95649 -18167153.05548  20564667.147    20564672.842
       245.000         214.000
  23852193.498    -9100312.80249  -7076783.07345  23852192.591    23852200.442
       217.000         161.000
  22399591.035   -14206015.76949 -10833282.74946  22399590.686    22399598.659
       229.000         183.000
 00  2  4  2 13 30.0000000  0  6G 6G 5G10G30G17G24
  21671067.101   -20663384.98349 -16090898.35647  21671066.743    21671073.620
       237.000         200.000
  21209871.261   -22378453.89049 -17424052.27647  21209870.882    21209877.614
       242.000         206.000
  20744698.135   -25345431.13049 -19734547.60447  20744697.345    20744703.983
       242.000         211.000
  20564303.478   -23338947.82549 -18168641.24748  20564303.709    20564309.250
       244.000         214.000
  23837205.389    -9179075.15949  -7138156.19045  23837204.077    23837212.815
       218.000         162.000
  22413639.973   -14132188.14949 -10775754.71646  22413639.830    22413647.030
       229.000         183.000
 00  2  4  2 14  0.0000000  0  6G 6G 5G10G30G17G24
  21659794.489   -20722622.99749 -16137057.79347  21659794.486    21659800.484
       237.000         200.000
  21223529.298   -22306680.63249 -17368125.06647  21223528.617    21223535.551
       242.000         206.000
  20743749.139   -25350417.90049 -19738433.35647  20743748.412    20743755.024
       242.000         211.000
  20564049.759   -23340280.83549 -18169679.93848  20564050.144    20564055.692
       245.000         214.000
  23822251.222    -9257659.38649  -7199390.51146  23822250.909    23822258.414
       218.000         163.000
  22427698.857   -14058308.28449 -10718185.97246  22427699.047    22427705.724
       229.000         183.000
 00  2  4  2 14 30.0000000  0  6G 6G 5G10G30G17G24
  21648542.893   -20781750.32649 -16183130.98047  21648542.466    21648548.892
       237.000         200.000
  21237267.078   -22234488.03449 -17311871.09747  21237266.636    21237273.473
       241.000         206.000
  20742915.968   -25354795.94749 -19741844.77647  20742915.109    20742921.703
       242.000         211.000
  20563904.824   -23341042.51349 -18170273.44048  20563905.195    20563910.588
       245.000         214.000
  23807330.830    -9336066.12949  -7260486.53746  23807329.819    23807338.153
       219.000         164.000
  22441767.048   -13984379.29049 -10660578.94346  22441767.288    22441773.717
       228.000         182.000
 00  2  4  2 15  0.0000000  0  6G 6G 5G10G30G17G24
  21637312.067   -20840768.51649 -16229119.12647  21637311.881    21637318.154
       237.000         200.000
  21251083.573   -22161881.80949 -17255294.82047  21251083.351    21251090.015
       241.000         205.000
  20742198.803   -25358564.57749 -19744781.32547  20742197.975    20742204.597
       242.000         211.000
  20563867.423   -23341239.02849 -18170426.55348  20563867.601    20563873.164
       245.000         214.000
  23792443.623    -9414298.08949  -7321446.36546  23792442.155    23792450.830
       219.000         164.000
  22455843.396   -13910407.44749 -10602938.52846  22455843.173    22455849.556
       229.000         182.000
 00  2  4  2 15 30.0000000  0  6G 6G 5G10G30G17G24
  21626101.981   -20899677.58649 -16275022.24547  21626101.771    21626107.990
       237.000         201.000
  21264976.119   -22088876.03849 -17198407.21147  21264975.674    21264982.585
       241.000         205.000
  20741598.643   -25361718.11249 -19747238.58147  20741597.851    20741604.446
       242.000         210.000
  20563939.662   -23340859.25649 -18170130.61748  20563940.001    20563945.498
       245.000         214.000
  23777590.636    -9492350.60749  -7382266.39046  23777589.118    23777597.681
       220.000         165.000
  22469928.280   -13836390.98149 -10545263.34346  22469927.693    22469934.797
       229.000         182.000
 00  2  4  2 16  0.0000000  0  6G 6G 5G10G30G17G24
  21614914.988   -20958465.49749 -16320830.94347  21614914.866    21614920.941
       238.000         201.000
  21278944.422   -22015472.16349 -17141209.38847  21278944.024    21278950.945
       241.000         205.000
  20741114.978   -25364259.48749 -19749218.83247  20741114.255    20741120.985
       242.000         210.000
  20564125.723   -23339881.56649 -18169368.76748  20564126.082    20564131.508
       245.000         214.000
  23762771.456    -9570225.33049  -7442947.86246  23762770.496    23762778.454
       219.000         166.000
  22484023.255   -13762321.24349 -10487546.63746  22484023.365    22484029.812
       228.000         182.000
 00  2  4  2 16 30.0000000  0  6G 6G 5G10G30G17G24
  21603754.853   -21017112.27049 -16366529.67747  21603754.762    21603760.925
       238.000         201.000
  21292988.056   -21941672.39249 -17083703.07247  21292987.861    21292994.591
       241.000         205.000
  20740749.481   -25366180.16249 -19750715.42547  20740748.688    20740755.189
       242.000         210.000
  20564430.337   -23338280.68349 -18168121.31448  20564430.671    20564436.199
       244.000         214.000
  23747986.163    -9647921.80849  -7503490.45646  23747984.732    23747993.386
       218.000         166.000
  22498133.122   -13688173.39649 -10429769.07846  22498133.456    22498140.147
       229.000         182.000
 00  2  4  2 17  0.0000000  0  6G 6G 5G10G30G17G24
  21592622.478   -21075613.11849 -16412114.69847  21592622.119    21592628.522
       239.000         201.000
  21307108.421   -21867469.38349 -17025882.54347  21307108.086    21307114.649
       241.000         205.000
  20740505.314   -25367463.08149 -19751715.06147  20740504.627    20740510.997
       243.000         211.000
  20564856.204   -23336042.60449 -18166377.34348  20564856.496    20564862.055
       245.000         214.000
  23733237.460    -9725426.29649  -7563883.45846  23733236.023    23733245.121
       219.000         166.000
  22512260.905   -13613931.32549 -10371918.08546  22512260.516    22512267.272
       228.000         181.000
 00  2  4  2 17 30.0000000  0  6G 6G 5G10G30G17G24
  21581519.245   -21133960.86349 -16457580.41947  21581519.065    21581525.273
       238.000         202.000
  21321309.030   -21792844.84549 -16967733.55347  21321308.685    21321315.475
       240.000         205.000
  20740380.729   -25368117.78849 -19752225.18647  20740379.944    20740386.403
       242.000         211.000
  20565406.158   -23333152.53149 -18164125.32448  20565406.345    20565411.986
       245.000         213.000
  23718526.369    -9802733.15349  -7624122.46546  23718526.316    23718533.595
       219.000         165.000
  22526406.689   -13539594.68249 -10313993.40446  22526406.433    22526413.526
       230.000         181.000
 00  2  4  2 18  0.0000000  0  6G 6G 5G10G30G17G24
  21570445.809   -21192151.92349 -16502924.05147  21570445.691    21570451.961
       238.000         202.000
  21335591.874   -21717788.12949 -16909247.80647  21335591.487    21335598.342
       240.000         204.000
  20740375.006   -25368147.75049 -19752248.49747  20740374.338    20740380.764
       242.000         211.000
  20566079.617   -23329613.41449 -18161367.55848  20566080.099    20566085.521
       244.000         214.000
  23703854.478    -9879833.91349  -7684200.86346  23703853.544    23703861.277
       219.000         165.000
  22540568.419   -13465174.07849 -10256003.30346  22540568.179    22540574.455
       229.000         181.000
 00  2  4  2 18 30.0000000  0  6G 6G 5G10G30G17G24
  21559399.352   -21250201.13449 -16548157.14347  21559399.238    21559405.430
       238.000         202.000
  21349956.734   -21642300.30649 -16850426.13747  21349956.163    21349962.998
       239.000         204.000
  20740489.211   -25367547.46649 -19751780.70947  20740488.439    20740494.994
       242.000         211.000
  20566872.601   -23325446.21549 -18158120.37948  20566872.900    20566878.388
       244.000         213.000
  23689225.962    -9956706.78749  -7744101.70846  23689225.291    23689232.826
       219.000         166.000
  22554744.032   -13390680.72849 -10197956.51346  22554743.866    22554750.782
       229.000         180.000
 00  2  4  2 19  0.0000000  0  6G 6G 5G10G30G17G24
  21548372.708   -21308146.30149 -16593309.17347  21548372.332    21548378.582
       238.000         202.000
  21364400.406   -21566398.37249 -16791281.77947  21364400.134    21364406.794
       239.000         204.000
  20740717.171   -25366349.29749 -19750847.04147  20740716.341    20740722.868
       242.000         211.000
  20567778.355   -23320686.31649 -18154411.35648  20567778.723    20567784.322
       244.000         213.000
  23674639.315   -10033359.62649  -7803831.09846  23674638.109    23674646.494
       219.000         165.000
  22568925.829   -13316155.01149 -10139884.50146  22568925.848    22568932.848
       228.000         180.000
 00  2  4  2 19 30.0000000  0  6G 6G 5G10G30G17G24
  21537366.293   -21365985.15949 -16638378.35547  21537366.052    21537372.062
       238.000         202.000
  21378918.902   -21490103.16949 -16731830.97347  21378918.363    21378925.243
       239.000         203.000
  20741058.896   -25364553.37149 -19749447.58147  20741058.104    20741064.761
       242.000         211.000
  20568796.505   -23315335.87649 -18150242.16948  20568796.848    20568802.330
       245.000         214.000
  23660092.649   -10109802.59649  -7863396.95046  23660091.729    23660099.855
       219.000         165.000
  22583110.196   -13241615.54549 -10081801.77346  22583109.928    22583116.606
       229.000         179.000
 00  2  4  2 20  0.0000000  0  6G 6G 5G10G30G17G24
  21526380.638   -21423715.02849 -16683362.61947  21526380.307    21526386.608
       239.000         203.000
  21393508.293   -21413435.46649 -16672089.91247  21393508.033    21393514.739
       239.000         203.000
  20741517.710   -25362142.26949 -19747568.77147  20741517.116    20741523.567
       242.000         211.000
  20569925.052   -23309405.25349 -18145620.89848  20569925.357    20569931.011
       244.000         214.000
  23645586.454   -10186032.87849  -7922797.07746  23645585.192    23645593.556
       219.000         164.000
  22597298.453   -13167055.66549 -10023703.14546  22597298.836    22597305.532
       228.000         179.000
 00  2  4  2 20 30.0000000  0  6G 6G 5G10G30G17G24
  21515416.764   -21481330.35549 -16728257.62647  21515416.747    21515422.678
       239.000         203.000
  21408166.450   -21336406.49449 -16612067.34247  21408166.085    21408172.966
       239.000         203.000
  20742093.286   -25359117.43349 -19745211.72447  20742092.598    20742099.044
       242.000         211.000
  20571162.897   -23302900.42649 -18140552.18648  20571163.320    20571168.873
       244.000         214.000
  23631117.103   -10262069.47249  -7982046.27346  23631115.949    23631123.599
       218.000         164.000
  22611491.797   -13092468.85249  -9965583.52346  22611491.970    22611498.858
       227.000         179.000
 00  2  4  2 21  0.0000000  0  6G 6G 5G10G30G17G24
  21504479.820   -21538804.09749 -16773042.31347  21504479.599    21504485.849
       240.000         203.000
  21422891.855   -21259023.87449 -16551769.19947  21422891.561    21422898.189
       239.000         203.000
  20742786.980   -25355472.01849 -19742371.10747  20742786.078    20742792.442
       243.000         211.000
  20572514.709   -23295796.55749 -18135016.69448  20572514.994    20572520.637
       245.000         214.000
  23616681.269   -10337929.64849  -8041158.01846  23616680.402    23616688.730
       218.000         163.000
  22625692.373   -13017844.24049  -9907434.45146  22625692.539    22625699.552
       228.000         178.000
 00  2  4  2 21 30.0000000  0  6G 6G 5G10G30G17G24
  21493575.950   -21596104.18649 -16817691.68347  21493575.757    21493581.924
       239.000         203.000
  21437687.463   -21181272.38749 -16491183.62847  21437687.008    21437694.253
       238.000         202.000
  20743604.181   -25351177.39549 -19739024.61847  20743603.552    20743609.970
       242.000         211.000
  20573984.779   -23288071.21549 -18128996.94048  20573985.087    20573990.521
       244.000         214.000
  23602279.884   -10413608.97049  -8100128.81846  23602279.032    23602286.824
       217.000         163.000
  22639909.237   -12943133.98249  -9849218.64946  22639908.817    22639915.944
       228.000         178.000
 00  2  4  2 22  0.0000000  0  6G 6G 5G10G30G17G24
  21482705.563   -21653228.07749 -16862203.75147  21482705.283    21482711.558
       240.000         203.000
  21452554.275   -21103146.79449 -16430306.55247  21452553.686    21452560.424
       239.000         202.000
  20744544.023   -25346238.44249 -19735176.04947  20744543.581    20744549.672
       244.000         211.000
  20575570.370   -23279738.82449 -18122504.15748  20575570.569    20575576.159
       246.000         214.000
  23587913.064   -10489106.68549  -8158958.11046  23587912.588    23587920.334
       219.000         163.000
  22654142.690   -12868336.66849  -9790934.99946  22654142.963    22654148.653
       228.000         178.000
 00  2  4  2 22 30.0000000  0  6G 6G 5G10G30G17G24
  21471868.210   -21710178.65949 -16906580.78447  21471867.785    21471874.039
       239.000         204.000
  21467494.164   -21024636.96049 -16369130.07247  21467493.783    21467500.683
       238.000         202.000
  20745605.302   -25340661.40049 -19730830.27347  20745604.637    20745611.011
       242.000         211.000
  20577270.823   -23270802.79949 -18115541.01648  20577271.142    20577276.696
       244.000         214.000
  23573580.835   -10564422.55749  -8217645.72745  23573580.230    23573586.905
       218.000         162.000
  22668391.000   -12793461.06549  -9732590.35546  22668389.910    22668397.681
       228.000         178.000
 00  2  4  2 23  0.0000000  0  6G 6G 5G10G30G17G24
  21461060.426   -21766973.76749 -16950836.66247  21461060.237    21461065.938
       241.000         204.000
  21482506.953   -20945744.37149 -16307655.33947  21482506.490    21482513.275
       239.000         201.000
  20746788.525   -25334443.39949 -19725985.04347  20746787.798    20746794.122
       244.000         211.000
  20579083.812   -23261275.54349 -18108117.17148  20579084.226    20579089.662
       246.000         214.000
  23559284.461   -10639550.05249  -8276186.55846  23559283.637    23559291.701
       219.000         163.000
  22682652.373   -12718516.94849  -9674192.32146  22682652.147    22682658.950
       229.000         177.000
 00  2  4  2 23 30.0000000  0  6G 6G 5G10G30G17G24
  21450277.564   -21823637.92049 -16994990.50447  21450277.422    21450283.342
       239.000         204.000
  21497592.565   -20866468.99249 -16245882.31747  21497592.047    21497599.015
       238.000         201.000
  20748091.679   -25327595.10149 -19720648.67847  20748090.846    20748097.328
       242.000         211.000
  20581003.357   -23251188.42449 -18100257.07548  20581003.708    20581009.045
       244.000         214.000
  23545023.591   -10714491.21549  -8334582.18746  23545022.240    23545031.059
       218.000         163.000
  22696921.978   -12643529.50649  -9615760.53446  22696921.788    22696928.743
       227.000         177.000
 00  2  4  2 24  0.0000000  0  6G 6G 5G10G30G17G24
  21439517.217   -21880183.74349 -17039052.14347  21439517.121    21439523.020
       239.000         204.000
  21512749.552   -20786818.51349 -16183817.00747  21512748.894    21512755.899
       238.000         201.000
  20749512.367   -25320129.18149 -19714831.04247  20749511.562    20749518.028
       242.000         211.000
  20583029.941   -23240538.57949 -18091958.48548  20583030.275    20583035.891
       245.000         214.000
  23530799.367   -10789239.61249  -8392827.62546  23530798.617    23530806.362
       219.000         163.000
  22711191.934   -12568540.30749  -9557327.36546  22711192.089    22711198.753
       227.000         177.000
 00  2  4  2 24 30.0000000  0  6G 6G 5G10G30G17G24
  21428778.293   -21936616.89149 -17083025.98247  21428778.136    21428784.225
       239.000         204.000
  21527979.631   -20706783.92149 -16121452.40347  21527979.160    21527986.231
       238.000         201.000
  20751051.019   -25312043.45949 -19708530.44847  20751050.277    20751056.779
       242.000         211.000
  20585166.903   -23229308.80249 -18083208.00348  20585167.255    20585172.659
       245.000         213.000
  23516614.307   -10863782.32549  -8450912.78946  23516613.997    23516621.363
       218.000         163.000
  22725463.293   -12493543.65449  -9498888.39846  22725463.349    22725469.845
       226.000         176.000
 00  2  4  2 25  0.0000000  0  6G 6G 5G10G30G17G24
  21418061.736   -21992932.58449 -17126908.29947  21418061.575    21418067.373
       240.000         204.000
  21543280.301   -20626378.49949 -16058798.83447  21543279.908    21543286.876
       237.000         200.000
  20752705.773   -25303347.40149 -19701754.26747  20752704.951    20752711.303
       242.000         211.000
  20587416.545   -23217486.86949 -18073996.09748  20587416.688    20587422.108
       244.000         214.000
  23502468.158   -10938120.64549  -8508838.67946  23502467.181    23502475.187
       220.000         164.000
  22739735.747   -12418541.49449  -9440445.13646  22739735.119    22739741.603
       227.000         176.000
 00  2  4  2 25 30.0000000  0  6G 6G 5G10G30G17G24
  21407369.890   -22049118.46849 -17170689.47447  21407369.776    21407375.881
       240.000         205.000
  21558651.012   -20545604.92049 -15995858.39647  21558650.477    21558657.338
       237.000         200.000
  20754473.877   -25294055.83349 -19694514.05847  20754473.067    20754479.515
       242.000         211.000
  20589784.165   -23205044.79349 -18064300.97048  20589784.509    20589790.002
       245.000         213.000
  23488364.077   -11012237.83249  -8566592.26946  23488363.354    23488370.668
       219.000         164.000
  22754010.687   -12343526.12249  -9381991.59546  22754010.456    22754017.259
       226.000         176.000
 00  2  4  2 26  0.0000000  0  6G 6G 5G10G30G17G24
  21396703.825   -22105168.87949 -17214365.07447  21396703.341    21396709.440
       240.000         205.000
  21574093.074   -20464456.33549 -15932625.73247  21574092.457    21574099.489
       237.000         200.000
  20756353.923   -25284175.98749 -19686815.44447  20756353.096    20756359.605
       242.000         211.000
  20592271.903   -23191971.68249 -18054114.12248  20592272.157    20592277.796
       244.000         213.000
  23474303.049   -11086128.84849  -8624169.62146  23474302.339    23474310.201
       221.000         165.000
  22768290.695   -12268484.11749  -9323517.27646  22768290.650    22768297.696
       225.000         176.000
 00  2  4  2 26 30.0000000  0  6G 6G 5G10G30G17G24
  21386062.694   -22161088.28749 -17257938.60147  21386062.597    21386068.657
       240.000         205.000
  21589603.354   -20382949.27249 -15869113.74547  21589603.089    21589609.562
       237.000         200.000
  20758342.626   -25273725.14349 -19678671.90047  20758341.889    20758348.397
       242.000         211.000
  20594874.850   -23178293.06049 -18043455.44848  20594875.255    20594880.651
       244.000         213.000
  23460281.687   -11159811.38049  -8681584.49646  23460280.985    23460288.948
       220.000         165.000
  22782578.143   -12193403.02949  -9265012.51946  22782578.579    22782584.959
       225.000         175.000
 00  2  4  2 27  0.0000000  0  6G 6G 5G10G30G17G24
  21375447.436   -22216871.82949 -17301406.26647  21375447.216    21375453.270
       241.000         205.000
  21605177.997   -20301104.06049 -15805338.26447  21605177.547    21605184.421
       238.000         199.000
  20760437.996   -25262713.86649 -19670091.65247  20760437.198    20760443.609
       243.000         211.000
  20597590.041   -23164024.64749 -18032337.19548  20597590.265    20597595.767
       245.000         213.000
  23446296.138   -11233305.78749  -8738852.79046  23446295.697    23446302.280
       221.000         166.000
  22796871.826   -12118289.12249  -9206482.18446  22796871.604    22796878.620
       225.000         175.000
 00  2  4  2 27 30.0000000  0  6G 6G 5G10G30G17G24
  21364855.764   -22272531.25949 -17344777.22647  21364855.728    21364861.591
       240.000         205.000
  21620816.818   -20218921.53849 -15741299.95047  21620816.520    21620823.145
       237.000         199.000
  20762641.242   -25251135.58249 -19661069.58647  20762640.463    20762646.835
       242.000         211.000
  20600414.211   -23149183.35049 -18020772.54248  20600414.520    20600419.899
       245.000         213.000
  23432342.328   -11306633.33749  -8795991.06046  23432341.617    23432349.325
       221.000         166.000
  22811170.396   -12043149.50349  -9147931.82846  22811170.325    22811176.742
       226.000         175.000
 00  2  4  2 28  0.0000000  0  6G 6G 5G10G30G17G24
  21354290.542   -22328051.71149 -17388039.88047  21354290.562    21354296.106
       240.000         205.000
  21636521.121   -20136394.72249 -15676993.34847  21636520.938    21636527.249
       236.000         199.000
  20764958.297   -25238959.21649 -19651581.47847  20764957.469    20764963.728
       242.000         211.000
  20603344.076   -23133786.86549 -18008775.27448  20603344.391    20603350.010
       244.000         213.000
  23418416.506   -11379813.61749  -8853014.59146  23418415.119    23418423.274
       220.000         167.000
  22825476.094   -11967972.50549  -9089352.33546  22825476.362    22825482.255
       225.000         175.000
 00  2  4  2 28 30.0000000  0  6G 6G 5G10G30G17G24
  21343754.325   -22383419.87549 -17431183.87547  21343753.877    21343759.957
       240.000         205.000
  21652287.641   -20053540.91249 -15612431.93547  21652287.054    21652294.106
       236.000         198.000
  20767391.545   -25226172.31249 -19641617.62547  20767390.675    20767397.184
       242.000         211.000
  20606381.738   -23117823.66249 -17996336.40448  20606382.099    20606387.467
       244.000         213.000
  23404517.545   -11452852.94049  -8909928.26546  23404516.680    23404524.138
       221.000         167.000
  22839788.276   -11892761.53249  -9030746.36346  22839788.394    22839794.990
       224.000         175.000
 00  2  4  2 29  0.0000000  0  6G 6G 5G10G30G17G24
  21333251.637   -22438611.51449 -17474190.31447  21333251.457    21333257.328
       240.000         205.000
  21668122.653   -19970327.43149 -15547590.26647  21668122.421    21668129.304
       236.000         198.000
  20769948.054   -25212737.65749 -19631149.03547  20769947.395    20769953.757
       242.000         211.000
  20609535.434   -23101250.80849 -17983422.48548  20609535.855    20609541.223
       244.000         213.000
  23390650.310   -11525725.48749  -8966711.99246  23390649.630    23390656.310
       221.000         168.000
  22854108.188   -11817509.85349  -8972108.67846  22854108.580    22854115.110
       224.000         175.000
 00  2  4  2 29 30.0000000  0  6G 6G 5G10G30G17G24
  21322785.010   -22493613.89949 -17517049.28547  21322784.923    21322790.773
       242.000         206.000
  21684029.473   -19886736.65949 -15482454.60647  21684028.959    21684035.788
       237.000         198.000
  20772632.044   -25198633.03649 -19620158.39247  20772631.227    20772637.579
       244.000         211.000
  20612808.257   -23084051.98049 -17970020.79248  20612808.480    20612814.111
       245.000         213.000
  23376820.326   -11598402.09449  -9023343.02446  23376819.844    23376827.215
       222.000         168.000
  22868438.126   -11742205.69949  -8913430.09846  22868438.030    22868445.068
       225.000         175.000
 00  2  4  2 30  0.0000000  0  6G 6G 5G10G30G17G24
  21312356.598   -22548415.45049 -17559751.75447  21312356.283    21312362.187
       240.000         206.000
  21700007.175   -19802773.25849 -15417028.59047  21700006.608    21700013.333
       235.000         197.000
  20775442.694   -25183862.98949 -19608649.23447  20775441.841    20775448.390
       242.000         210.000
  20616200.359   -23066226.41749 -17956130.73648  20616200.631    20616206.172
       244.000         213.000
  23363033.169   -11670853.64249  -9079798.68346  23363032.449    23363040.270
       221.000         169.000
  22882778.135   -11666848.36749  -8854710.07946  22882778.092    22882785.685
       224.000         175.000
 00  2  4  2 30 30.0000000  0  6G 6G 5G10G30G17G24
  21301965.175   -22603022.69549 -17602302.82447  21301965.086    21301970.811
       240.000         206.000
  21716055.202   -19718440.16449 -15351314.49947  21716054.588    21716061.772
       236.000         197.000
  20778375.384   -25168451.39849 -19596640.17747  20778374.711    20778380.991
       242.000         210.000
  20619713.658   -23047763.98649 -17941744.42048  20619714.079    20619719.417
       244.000         213.000
  23349293.882   -11743053.82049  -9136058.47846  23349293.171    23349300.608
       221.000         169.000
  22897124.295   -11591458.67949  -8795964.85646  22897123.881    22897130.827
       224.000         175.000
 00  2  4  2 31  0.0000000  0  6G 6G 5G10G30G17G24
  21291606.003   -22657460.49149 -17644721.85247  21291605.818    21291611.793
       241.000         206.000
  21732171.968   -19633746.05949 -15285319.09647  21732171.401    21732178.262
       236.000         197.000
  20781427.059   -25152414.68349 -19584144.00747  20781426.388    20781432.672
       242.000         210.000
  20623340.882   -23028702.74849 -17926891.50048  20623341.328    20623346.629
       244.000         213.000
  23335603.115   -11814999.12249  -9192119.66946  23335602.159    23335609.997
       222.000         170.000
  22911473.962   -11516050.61349  -8737205.31346  22911474.586    22911481.328
       224.000         174.000
 00  2  4  2 31 30.0000000  0  6G 6G 5G10G30G17G24
  21281274.346   -22711753.65649 -17687028.18247  21281274.400    21281280.075
       241.000         206.000
  21748349.930   -19548730.32549 -15219073.07147  21748349.611    21748356.289
       235.000         196.000
  20784592.400   -25135780.46849 -19571182.25447  20784591.537    20784597.884
       243.000         210.000
  20627073.047   -23009090.04649 -17911608.86948  20627073.294    20627078.820
       244.000         213.000
  23321957.167   -11886708.68949  -9247997.16146  23321956.985    23321963.779
       222.000         170.000
  22925824.407   -11440638.43349  -8678442.55246  22925823.822    22925830.689
       224.000         174.000
 00  2  4  2 32  0.0000000  0  6G 6G 5G10G30G17G24
  21270966.739   -22765920.22249 -17729235.86047  21270966.456    21270972.239
       241.000         206.000
  21764585.408   -19463412.34649 -15152591.53847  21764584.991    21764591.747
       235.000         196.000
  20787866.732   -25118573.65749 -19557774.31947  20787865.960    20787872.229
       242.000         210.000
  20630907.870   -22988937.72949 -17895905.76248  20630908.209    20630913.806
       244.000         213.000
  23308349.860   -11958215.15849  -9303716.40946  23308348.926    23308356.873
       223.000         170.000
  22940172.382   -11365239.22249  -8619689.90846  22940172.189    22940178.522
       223.000         174.000
 00  2  4  2 32 30.0000000  0  6G 6G 5G10G30G17G24
  21260683.769   -22819957.24549 -17771342.59247  21260683.575    21260689.290
       241.000         206.000
  21780877.903   -19377794.81749 -15085876.58347  21780877.632    21780884.192
       235.000         195.000
  20791249.036   -25100799.43949 -19543924.24847  20791248.158    20791254.522
       243.000         210.000
  20634847.309   -22968235.89349 -17879774.45248  20634847.572    20634853.142
       245.000         213.000
  23294777.355   -12029538.73349  -9359293.13646  23294776.482    23294783.991
       221.000         170.000
  22954518.023   -11289852.38749  -8560946.89146  22954518.158    22954524.347
       224.000         174.000
 00  2  4  2 33  0.0000000  0  6G 6G 5G10G30G17G24
  21250428.006   -22873851.36749 -17813337.97247  21250428.035    21250433.725
       241.000         206.000
  21797227.106   -19291879.25449 -15018929.39147  21797226.694    21797233.353
       235.000         195.000
  20794742.652   -25082440.12649 -19529618.26347  20794741.880    20794748.166
       242.000         210.000
  20638893.404   -22946973.33549 -17863206.21948  20638893.511    20638899.034
       244.000         213.000
  23281235.216   -12100702.71549  -9414745.51146  23281234.916    23281242.312
       222.000         171.000
  22968865.362   -11214456.57549  -8502196.88446  22968865.385    22968872.241
       223.000         174.000
 00  2  4  2 33 30.0000000  0  6G 6G 5G10G30G17G24
  21240207.403   -22927560.93549 -17855189.55447  21240207.360    21240213.128
       241.000         207.000
  21813636.071   -19205649.68149 -14951737.53047  21813635.624    21813642.692
       235.000         195.000
  20798350.122   -25063482.70849 -19514846.22547  20798349.372    20798355.628
       242.000         210.000
  20643055.490   -22925101.44549 -17846163.19448  20643055.830    20643061.215
       244.000         213.000
  23267723.307   -12171707.86549  -9470074.12846  23267722.971    23267730.275
       223.000         171.000
  22983218.766   -11139028.65649  -8443421.86146  22983218.429    22983225.201
       224.000         173.000
 00  2  4  2 34  0.0000000  0  6G 6G 5G10G30G17G24
  21230028.182   -22981053.14749 -17896871.76347  21230027.967    21230033.815
       241.000         207.000
  21830110.305   -19119076.90249 -14884278.22347  21830110.149    21830116.576
       235.000         194.000
  20802073.736   -25043914.90549 -19499598.55947  20802072.855    20802079.138
       242.000         210.000
  20647340.617   -22902583.00749 -17828616.35748  20647340.823    20647346.582
       244.000         213.000
  23254244.332   -12242540.34449  -9525268.19546  23254243.013    23254251.054
       224.000         172.000
  22997582.096   -11063548.88049  -8384606.41946  22997581.456    22997588.481
       223.000         173.000
 00  2  4  2 34 30.0000000  0  6G 6G 5G10G30G17G24
  21219895.334   -23034301.49749 -17938363.94947  21219895.102    21219900.766
       241.000         207.000
  21846652.314   -19032148.14649 -14816541.54447  21846651.708    21846658.683
       234.000         194.000
  20805917.327   -25023716.56649 -19483859.57347  20805916.614    20805922.970
       242.000         210.000
  20651749.608   -22879413.56749 -17810562.25248  20651750.021    20651755.430
       244.000         213.000
  23240803.415   -12313172.45049  -9580306.13846  23240802.627    23240810.406
       223.000         172.000
  23011956.730   -10988009.37749  -8325744.44246  23011956.324    23011962.685
       222.000         173.000
 00  2  4  2 35  0.0000000  0  6G 6G 5G10G30G17G24
  21209808.642   -23087307.33149 -17979667.16247  21209808.375    21209814.244
       241.000         207.000
  21863262.594   -18944860.68049 -14748525.33647  21863261.949    21863269.067
       234.000         194.000
  20809883.074   -25002876.24249 -19467620.33247  20809882.208    20809888.427
       242.000         210.000
  20656283.315   -22855588.75249 -17791997.45748  20656283.722    20656289.140
       244.000         213.000
  23227405.244   -12383580.19049  -9635169.23946  23227404.662    23227411.513
       224.000         172.000
  23026344.255   -10912402.44549  -8266829.92646  23026343.394    23026349.939
       223.000         172.000
 00  2  4  2 35 30.0000000  0  6G 6G 5G10G30G17G24
  21199763.403   -23140095.27149 -18020800.58947  21199763.319    21199769.030
       241.000         207.000
  21879939.600   -18857222.43449 -14680235.80247  21879939.193    21879946.069
       234.000         194.000
  20813966.586   -24981417.18049 -19450898.96347  20813965.831    20813971.848
       242.000         210.000
  20660936.205   -22831137.69449 -17772944.68648  20660936.441    20660942.135
       244.000         213.000
  23214053.709   -12453742.60449  -9689841.19246  23214053.045    23214060.170
       223.000         173.000
  23040739.984   -10836752.42449  -8207881.82646  23040739.998    23040746.345
       223.000         172.000
 00  2  4  2 36  0.0000000  0  6G 6G 5G10G30G17G24
  21189752.738   -23192701.66749 -18061792.55547  21189752.410    21189758.306
       241.000         208.000
  21896678.623   -18769258.32849 -14611692.34647  21896678.165    21896685.391
       234.000         193.000
  20818163.735   -24959360.95049 -19433712.26047  20818162.956    20818169.174
       243.000         210.000
  20665702.581   -22806090.38149 -17753427.29748  20665703.021    20665708.327
       245.000         213.000
  23200747.373   -12523667.47049  -9744328.03546  23200746.997    23200753.784
       224.000         173.000
  23055139.200   -10761083.97549  -8148919.36846  23055138.849    23055145.906
       223.000         172.000
 00  2  4  2 36 30.0000000  0  6G 6G 5G10G30G17G24
  21179772.385   -23245148.50549 -18102660.19547  21179772.229    21179778.052
       242.000         208.000
  21913474.607   -18680994.82349 -14542915.59647  21913474.427    21913481.063
       234.000         193.000
  20822470.557   -24936728.29949 -19416076.41147  20822469.774    20822476.022
       243.000         209.000
  20670577.539   -22780472.11449 -17733465.02048  20670577.617    20670583.170
       245.000         213.000
  23187484.909   -12593361.86549  -9798635.30046  23187484.029    23187491.582
       223.000         173.000
  23069538.820   -10685413.33949  -8089955.21246  23069538.271    23069545.371
       223.000         171.000
 00  2  4  2 37  0.0000000  0  6G 6G 5G10G30G17G24
  21169817.372   -23297462.29949 -18143424.15147  21169817.171    21169822.900
       241.000         208.000
  21930325.269   -18592443.90549 -14473914.88847  21930324.832    21930331.479
       233.000         192.000
  20826883.500   -24913538.01849 -19398006.03547  20826882.629    20826889.225
       242.000         209.000
  20675558.258   -22754298.30549 -17713069.84148  20675558.489    20675564.010
       244.000         213.000
  23174262.169   -12662847.53049  -9852779.89946  23174261.293    23174268.593
       224.000         173.000
  23083936.839   -10609751.11549  -8030997.61046  23083935.954    23083943.171
       222.000         171.000
 00  2  4  2 37 30.0000000  0  6G 6G 5G10G30G17G24
  21159886.742   -23349648.01949 -18184088.30947  21159886.605    21159892.506
       241.000         208.000
  21947230.315   -18503607.36749 -14404691.62347  21947230.009    21947236.515
       233.000         192.000
  20831400.000   -24889803.59849 -19379511.65847  20831399.242    20831405.238
       242.000         209.000
  20680640.784   -22727589.37449 -17692257.68848  20680641.080    20680646.702
       244.000         213.000
  23161074.762   -12732147.61849  -9906779.90846  23161074.142    23161082.301
       223.000         173.000
  23098330.512   -10534111.76049  -7972057.81946  23098330.668    23098336.729
       222.000         171.000
 00  2  4  2 38  0.0000000  0  6G 6G 5G10G30G17G24
  21149982.768   -23401693.64749 -18224643.31047  21149982.512    21149988.431
       242.000         208.000
  21964189.436   -18414486.41149 -14335246.73147  21964188.968    21964195.879
       232.000         192.000
  20836022.856   -24865510.25649 -19360581.75747  20836022.102    20836028.455
       242.000         209.000
  20685826.627   -22700337.46349 -17671022.43448  20685827.100    20685832.584
       244.000         213.000
  23147919.078   -12801281.04649  -9960650.04246  23147918.649    23147925.766
       223.000         174.000
  23112720.283   -10458492.81549  -7913133.94546  23112720.317    23112726.901
       222.000         171.000
 00  2  4  2 38 30.0000000  0  6G 6G 5G10G30G17G24
  21140106.532   -23453593.29449 -18265084.55447  21140106.419    21140111.893
       242.000         209.000
  21981204.404   -18325072.07949 -14265573.24047  21981204.199    21981210.655
       233.000         191.000
  20840756.027   -24840637.07449 -19341200.03347  20840755.255    20840761.369
       242.000         209.000
  20691114.051   -22672551.94049 -17649371.37847  20691114.330    20691119.888
       244.000         212.000
  23134797.219   -12870236.65849 -10014381.63246  23134797.063    23134804.215
       224.000         174.000
  23127106.175   -10382894.46149  -7854226.11246  23127105.588    23127112.532
       222.000         170.000
 00  2  4  2 39  0.0000000  0  6G 6G 5G10G30G17G24
  21130258.740   -23505343.75749 -18305409.55447  21130258.686    21130264.608
       243.000         209.000
  21998275.233   -18235364.55049 -14195671.28147  21998275.131    21998281.311
       232.000         191.000
  20845604.276   -24815159.32249 -19321347.20947  20845603.469    20845609.842
       242.000         209.000
  20696505.907   -22644217.57049 -17627292.64947  20696506.157    20696511.871
       244.000         212.000
  23121709.566   -12939012.35449 -10067973.01346  23121708.394    23121715.889
       223.000         174.000
  23141487.817   -10307318.34949  -7795335.60946  23141487.592    23141493.674
       222.000         170.000
 00  2  4  2 39 30.0000000  0  6G 6G 5G10G30G17G24
  21120442.694   -23556927.22849 -18345604.43147  21120442.492    21120448.168
       243.000         209.000
  22015403.020   -18145357.48949 -14125535.91847  22015402.544    22015409.362
       232.000         190.000
  20850571.132   -24789058.21749 -19301008.66147  20850570.311    20850576.427
       243.000         209.000
  20702006.895   -22615309.66249 -17604767.00947  20702007.169    20702012.654
       244.000         212.000
  23108658.785   -13007594.31649 -10121413.43746  23108657.979    23108665.670
       223.000         174.000
  23155868.191   -10231748.95649  -7736450.35846  23155868.096    23155875.043
       222.000         169.000
 00  2  4  2 40  0.0000000  0  6G 6G 5G10G30G17G24
  21110663.112   -23608319.24249 -18385650.12547  21110662.962    21110668.675
       243.000         209.000
  22032587.709   -18055051.15349 -14055167.35147  22032587.307    22032594.278
       233.000         190.000
  20855661.557   -24762307.68349 -19280164.06447  20855660.786    20855667.090
       243.000         209.000
  20707621.341   -22585805.57449 -17581776.81147  20707621.862    20707627.026
       244.000         212.000
  23095647.013   -13075971.37049 -10174694.19646  23095646.297    23095653.119
       224.000         175.000
  23170250.616   -10156168.85249  -7677556.75546  23170250.070    23170257.196
       221.000         169.000
 00  2  4  2 40 30.0000000  0  6G 6G 5G10G30G17G24
  21100924.689   -23659494.86749 -18425527.20947  21100924.504    21100930.114
       243.000         209.000
  22049831.568   -17964434.19849 -13984556.73747  22049831.100    22049837.978
       231.000         190.000
  20860876.311   -24734903.85149 -19258810.40547  20860875.586    20860881.696
       243.000         209.000
  20713352.627   -22555687.55449 -17558308.22547  20713353.084    20713358.425
       244.000         212.000
  23082677.177   -13144128.10149 -10227803.28046  23082676.286    23082684.721
       224.000         175.000
  23184639.608   -10080553.83349  -7618635.94946  23184639.088    23184646.299
       220.000         168.000
 00  2  4  2 41  0.0000000  0  6G 6G 5G10G30G17G24
  21091230.606   -23710437.44549 -18465222.68947  21091230.565    21091236.243
       243.000         210.000
  22067136.810   -17873494.50149 -13913694.64547  22067136.349    22067143.321
       231.000         189.000
  20866213.920   -24706854.34849 -19236953.61947  20866213.091    20866219.191
       243.000         209.000
  20719202.728   -22524945.09749 -17534353.06447  20719203.084    20719208.582
       244.000         212.000
  23069748.116   -13212070.49049 -10280745.32946  23069747.076    23069754.733
       223.000         175.000
  23199037.894   -10004890.22249  -7559677.27746  23199037.131    23199044.175
       219.000         167.000
 00  2  4  2 41 30.0000000  0  6G 6G 5G10G30G17G24
  21081581.321   -23761144.68749 -18504734.79847  21081581.205    21081586.978
       243.000         210.000
  22084502.641   -17782236.33149 -13842584.38847  22084501.887    22084508.978
       231.000         189.000
  20871667.930   -24678193.32149 -19214620.32747  20871667.096    20871673.384
       243.000         209.000
  20725166.982   -22493602.79649 -17509930.49447  20725167.125    20725172.768
       244.000         212.000
  23056857.621   -13279810.22249 -10333529.46646  23056856.990    23056864.594
       224.000         175.000
  23213442.914    -9929191.24249  -7500691.05546  23213442.638    23213449.078
       221.000         166.000
 00  2  4  2 42  0.0000000  0  6G 6G 5G10G30G17G24
  21071978.994   -23811604.93349 -18544054.43747  21071978.823    21071984.569
       243.000         210.000
  22101927.195   -17690669.75449 -13771233.82347  22101926.485    22101933.563
       232.000         189.000
  20877235.434   -24648935.69049 -19191822.14847  20877234.631    20877240.922
       243.000         209.000
  20731241.854   -22461679.09549 -17485054.89247  20731242.000    20731247.440
       244.000         212.000
  23044007.290   -13347338.93949 -10386149.18546  23044006.057    23044013.704
       224.000         175.000
  23227853.576    -9853462.54949  -7441681.66346  23227852.942    23227858.970
       219.000         166.000
 00  2  4  2 42 30.0000000  0  6G 6G 5G10G30G17G24
  21062418.670   -23861844.82849 -18583202.37547  21062418.561    21062424.122
       243.000         210.000
  22119408.181   -17598806.62149 -13699652.16847  22119407.533    22119414.406
       231.000         189.000
  20882909.509   -24619118.21249 -19168587.72547  20882908.773    20882914.943
       243.000         209.000
  20737422.576   -22429199.16149 -17459745.85847  20737423.001    20737428.309
       244.000         212.000
  23031196.940   -13414657.54849 -10438605.17946  23031196.345    23031203.792
       224.000         175.000
  23242266.031    -9777724.16649  -7382664.72546  23242266.064    23242272.713
       219.000         165.000
 00  2  4  2 43  0.0000000  0  6G 6G 5G10G30G17G24
  21052896.844   -23911882.18649 -18622192.49447  21052896.763    21052902.305
       243.000         210.000
  22136942.350   -17506664.09949 -13627852.81147  22136942.034    22136948.618
       230.000         188.000
  20888687.415   -24588754.93949 -19144928.00347  20888686.583    20888692.688
       243.000         209.000
  20743705.365   -22396182.91949 -17434018.91647  20743705.661    20743711.199
       244.000         212.000
  23018425.386   -13481772.34249 -10490902.36046  23018423.987    23018432.336
       224.000         175.000
  23256675.932    -9701999.29549  -7323658.32346  23256675.618    23256682.054
       219.000         164.000
 00  2  4  2 43 30.0000000  0  6G 6G 5G10G30G17G24
  21043411.178   -23961729.67949 -18661034.67547  21043411.090    21043416.717
       244.000         210.000
  22154522.816   -17414278.22249 -13555863.83047  22154522.133    22154529.461
       230.000         188.000
  20894565.519   -24557865.20749 -19120858.06347  20894564.854    20894570.972
       243.000         209.000
  20750090.650   -22362628.04049 -17407872.26847  20750090.881    20750096.139
       244.000         212.000
  23005692.714   -13548682.52849 -10543040.10446  23005692.490    23005699.496
       224.000         176.000
  23271081.605    -9626297.05149  -7264669.55946  23271081.006    23271088.411
       218.000         163.000
 00  2  4  2 44  0.0000000  0  6G 6G 5G10G30G17G24
  21033957.691   -24011407.77949 -18699744.85447  21033957.404    21033963.118
       244.000         211.000
  22172147.429   -17321660.26149 -13483694.00447  22172146.992    22172153.839
       231.000         188.000
  20900543.313   -24526451.53049 -19096379.84547  20900542.506    20900548.621
       243.000         209.000
  20756577.836   -22328537.67449 -17381308.35347  20756578.210    20756583.443
       244.000         212.000
  22992997.455   -13615396.26349 -10595024.77646  22992996.580    22993004.495
       224.000         176.000
  23285482.373    -9550620.12749  -7205700.51046  23285482.316    23285488.373
       219.000         163.000
 00  2  4  2 44 30.0000000  0  7G 6G 5G13G10G30G17G24
  21024533.982   -24060929.52049 -18738333.19847  21024533.908    21024539.438
       244.000         211.000
  22189814.949   -17228816.67749 -13411348.37546  22189814.601    22189821.276
       230.000         187.000
  24838550.133    -2150775.71649  -1663124.40945  24838550.190    24838554.809
       212.000         135.000
  20906620.932   -24494513.38649 -19071492.95947  20906620.378    20906626.102
       243.000         209.000
  20763166.376   -22293914.76649 -17354329.47247  20763166.779    20763172.131
       244.000         212.000
  22980336.398   -13681930.24449 -10646869.37546  22980335.745    22980342.340
       224.000         176.000
  23299875.011    -9474986.08849  -7146764.87946  23299874.363    23299881.612
       217.000         163.000
 00  2  4  2 45  0.0000000  0  7G 6G 5G13G10G30G17G24
  21015145.100   -24110268.30949 -18776778.98347  21015145.068    21015150.815
       244.000         211.000
  22207525.533   -17135747.02149 -13338826.57946  22207525.230    22207532.106
       230.000         187.000
  24834923.044    -2169835.81949  -1677976.37045  24834922.611    24834928.126
       208.000         135.000
  20912803.734   -24462022.63349 -19046175.46247  20912802.938    20912809.261
       243.000         209.000
  20769860.349   -22258737.54849 -17326918.65547  20769860.515    20769866.052
       244.000         212.000
  22967710.755   -13748278.18749 -10698569.00446  22967709.775    22967717.232
       224.000         176.000
  23314263.100    -9399376.10649  -7087847.99245  23314262.692    23314269.960
       217.000         162.000
 00  2  4  2 45 30.0000000  0  7G 6G 5G13G10G30G17G24
  21005798.254   -24159386.28249 -18815052.70547  21005797.989    21005803.592
       244.000         211.000
  22225286.568   -17042412.10849 -13266098.09446  22225286.165    22225293.096
       230.000         187.000
  24831378.634    -2188461.24849  -1692489.63045  24831378.794    24831383.862
       209.000         135.000
  20919098.716   -24428942.27349 -19020398.54247  20919098.040    20919104.005
       243.000         209.000
  20776666.558   -22222970.67649 -17299048.37447  20776666.913    20776672.211
       244.000         211.000
  22955126.675   -13814407.74249 -10750098.47946  22955125.807    22955133.159
       224.000         177.000
  23328653.106    -9323755.88349  -7028923.13345  23328653.209    23328660.385
       217.000         162.000
 00  2  4  2 46  0.0000000  0  7G 6G 5G13G10G30G17G24
  20996495.125   -24208274.42849 -18853147.33047  20996494.799    20996500.583
       244.000         211.000
  22243100.496   -16948799.20749 -13193152.99246  22243099.832    22243107.264
       229.000         186.000
  24827918.592    -2206643.84349  -1706657.84045  24827918.380    24827923.455
       207.000         136.000
  20925509.236   -24395254.66149 -18994148.42847  20925508.502    20925514.462
       243.000         209.000
  20783583.100   -22186623.95449 -17270726.25847  20783583.694    20783588.879
       244.000         211.000
  22942582.743   -13880326.32449 -10801463.52746  22942581.771    22942589.071
       224.000         177.000
  23343042.738    -9248137.64249  -6969999.81645  23343042.498    23343049.507
       217.000         162.000
 00  2  4  2 46 30.0000000  0  7G 6G 5G13G10G30G17G24
  20987239.173   -24256914.77849 -18891048.87947  20987239.067    20987244.965
       244.000         211.000
  22260967.322   -16854908.35649 -13119991.31646  22260967.133    22260974.192
       229.000         186.000
  24824547.306    -2224359.64749  -1720462.29445  24824546.884    24824552.861
       211.000         136.000
  20932036.454   -24360953.75849 -18967420.43747  20932035.583    20932041.728
       243.000         209.000
  20790612.138   -22149686.19449 -17241943.60047  20790612.359    20790617.873
       244.000         211.000
  22930080.130   -13946027.62449 -10852659.28646  22930080.066    22930086.642
       225.000         177.000
  23357434.094    -9172510.32449  -6911069.42845  23357433.675    23357440.663
       218.000         162.000
 00  2  4  2 47  0.0000000  0  7G 6G 5G13G10G30G17G24
  20978028.933   -24305314.84549 -18928763.18947  20978028.783    20978034.261
       244.000         211.000
  22278887.673   -16760736.46049 -13046610.63346  22278887.677    22278894.354
       230.000         185.000
  24821269.724    -2241583.33249  -1733883.29445  24821269.583    24821274.579
       212.000         135.000
  20938676.493   -24326059.89849 -18940230.39747  20938675.626    20938681.846
       243.000         208.000
  20797753.941   -22112155.61649 -17212699.00047  20797754.194    20797759.430
       245.000         211.000
  22917618.598   -14011513.28049 -10903687.00746  22917617.544    22917624.644
       225.000         177.000
  23371829.244    -9096863.36349  -6852123.72845  23371828.780    23371835.954
       217.000         162.000
 00  2  4  2 47 30.0000000  0  7G 6G 5G13G10G30G17G24
  20968860.224   -24353496.57349 -18966307.36247  20968860.050    20968865.878
       244.000         211.000
  22296862.247   -16666279.37449 -12973007.72446  22296860.984    22296868.645
       230.000         185.000
  24818085.961    -2258313.77449  -1746919.95245  24818086.236    24818090.143
       209.000         136.000
  20945425.659   -24290592.86849 -18912593.73347  20945424.914    20945431.035
       243.000         208.000
  20805006.217   -22074044.51249 -17183002.04147  20805006.474    20805011.920
       245.000         211.000
  22905195.808   -14076795.09849 -10954555.88346  22905194.804    22905202.293
       226.000         177.000
  23386225.433    -9021210.82749  -6793173.68645  23386224.604    23386232.229
       218.000         162.000
 00  2  4  2 48  0.0000000  0  7G 6G 5G13G10G30G17G24
  20959730.533   -24401473.37849 -19003691.86547  20959730.321    20959736.070
       244.000         211.000
  22314887.347   -16571556.59349 -12899197.78246  22314886.665    22314893.795
       230.000         184.000
  24814993.093    -2274567.26249  -1759584.96945  24814993.667    24814997.307
       211.000         136.000
  20952279.384   -24254576.11649 -18884528.72047  20952278.649    20952284.625
       243.000         208.000
  20812367.685   -22035359.71749 -17152858.05547  20812368.057    20812373.378
       244.000         211.000
  22892810.927   -14141877.87749 -11005269.68246  22892810.227    22892817.594
       226.000         177.000
  23400622.575    -8945553.29449  -6734219.75845  23400622.136    23400629.077
       217.000         162.000
 00  2  4  2 48 30.0000000  0  7G 6G 5G13G10G30G17G24
  20950636.780   -24449261.29149 -19040929.17047  20950636.566    20950642.250
       244.000         211.000
  22332960.687   -16476580.73449 -12825190.62246  22332960.373    22332967.386
       230.000         184.000
  24811987.437    -2290361.69849  -1771892.25645  24811988.398    24811992.921
       209.000         136.000
  20959232.636   -24218036.49549 -18856056.27047  20959231.766    20959237.708
       243.000         208.000
  20819836.272   -21996112.01249 -17122275.43047  20819836.697    20819842.103
       245.000         211.000
  22880461.902   -14206772.44949 -11055836.81046  22880461.836    22880468.135
       226.000         178.000
  23415021.228    -8869887.88349  -6675259.68246  23415021.138    23415027.893
       217.000         163.000
 00  2  4  2 49  0.0000000  0  7G 6G 5G13G10G30G17G24
  20941576.715   -24496872.19049 -19078028.54347  20941576.508    20941582.098
       244.000         212.000
  22351079.975   -16381363.36049 -12750995.28046  22351079.769    22351086.639
       229.000         184.000
  24809065.209    -2305717.49849  -1783857.75945  24809066.441    24809069.147
       210.000         136.000
  20966285.105   -24180975.42249 -18827177.49547  20966284.323    20966290.325
       243.000         208.000
  20827408.062   -21956322.09349 -17091270.30847  20827408.555    20827413.989
       244.000         211.000
  22868148.134   -14271481.39849 -11106259.30446  22868147.141    22868154.503
       226.000         178.000
  23429417.944    -8794232.74749  -6616307.61946  23429417.892    23429424.786
       218.000         163.000
 00  2  4  2 49 30.0000000  0  7G 6G 5G13G10G30G17G24
  20932551.055   -24544302.10949 -19114986.89147  20932550.807    20932556.491
       244.000         212.000
  22369240.699   -16285928.31649 -12676630.32646  22369240.117    22369246.989
       229.000         183.000
  24806225.257    -2320641.65949  -1795486.91945  24806223.988    24806228.864
       211.000         136.000
  20973438.440   -24143384.18249 -18797885.60647  20973437.731    20973443.743
       242.000         208.000
  20835080.784   -21916001.80549 -17059851.91247  20835081.233    20835086.529
       245.000         211.000
  22855871.301   -14335996.34049 -11156530.62446  22855871.300    22855877.686
       226.000         178.000
  23443809.655    -8718603.72649  -6557375.90546  23443809.608    23443816.382
       217.000         163.000
 00  2  4  2 50  0.0000000  0  7G 6G 5G13G10G30G17G24
  20923562.818   -24591535.40049 -19151792.02247  20923562.699    20923568.211
       244.000         212.000
  22387440.817   -16190285.90349 -12602103.78746  22387440.128    22387447.509
       229.000         183.000
  24803466.971    -2335135.91249  -1806781.10045  24803467.307    24803471.269
       210.000         135.000
  20980693.667   -24105257.63149 -18768176.58747  20980692.649    20980699.127
       242.000         208.000
  20842855.268   -21875146.59249 -17028016.68347  20842855.691    20842861.104
       244.000         211.000
  22843632.843   -14400309.63949 -11206644.81946  22843632.632    22843638.722
       226.000         178.000
  23458195.991    -8643002.99149  -6498466.21746  23458195.809    23458202.399
       217.000         163.000
 00  2  4  2 50 30.0000000  0  7G 6G 5G13G10G30G17G24
  20914614.330   -24638559.94349 -19188434.49047  20914614.224    20914619.545
       244.000         212.000
  22405681.421   -16094430.96649 -12527411.64546  22405680.790    22405688.195
       229.000         182.000
  24800792.020    -2349191.98249  -1817733.83945  24800792.109    24800796.754
       207.000         135.000
  20988055.223   -24066572.24849 -18738032.11847  20988054.502    20988060.519
       242.000         207.000
  20850732.143   -21833753.44049 -16995762.28647  20850732.408    20850737.853
       244.000         211.000
  22831433.384   -14464417.83549 -11256599.19946  22831432.788    22831439.644
       226.000         178.000
  23472574.720    -8567442.24549  -6439587.69846  23472574.605    23472581.654
       217.000         163.000
 00  2  4  2 51  0.0000000  0  7G 6G 5G13G10G30G17G24
  20905708.912   -24685358.04549 -19224900.50947  20905708.799    20905714.226
       244.000         212.000
  22423963.199   -15998359.75849 -12452550.97446  22423962.734    22423969.358
       228.000         182.000
  24798204.829    -2362788.42349  -1828328.42145  24798205.979    24798210.186
       209.000         135.000
  20995527.201   -24027306.57649 -18707435.47347  20995526.140    20995532.572
       242.000         207.000
  20858714.620   -21791805.29249 -16963075.42447  20858714.952    20858720.583
       244.000         211.000
  22819276.458   -14528302.77549 -11306379.61446  22819275.694    22819282.295
       227.000         179.000
  23486945.812    -8491921.61549  -6380740.44946  23486945.936    23486952.218
       217.000         164.000
 00  2  4  2 51 30.0000000  0  7G 6G 5G13G10G30G17G24
  20896850.931   -24731906.91649 -19261172.32147  20896850.861    20896856.451
       244.000         212.000
  22442288.814   -15902057.98149 -12377510.64546  22442288.297    22442295.330
       228.000         182.000
  24795707.585    -2375910.71249  -1838553.53845  24795707.569    24795711.988
       206.000         136.000
  21003109.551   -23987460.83149 -18676386.82347  21003108.551    21003114.987
       242.000         207.000
  20866805.654   -21749286.61049 -16929943.99547  20866806.081    20866811.520
       245.000         211.000
  22807161.273   -14591968.33549 -11355989.08946  22807160.601    22807167.482
       226.000         179.000
  23501310.398    -8416435.25949  -6321919.90146  23501310.461    23501317.392
       217.000         164.000
 00  2  4  2 52  0.0000000  0  7G 6G 5G13G10G30G17G24
  20888043.042   -24778192.66249 -19297239.10147  20888042.929    20888048.568
       244.000         212.000
  22460661.659   -15805508.07349 -12302276.95246  22460660.868    22460668.069
       228.000         181.000
  24793303.113    -2388545.71049  -1848398.94445  24793304.373    24793308.359
       209.000         137.000
  21010804.100   -23947025.58949 -18644878.82447  21010803.623    21010809.472
       242.000         207.000
  20875008.000   -21706182.96949 -16896356.74647  20875008.282    20875013.652
       244.000         210.000
  22795086.487   -14655421.47049 -11405433.03146  22795086.010    22795093.203
       226.000         179.000
  23515671.857    -8340965.14449  -6263112.00346  23515671.689    23515678.632
       218.000         164.000
 00  2  4  2 52 30.0000000  0  7G 6G 5G13G10G30G17G24
  20879287.665   -24824202.35649 -19333090.77247  20879287.550    20879293.025
       244.000         212.000
  22479085.025   -15708692.78649 -12226836.48446  22479084.584    22479091.639
       229.000         181.000
  24790996.248    -2400668.50649  -1857845.24445  24790995.251    24791000.765
       211.000         137.000
  21018612.798   -23905990.54649 -18612903.44347  21018611.928    21018618.051
       243.000         207.000
  20883320.747   -21662499.17649 -16862317.42947  20883321.048    20883326.824
       245.000         210.000
  22783052.985   -14718657.82149 -11454708.06246  22783052.191    22783059.222
       227.000         179.000
  23530033.491    -8265494.48149  -6204303.67646  23530033.577    23530040.263
       218.000         164.000
 00  2  4  2 53  0.0000000  0  7G 6G 5G13G10G30G17G24
  20870584.283   -24869938.83049 -19368729.55747  20870584.215    20870589.550
       244.000         212.000
  22497558.168   -15611615.80549 -12151192.10246  22497557.345    22497564.781
       228.000         180.000
  24788787.769    -2412274.51249  -1866888.84945  24788789.438    24788791.765
       212.000         137.000
  21026531.866   -23864375.62649 -18580476.21847  21026531.005    21026537.105
       242.000         207.000
  20891741.697   -21618246.90349 -16827835.14947  20891742.128    20891747.591
       244.000         210.000
  22771058.646   -14781688.25049 -11503822.63246  22771058.154    22771064.365
       227.000         180.000
  23544396.817    -8190014.81649  -6145488.34446  23544396.513    23544403.434
       219.000         164.000
 00  2  4  2 53 30.0000000  0  7G 6G 5G13G10G30G17G24
  20861930.817   -24915412.94649 -19404163.89847  20861930.676    20861935.910
       246.000         212.000
  22516081.083   -15514277.23349 -12075343.88146  22516080.502    22516087.124
       229.000         180.000
  24786674.375    -2423380.65349  -1875542.95145  24786676.171    24786679.281
       212.000         136.000
  21034558.428   -23822195.70849 -18547608.72847  21034557.739    21034563.763
       244.000         207.000
  20900265.425   -21573454.41649 -16792931.91347  20900265.767    20900271.374
       246.000         210.000
  22759102.387   -14844518.79749 -11552781.44346  22759101.862    22759108.879
       229.000         180.000
  23558762.928    -8114520.49349  -6086661.58646  23558762.598    23558769.424
       220.000         164.000
 00  2  4  2 54  0.0000000  0  8G 6G 5G26G13G10G30G17G24
  20853325.883   -24960631.95849 -19439399.45947  20853325.553    20853331.078
       244.000         212.000
  22534653.705   -15416677.63749 -11999292.26846  22534652.944    22534659.943
       227.000         180.000
  24350966.041    -5354532.44249  -4157809.82945  24350965.218    24350973.373
       202.000         138.000
  24784653.550    -2433999.59449  -1883817.40545  24784655.090    24784657.691
       214.000         137.000
  21042692.838   -23779448.81949 -18514299.44447  21042692.097    21042698.206
       242.000         207.000
  20908891.535   -21528124.02449 -16757609.53847  20908891.815    20908897.549
       244.000         210.000
  22747187.130   -14907133.49749 -11601572.07546  22747185.741    22747193.268
       227.000         180.000
  23573133.643    -8039001.69249  -6027815.75546  23573133.329    23573140.774
       219.000         164.000
 00  2  4  2 54 30.0000000  0  8G 6G 5G26G13G10G30G17G24
  20844763.202   -25005628.99449 -19474462.05347  20844763.121    20844768.650
       244.000         212.000
  22553269.864   -15318849.11049 -11923062.25746  22553269.217    22553276.384
       225.000         179.000
  24334696.819    -5440027.56649  -4224429.33045  24334697.040    24334703.935
       202.000         137.000
  24782717.167    -2444175.74349  -1891746.85045  24782717.262    24782721.463
       211.000         137.000
  21050926.715   -23736179.45649 -18480583.03647  21050926.017    21050931.996
       241.000         207.000
  20917611.422   -21482300.51149 -16721902.91547  20917611.939    20917617.266
       244.000         210.000
  22735308.559   -14969555.51449 -11650212.56646  22735307.754    22735314.628
       227.000         180.000
  23587502.353    -7963493.61249  -5968978.27246  23587502.022    23587510.032
       219.000         163.000
 00  2  4  2 55  0.0000000  0  8G 6G 5G26G13G10G30G17G24
  20836240.180   -25050417.62649 -19509362.25447  20836240.021    20836245.551
       245.000         212.000
  22571925.274   -15220814.26749 -11846671.48646  22571925.391    22571931.715
       225.000         179.000
  24318427.577    -5525522.77049  -4291048.89545  24318426.194    24318433.978
       201.000         136.000
  24780858.993    -2453939.78849  -1899355.14045  24780856.450    24780864.480
       214.000         137.000
  21059257.687   -23692399.93649 -18446469.10747  21059256.890    21059262.906
       242.000         206.000
  20926425.323   -21435983.05549 -16685811.39747  20926425.627    20926431.230
       244.000         210.000
  22723467.201   -15031782.00949 -11698700.69946  22723466.402    22723473.261
       227.000         181.000
  23601868.706    -7887997.67849  -5910150.26446  23601867.957    23601875.171
       216.000         163.000
 00  2  4  2 55 30.0000000  0  8G 6G 5G26G13G10G30G17G24
  20827756.352   -25095000.25549 -19544101.93447  20827756.134    20827761.498
       244.000         212.000
  22590616.817   -15122589.45049 -11770132.68846  22590615.652    22590623.416
       226.000         179.000
  24302155.441    -5611033.12249  -4357680.22545  24302154.868    24302164.517
       201.000         137.000
  24779077.173    -2463303.86049  -1906651.78945  24779078.501    24779082.114
       210.000         137.000
  21067688.034   -23648098.22949 -18411948.27747  21067687.294    21067693.122
       241.000         206.000
  20935334.772   -21389163.69949 -16649328.79147  20935334.919    20935340.414
       244.000         210.000
  22711663.216   -15093812.23049 -11747035.89446  22711662.883    22711669.379
       227.000         181.000
  23616232.744    -7812514.30849  -5851332.04845  23616233.262    23616238.959
       218.000         162.000
 00  2  4  2 56  0.0000000  0  8G 6G 5G26G13G10G30G17G24
  20819314.227   -25139363.78749 -19578670.89448  20819313.799    20819319.513
       244.000         213.000
  22609342.922   -15024183.32649 -11693452.60946  22609342.788    22609349.656
       225.000         179.000
  24285879.647    -5696562.66549  -4424326.51045  24285880.065    24285887.501
       204.000         138.000
  24777375.789    -2472245.03349  -1913618.91645  24777376.249    24777378.382
       209.000         136.000
  21076218.733   -23603268.88849 -18377016.30547  21076218.068    21076224.185
       241.000         206.000
  20944344.141   -21341819.04849 -16612436.86147  20944344.372    20944350.149
       244.000         209.000
  22699896.106   -15155648.38449 -11795219.86646  22699895.369    22699902.213
       227.000         181.000
  23630595.305    -7737038.39349  -5792519.62545  23630596.019    23630602.439
       216.000         162.000
 00  2  4  2 56 30.0000000  0  8G 6G 5G26G13G10G30G17G24
  20810915.852   -25183497.26049 -19613060.58248  20810915.773    20810921.141
       245.000         213.000
  22628102.940   -14925598.80849 -11616633.51446  22628101.881    22628109.677
       225.000         179.000
  24269598.707    -5782119.64749  -4490994.17745  24269598.337    24269606.678
       207.000         141.000
  24775761.143    -2480728.53649  -1920229.37745  24775761.597    24775767.581
       209.000         135.000
  21084849.667   -23557912.86649 -18341673.92847  21084848.973    21084855.167
       241.000         206.000
  20953455.153   -21293940.41049 -16575128.83847  20953455.694    20953460.960
       244.000         209.000
  22688165.444   -15217293.15349 -11843254.70646  22688164.640    22688172.080
       227.000         181.000
  23644958.313    -7661560.29649  -5733705.51245  23644958.296    23644965.203
       216.000         161.000
 00  2  4  2 57  0.0000000  0  8G 6G 5G26G13G10G30G17G24
  20802564.689   -25227382.86949 -19647257.13248  20802564.574    20802569.802
       245.000         213.000
  22646896.311   -14826839.23649 -11539678.02146  22646895.930    22646903.152
       225.000         179.000
  24253313.364    -5867699.37649  -4557679.56345  24253314.150    24253321.552
       208.000         143.000
  24774237.472    -2488735.35049  -1926468.39145  24774237.123    24774243.405
       212.000         135.000
  21093584.244   -23512012.27749 -18305907.21647  21093583.546    21093589.837
       241.000         205.000
  20962672.155   -21245504.85649 -16537386.85547  20962672.364    20962677.963
       243.000         209.000
  22676472.156   -15278741.41749 -11891136.42446  22676471.505    22676477.796
       227.000         181.000
  23659321.756    -7586080.10949  -5674889.77145  23659321.353    23659327.842
       218.000         161.000
 00  2  4  2 57 30.0000000  0  8G 6G 5G26G13G10G30G17G24
  20794265.234   -25270996.58349 -19681241.81848  20794265.030    20794270.613
       244.000         213.000
  22665726.023   -14727888.35049 -11462573.45846  22665725.835    22665732.710
       225.000         178.000
  24237028.905    -5953274.46549  -4624361.33745  24237028.974    24237035.965
       208.000         144.000
  24772811.115    -2496231.91249  -1932309.85245  24772810.320    24772815.693
       211.000         135.000
  21102423.123   -23465563.62049 -18269713.44247  21102422.147    21102428.450
       241.000         205.000
  20971994.349   -21196516.33749 -16499213.99347  20971994.740    20972000.078
       244.000         209.000
  22664817.260   -15339988.26949 -11938861.20546  22664816.924    22664823.348
       228.000         182.000
  23673683.646    -7510607.85249  -5616080.21245  23673683.930    23673689.972
       217.000         160.000
 00  2  4  2 58  0.0000000  0  8G 6G 5G26G13G10G30G17G24
  20786018.676   -25314332.49249 -19715010.03448  20786018.579    20786023.807
       245.000         213.000
  22684593.895   -14628737.12649 -11385312.78146  22684594.052    22684600.981
       225.000         178.000
  24220748.138    -6038830.09549  -4691027.94645  24220747.935    24220754.603
       211.000         144.000
  24771485.706    -2503199.47049  -1937739.07745  24771484.638    24771488.751
       207.000         134.000
  21111361.543   -23418591.87749 -18233112.06747  21111360.639    21111366.822
       240.000         205.000
  20981417.508   -21146997.18549 -16460627.65247  20981417.787    20981422.973
       243.000         209.000
  22653202.386   -15401024.60049 -11986421.93946  22653201.885    22653208.148
       228.000         182.000
  23688041.154    -7435158.78649  -5557288.73445  23688040.931    23688047.622
       216.000         160.000
 00  2  4  2 58 30.0000000  0  8G 6G 5G26G13G10G30G17G24
  20777822.631   -25357402.82249 -19748571.30248  20777822.553    20777828.002
       245.000         213.000
  22703498.699   -14529391.70949 -11307900.78746  22703497.945    22703505.006
       225.000         178.000
  24204471.238    -6124365.59949  -4757678.88345  24204472.023    24204478.322
       210.000         145.000
  24770257.523    -2509650.25549  -1942765.62645  24770257.198    24770261.595
       212.000         135.000
  21120397.920   -23371105.12449 -18196109.38247  21120396.983    21120402.886
       241.000         205.000
  20990937.832   -21096967.47349 -16421643.46747  20990938.026    20990943.835
       244.000         208.000
  22641626.743   -15461854.85049 -12033822.08546  22641625.849    22641633.040
       228.000         182.000
  23702389.924    -7359755.61449  -5498533.00745  23702389.837    23702396.374
       214.000         159.000
 00  2  4  2 59  0.0000000  0  8G 6G 5G26G13G10G30G17G24
  20769677.190   -25400207.39049 -19781925.48748  20769677.102    20769682.539
       246.000         213.000
  22722440.452   -14429852.06449 -11230337.43546  22722440.092    22722447.012
       226.000         178.000
  24188200.010    -6209871.16849  -4824306.50145  24188200.008    24188207.239
       211.000         146.000
  24769126.265    -2515596.36049  -1947398.93045  24769126.830    24769130.811
       214.000         136.000
  21129533.624   -23323096.63749 -18158700.15447  21129532.919    21129539.115
       242.000         205.000
  21000551.017   -21046449.79249 -16382279.04347  21000551.471    21000556.934
       244.000         208.000
  22630090.520   -15522477.97849 -12081060.84246  22630090.015    22630096.508
       230.000         183.000
  23716728.044    -7284408.04349  -5439820.60545  23716727.621    23716734.194
       217.000         157.000
 00  2  4  2 59 30.0000000  0  8G 6G 5G26G13G10G30G17G24
  20761578.734   -25442765.00449 -19815087.23948  20761578.418    20761583.666
       245.000         213.000
  22741419.050   -14330119.08449 -11152623.43646  22741418.843    22741425.897
       225.000         178.000
  24171935.580    -6295341.03449  -4890906.29345  24171935.607    24171943.232
       211.000         146.000
  24768091.071    -2521035.67449  -1951637.27445  24768089.938    24768094.889
       211.000         136.000
  21138764.650   -23274587.34149 -18120900.68447  21138763.708    21138769.867
       240.000         205.000
  21010253.451   -20995463.17949 -16342549.21947  21010253.714    21010259.303
       243.000         208.000
  22618591.890   -15582903.39249 -12128145.53646  22618591.595    22618597.681
       229.000         183.000
  23731056.497    -7209111.22549  -5381147.75445  23731055.182    23731062.521
       215.000         157.000
 00  2  4  3  0  0.0000000  0  8G 6G 5G26G13G10G30G17G24
  20753523.109   -25485097.58949 -19848073.65148  20753523.055    20753528.656
       245.000         214.000
  22760433.160   -14230199.30849 -11074763.87846  22760433.210    22760440.037
       225.000         177.000
  24155675.535    -6380787.79249  -4957488.08745  24155675.524    24155682.644
       211.000         145.000
  24767148.434    -2525988.57649  -1955496.66645  24767149.609    24767153.961
       212.000         135.000
  21148089.554   -23225584.38049 -18082716.54347  21148088.783    21148094.866
       240.000         204.000
  21020048.145   -20943991.95649 -16302441.78147  21020048.413    21020053.762
       242.000         208.000
  22607129.812   -15643136.97449 -12175080.75346  22607129.330    22607136.152
       228.000         184.000
  23745376.241    -7133860.35749  -5322510.71445  23745375.848    23745383.201
       215.000         156.000
 00  2  4  3  0 30.0000000  0  8G 6G 5G26G13G10G30G17G24
  20745508.955   -25527212.17049 -19880890.19148  20745508.853    20745514.196
       245.000         214.000
  22779479.604   -14130109.65349 -10996771.95246  22779479.235    22779486.094
       224.000         177.000
  24139421.625    -6466202.01849  -5024044.54345  24139420.837    24139428.854
       211.000         144.000
  24766294.848    -2530474.31549  -1958992.02945  24766295.680    24766298.909
       210.000         135.000
  21157509.223   -23176083.58749 -18044144.48447  21157508.532    21157514.554
       240.000         204.000
  21029938.350   -20892018.57449 -16261943.04747  21029938.746    21029944.270
       242.000         208.000
  22595701.477   -15703193.24349 -12221877.80346  22595700.792    22595708.238
       229.000         184.000
  23759686.475    -7058659.55949  -5263912.69045  23759686.441    23759692.722
       214.000         155.000
 00  2  4  3  1  0.0000000  0  8G 6G 5G26G13G10G30G17G24
  20737539.526   -25569091.76249 -19913523.62048  20737539.470    20737544.995
       245.000         214.000
  22798560.251   -14029840.06149 -10918639.80646  22798560.155    22798567.347
       224.000         176.000
  24123176.246    -6551571.84549  -5090566.41845  24123176.283    24123182.361
       211.000         141.000
  24765530.019    -2534491.52949  -1962122.27445  24765530.430    24765536.055
       213.000         136.000
  21167023.789   -23126084.11549 -18005183.84247  21167023.105    21167029.220
       240.000         204.000
  21039927.517   -20839525.16749 -16221039.09947  21039927.681    21039933.414
       242.000         208.000
  22584309.205   -15763059.90349 -12268527.11346  22584308.379    22584315.265
       229.000         184.000
  23773989.657    -6983495.89449  -5205343.60545  23773989.959    23773995.909
       214.000         154.000
 00  2  4  3  1 30.0000000  0  8G 6G 5G26G13G10G30G17G24
  20729615.578   -25610732.34749 -19945970.80748  20729615.356    20729620.893
       245.000         214.000
  22817674.791   -13929392.64649 -10840369.11346  22817674.293    22817681.700
       223.000         176.000
  24106938.563    -6636900.91749  -5157056.51745  24106938.024    24106945.995
       211.000         141.000
  24764854.948    -2538039.28149  -1964886.70845  24764854.038    24764859.219
       213.000         134.000
  21176631.980   -23075592.57249 -17965839.76547  21176631.123    21176637.272
       240.000         204.000
  21050020.904   -20786483.95049 -16179708.28447  21050021.184    21050026.869
       242.000         207.000
  22572954.451   -15822729.64349 -12315022.97546  22572953.949    22572960.903
       229.000         184.000
  23788286.322    -6908365.99549  -5146800.82945  23788285.892    23788292.492
       214.000         154.000
 00  2  4  3  2  0.0000000  0  8G 6G 5G26G13G10G30G17G24
  20721740.824   -25652114.31449 -19978216.47548  20721740.528    20721746.158
       245.000         214.000
  22836822.693   -13828769.77649 -10761961.68846  22836822.127    22836829.726
       224.000         176.000
  24090708.731    -6722188.86049  -5223514.58745  24090708.340    24090715.524
       210.000         141.000
  24764267.620    -2541125.32849  -1967291.38445  24764266.925    24764273.103
       210.000         135.000
  21186337.370   -23024590.38249 -17926097.78647  21186336.664    21186342.728
       239.000         204.000
  21060220.276   -20732885.84349 -16137943.53047  21060220.573    21060225.963
       241.000         207.000
  22561638.103   -15882197.06649 -12361361.18546  22561637.503    22561644.029
       229.000         184.000
  23802576.238    -6833271.59649  -5088285.70345  23802576.099    23802581.668
       213.000         153.000
 00  2  4  3  2 30.0000000  0  8G 6G 5G26G13G10G30G17G24
  20713922.276   -25693200.88549 -20010231.96448  20713922.120    20713927.674
       245.000         214.000
  22856004.249   -13727969.87049 -10683416.31846  22856003.298    22856011.275
       223.000         175.000
  24074491.053    -6807413.15149  -5289923.05945  24074490.917    24074498.149
       209.000         142.000
  24763772.843    -2543724.10149  -1969316.36645  24763773.406    24763778.509
       208.000         135.000
  21196142.538   -22973063.66849 -17885947.08547  21196141.766    21196147.897
       239.000         204.000
  21070525.059   -20678733.94149 -16095747.24847  21070525.429    21070530.886
       241.000         207.000
  22550361.880   -15941453.97449 -12407535.35946  22550361.590    22550368.137
       229.000         185.000
  23816862.441    -6758196.90549  -5029785.95345  23816862.529    23816868.248
       212.000         152.000
 00  2  4  3  3  0.0000000  0  8G 6G 5G26G13G10G30G17G24
  20706161.128   -25733985.95149 -20042012.51348  20706160.913    20706166.376
       246.000         214.000
  22875222.723   -13626976.12449 -10604719.90146  22875222.393    22875229.614
       223.000         175.000
  24058284.669    -6892577.70449  -5356284.98845  24058284.526    24058291.913
       211.000         143.000
  24763372.716    -2545823.51849  -1970952.26045  24763374.922    24763377.162
       208.000         135.000
  21206049.814   -22921000.56349 -17845378.41347  21206049.008    21206055.157
       239.000         204.000
  21080932.811   -20624040.95349 -16053129.34247  21080933.114    21080938.649
       242.000         207.000
  22539126.722   -16000495.04549 -12453541.34646  22539126.028    22539132.686
       229.000         185.000
  23831148.882    -6683120.73549  -4971285.03745  23831149.169    23831155.814
       213.000         151.000
 00  2  4  3  3 30.0000000  0  8G 6G 5G26G13G10G30G17G24
  20698456.942   -25774471.70349 -20073559.82648  20698456.727    20698462.215
       246.000         214.000
  22894475.712   -13525800.96549 -10525882.11646  22894475.454    22894482.347
       223.000         174.000
  24042091.349    -6977673.99449  -5422593.70645  24042091.536    24042098.641
       211.000         144.000
  24763069.481    -2547415.66849  -1972192.86245  24763071.322    24763075.970
       211.000         134.000
  21216060.378   -22868394.63149 -17804386.76247  21216059.468    21216065.562
       240.000         204.000
  21091440.486   -20568822.74449 -16010102.16647  21091440.839    21091446.412
       241.000         207.000
  22527932.322   -16059321.48849 -12499380.08746  22527931.867    22527938.608
       229.000         186.000
  23845435.638    -6608043.41149  -4912783.21745  23845434.609    23845442.404
       214.000         151.000
 00  2  4  3  4  0.0000000  0  9G 6G 5G23G26G13G10G30G17G24
  20690811.182   -25814650.46649 -20104867.93448  20690810.880    20690816.459
       246.000         215.000
  22913763.282   -13424444.02749 -10446902.69546  22913763.112    22913769.953
       223.000         174.000
  24591533.272    -3441074.34348  -2668287.45845  24591533.286    24591541.088
       194.000         137.000
  24025913.257    -7062690.12849  -5488839.98745  24025913.446    24025919.838
       210.000         146.000
  24762865.427    -2548488.61249  -1973028.88845  24762866.984    24762871.765
       210.000         134.000
  21226175.876   -22815237.06149 -17762965.26447  21226175.065    21226181.249
       240.000         204.000
  21102045.649   -20513092.14349 -15966675.73047  21102045.998    21102051.649
       242.000         207.000
  22516779.490   -16117929.78149 -12545048.85046  22516778.838    22516785.593
       229.000         186.000
  23859723.837    -6532958.26649  -4854275.31145  23859722.928    23859730.542
       213.000         151.000
 00  2  4  3  4 30.0000000  0  9G 6G 5G23G26G13G10G30G17G24
  20683218.623   -25854549.46049 -20135958.03948  20683218.456    20683223.888
       246.000         215.000
  22933083.931   -13322913.48849 -10367788.00246  22933083.717    22933090.285
       222.000         174.000
  24571382.690    -3546966.03548  -2750800.37545  24571382.136    24571390.858
       194.000         137.000
  24009747.184    -7147643.04649  -5555037.00845  24009747.528    24009754.194
       210.000         146.000
  24762758.614    -2549049.55649  -1973465.95845  24762761.367    24762764.440
       209.000         135.000
  21236391.990   -22761550.95649 -17721131.92247  21236391.572    21236397.282
       240.000         204.000
  21112742.304   -20456880.84249 -15922874.72047  21112742.712    21112748.278
       241.000         207.000
  22505666.619   -16176328.12849 -12590554.01046  22505666.132    22505672.704
       230.000         186.000
  23874010.636    -6457880.51149  -4795773.16845  23874010.646    23874017.306
       214.000         151.000
 00  2  4  3  5  0.0000000  0  9G 6G 5G23G26G13G10G30G17G24
  20675673.977   -25894196.66249 -20166851.94048  20675673.819    20675679.127
       246.000         215.000
  22952434.227   -13221226.89149 -10288551.69846  22952434.121    22952441.417
       223.000         173.000
  24551248.168    -3652772.74849  -2833247.06645  24551247.175    24551255.482
       196.000         137.000
  23993588.927    -7232554.90449  -5621202.01845  23993588.774    23993596.371
       211.000         148.000
  24762743.711    -2549128.37349  -1973527.32945  24762745.148    24762748.971
       207.000         135.000
  21246707.137   -22707344.54449 -17678893.14647  21246706.441    21246712.081
       240.000         204.000
  21123527.204   -20400205.87849 -15878712.41547  21123527.596    21123533.155
       241.000         207.000
  22494593.378   -16234518.20349 -12635896.88346  22494592.728    22494599.490
       230.000         186.000
  23888291.578    -6382833.48449  -4737294.95845  23888291.770    23888298.182
       212.000         151.000
 00  2  4  3  5 30.0000000  0  9G 6G 5G23G26G13G10G30G17G24
  20668177.115   -25933592.82849 -20197550.22748  20668176.909    20668182.225
       245.000         215.000
  22971810.826   -13119402.27149 -10209207.85246  22971810.217    22971818.122
       222.000         172.000
  24531127.377    -3758507.40749  -2915637.62045  24531126.934    24531135.316
       202.000         140.000
  23977437.872    -7317429.14449  -5687337.73245  23977437.785    23977444.803
       208.000         148.000
  24762818.918    -2548734.81449  -1973220.62345  24762818.567    24762823.970
       209.000         136.000
  21257117.185   -22652639.42249 -17636265.76047  21257116.674    21257122.296
       240.000         204.000
  21134402.531   -20343055.64349 -15834179.76747  21134402.957    21134408.492
       241.000         206.000
  22483560.899   -16292494.01949 -12681072.79746  22483560.875    22483566.967
       230.000         186.000
  23902563.689    -6307832.68249  -4678852.76845  23902563.749    23902570.947
       214.000         150.000
